GEFSMW_con_prob3kmehi_006.txt.gz
EHI
13 7 2 1 2 4 9 14 13 6 1 0 0 0 0 0 0 0 0 0 0 0 0 0 0 0 0 0 1 1 1 0 0 0 1 0 0 0 0 0 0 0 0
10 5 1 0 1 2 4 7 6 3 1 0 0 0 0 0 0 0 0 0 0 0 0 0 0 0 0 0 1 2 2 1 0 0 1 0 0 0 0 0 0 0 0
4 2 0 0 0 0 1 1 1 2 1 0 0 0 0 0 0 0 0 0 0 0 0 0 0 0 0 0 0 2 2 1 0 0 0 0 0 0 0 0 0 0 0
1 0 0 0 0 0 0 0 1 1 1 1 1 1 1 0 0 0 0 0 0 0 0 0 0 0 0 0 0 1 2 2 1 1 0 0 0 0 0 0 0 0 0
0 0 0 0 0 0 0 0 0 0 1 2 2 2 1 0 0 0 0 0 0 0 0 0 0 0 0 0 0 0 1 2 2 1 0 0 0 0 0 0 0 0 0
0 0 0 0 0 0 0 0 0 0 0 1 1 1 1 0 0 0 0 0 0 0 0 0 0 0 0 0 0 0 0 1 1 1 0 0 0 0 0 0 0 0 0
0 0 0 0 0 0 0 0 0 0 0 0 0 0 0 0 0 0 0 0 0 0 0 0 0 0 0 0 0 0 0 0 0 0 0 0 0 0 0 0 0 0 0
0 0 0 0 0 0 0 0 0 0 0 0 0 0 0 0 0 0 0 0 0 0 0 0 0 0 0 0 0 0 0 0 0 0 0 0 0 0 0 0 0 0 0
0 0 0 0 0 0 0 0 0 0 0 0 0 0 0 0 0 0 0 0 0 0 0 0 0 0 0 0 0 0 0 0 0 0 0 0 0 0 0 0 0 0 0
0 0 0 0 0 0 0 0 0 0 0 0 0 0 0 0 0 0 0 0 0 0 0 0 0 0 0 0 0 0 0 0 0 0 0 0 0 0 0 0 0 0 0
0 0 0 0 0 0 0 0 0 0 0 0 0 0 0 0 0 0 0 0 0 0 0 0 0 0 0 0 0 0 0 0 0 0 0 0 0 0 0 0 0 0 0
0 0 0 0 0 0 0 0 0 0 0 0 0 0 0 0 0 0 0 0 0 0 0 0 0 0 0 0 0 0 0 0 0 0 0 0 0 0 0 0 0 0 0
0 0 0 0 0 0 0 0 0 0 0 0 0 0 0 0 0 0 0 0 0 0 0 0 0 0 0 0 0 0 0 0 0 0 0 0 0 0 0 0 0 0 0
0 0 0 0 0 0 0 0 0 0 0 0 0 0 0 0 0 0 0 0 0 0 0 0 0 0 0 0 0 0 0 0 0 0 0 0 0 0 0 0 0 0 0
0 0 0 0 0 0 0 0 0 0 0 0 0 0 0 0 0 0 0 0 0 0 0 0 0 0 0 0 0 0 0 0 0 0 0 0 0 0 0 0 0 0 0
0 0 0 0 0 0 0 0 0 0 0 0 0 0 0 0 0 0 0 0 0 0 0 0 0 0 0 0 0 0 0 0 0 0 0 0 0 0 0 0 0 0 0
0 0 0 0 0 0 0 0 0 0 0 0 0 0 0 0 0 0 0 0 0 0 0 0 0 0 0 0 0 0 0 0 0 0 0 0 0 0 0 0 0 0 0
0 0 0 0 0 0 0 0 0 0 0 0 0 0 0 0 0 0 0 0 0 0 0 0 0 0 0 0 0 0 0 0 0 0 0 0 0 0 0 0 0 0 0
0 0 0 0 0 0 0 0 0 0 0 0 0 0 0 0 0 0 0 0 0 0 0 0 0 0 0 0 0 0 0 0 0 0 0 0 0 0 0 0 0 0 0
0 0 0 0 0 0 0 0 0 0 0 0 0 0 0 0 0 0 0 0 0 0 0 0 0 0 0 0 0 0 0 0 0 0 0 0 0 0 0 0 0 0 0
0 0 0 0 0 0 0 0 0 0 0 0 0 0 0 0 0 0 0 0 0 0 0 0 0 0 0 0 0 0 0 0 0 0 0 0 0 0 0 0 0 0 0
0 0 0 0 0 0 0 0 0 0 0 0 0 0 0 0 0 0 0 0 0 0 0 0 0 0 0 0 0 0 0 0 0 0 0 0 0 0 0 0 0 0 0
0 0 0 0 0 0 0 0 0 0 0 0 0 0 0 0 0 0 0 0 0 0 0 0 0 0 0 0 0 0 0 0 0 0 0 0 0 0 0 0 0 0 0
0 0 0 0 0 0 0 0 0 0 0 0 0 0 0 0 0 0 0 0 0 0 0 0 0 0 0 0 0 0 0 0 0 0 0 0 0 0 0 0 0 0 0
0 0 0 0 0 0 0 0 0 0 0 0 0 0 0 0 0 0 0 0 0 0 0 0 0 0 0 0 0 0 0 0 0 0 0 0 0 0 0 0 0 0 0
0 0 0 0 0 0 0 0 0 0 0 0 0 0 0 0 0 0 0 0 0 0 0 0 0 0 0 0 0 0 0 0 0 0 0 0 0 0 0 0 0 0 0

GEFSMW_con_prob3kmehi_012.txt.gz
EHI
90 88 79 63 50 49 56 61 55 36 17 7 4 2 1 0 0 0 0 0 0 0 0 0 0 0 1 1 1 0 0 1 4 7 11 16 26 37 40 35 24 11 5
83 82 73 54 39 37 42 45 37 20 8 3 2 1 0 0 0 0 0 0 0 0 0 0 0 0 0 0 0 0 0 0 1 3 5 7 16 26 31 34 31 21 16
71 68 53 33 21 18 19 19 14 6 2 1 1 1 0 0 0 0 1 2 1 0 0 0 0 0 0 0 0 0 0 0 0 0 0 1 5 11 20 28 29 28 29
56 49 34 18 9 7 7 6 6 9 13 14 13 9 3 0 0 0 2 4 2 0 0 0 0 0 0 0 0 0 0 0 0 0 0 0 1 3 9 15 17 20 25
41 37 28 18 12 8 5 4 8 21 33 35 31 21 8 1 0 0 2 3 2 0 0 0 0 0 0 0 0 0 0 0 0 0 0 1 2 1 2 4 8 12 14
31 30 26 22 17 10 4 3 9 25 41 44 38 28 16 8 4 1 0 0 0 0 0 0 0 0 0 0 0 0 0 0 0 0 0 0 1 1 1 1 4 10 15
20 18 16 14 11 7 4 6 16 30 41 44 43 38 29 19 9 3 0 0 0 0 0 0 0 0 0 0 0 0 0 0 0 0 0 0 0 1 2 3 3 10 18
6 5 4 4 3 3 6 15 31 46 54 57 61 61 51 34 18 8 3 0 0 0 0 0 0 0 0 0 0 0 0 0 0 0 0 0 0 1 3 5 7 13 19
0 0 0 0 0 2 6 15 29 45 55 63 73 78 72 57 36 20 9 2 0 0 0 0 0 0 0 0 0 0 0 0 0 0 0 0 0 1 2 6 11 17 22
0 0 0 0 0 1 3 6 11 20 29 40 54 65 72 71 58 38 20 9 3 0 0 0 0 0 0 0 0 0 0 0 0 0 0 0 0 1 2 7 14 23 30
0 0 0 0 0 0 0 0 1 2 5 11 19 30 43 54 55 44 28 14 6 2 1 0 0 0 0 0 0 0 0 0 0 0 0 0 0 1 2 7 15 25 33
0 0 0 0 0 0 0 0 0 0 0 0 2 5 12 20 27 26 19 11 6 3 2 0 0 0 0 0 0 0 0 0 0 0 0 0 0 0 2 7 14 20 24
0 0 0 0 0 0 0 0 0 0 0 0 0 0 0 2 5 6 5 4 3 3 1 0 0 0 0 0 0 0 0 0 0 0 0 0 0 0 1 5 9 11 10
0 0 0 0 0 0 0 0 0 0 0 0 0 0 0 0 0 0 0 0 1 1 1 1 0 0 0 0 0 0 0 0 0 0 0 0 0 0 0 2 3 3 3
0 0 0 0 0 0 0 0 0 0 0 0 0 0 0 0 0 0 0 0 0 0 1 2 1 0 0 0 0 0 0 0 0 0 0 0 0 0 0 0 0 0 1
0 0 0 0 0 0 0 0 0 0 0 0 0 0 0 0 0 0 0 0 0 0 1 2 1 0 0 0 0 0 0 0 0 0 0 0 0 0 0 0 0 0 0
0 0 0 0 0 0 0 0 0 0 0 0 0 0 0 0 0 0 0 0 0 0 0 0 0 0 0 0 0 0 0 0 0 0 0 0 0 0 0 0 0 0 0
0 0 0 0 0 0 0 0 0 0 0 0 0 0 0 0 0 0 0 0 0 0 0 0 0 0 0 0 0 0 0 0 0 0 0 0 0 0 0 0 0 0 0
0 0 0 0 0 0 0 0 0 0 0 0 0 0 0 0 0 0 0 0 0 0 0 0 0 0 0 0 0 0 0 0 0 0 0 0 0 0 0 0 0 0 0
0 0 0 0 0 0 0 0 0 0 0 0 0 0 0 0 0 0 0 0 0 0 0 0 0 0 0 0 0 0 0 0 0 0 0 0 0 0 0 0 0 0 0
0 0 0 0 0 0 0 0 0 0 0 0 0 0 0 0 0 0 0 0 0 0 0 0 0 0 0 0 0 0 0 0 0 0 0 0 0 0 0 0 0 0 0
0 0 0 0 0 0 0 0 0 0 0 0 0 0 0 0 0 0 0 0 0 0 0 0 0 0 0 0 0 0 0 0 0 0 0 0 0 0 0 0 0 0 0
0 0 0 0 0 0 0 0 0 0 0 0 0 0 0 0 0 0 0 0 0 0 0 0 0 0 0 0 0 0 0 0 0 0 0 0 0 0 0 0 0 0 0
0 0 0 0 0 0 0 0 0 0 0 0 0 0 0 0 0 0 0 0 0 0 0 0 0 0 0 0 0 0 0 0 0 0 0 0 0 0 0 0 0 0 0
0 0 0 0 0 0 0 0 0 0 0 0 0 0 0 0 0 0 0 0 0 0 0 0 0 0 0 0 0 0 0 0 0 0 0 0 0 0 0 0 0 0 0
0 0 0 0 0 0 0 0 0 0 0 0 0 0 0 0 0 0 0 0 0 0 0 0 0 0 0 0 0 0 0 0 0 0 0 0 0 0 0 0 0 0 0

GEFSMW_con_prob3kmehi_018.txt.gz
EHI
92 92 89 85 84 88 91 91 90 86 84 84 78 68 52 27 12 24 34 20 7 5 3 2 2 1 1 1 1 1 1 0 0 0 1 3 10 21 36 48 53 54 55
76 76 74 70 71 75 78 80 82 76 72 70 61 49 37 19 11 26 42 37 24 14 7 4 2 0 0 0 1 2 2 1 0 0 0 1 5 12 23 37 49 57 61
42 42 40 39 41 46 53 63 73 67 58 51 35 25 24 15 14 35 59 64 50 32 19 9 3 1 0 0 1 2 2 1 0 0 0 0 1 3 8 18 34 50 60
13 12 12 12 14 21 35 57 71 69 62 52 37 31 31 25 30 51 72 76 63 45 30 16 7 3 1 0 0 1 1 0 0 0 0 0 0 0 2 5 13 30 42
2 2 2 4 7 13 30 54 70 74 73 70 65 61 56 51 56 70 79 78 66 50 37 25 14 6 1 0 0 0 0 0 0 0 0 0 0 0 0 0 2 10 19
2 2 3 5 8 12 24 41 54 61 67 73 79 82 80 78 81 85 86 83 73 60 48 37 24 11 3 1 0 0 0 1 1 0 0 0 0 0 0 0 0 2 4
1 1 2 4 5 8 13 21 28 33 38 47 61 73 80 84 90 92 92 89 82 75 66 49 31 15 5 2 0 0 0 1 1 1 0 0 0 0 0 0 0 0 0
0 0 1 1 1 3 5 7 8 10 12 17 28 41 50 61 74 85 92 93 90 87 79 61 38 20 8 2 0 0 0 1 1 1 0 0 0 0 0 0 0 0 0
0 0 0 0 0 0 1 2 2 1 1 2 6 12 18 26 39 56 72 83 87 88 84 73 52 28 11 3 0 0 0 0 0 0 0 0 0 0 0 0 0 0 0
0 0 0 0 0 0 0 0 0 0 0 0 0 1 2 5 10 20 37 51 62 71 79 77 61 36 15 5 1 0 0 0 0 0 0 0 0 0 0 0 0 0 0
0 0 0 0 0 0 0 0 0 0 0 0 0 0 0 0 0 3 9 17 26 39 54 61 54 34 14 5 2 0 0 0 0 0 0 0 0 0 0 0 0 0 0
0 0 0 0 0 0 0 0 0 0 0 0 0 0 0 0 0 0 0 1 4 11 22 32 35 25 12 6 3 0 0 0 0 0 0 0 0 0 0 0 0 0 0
0 0 0 0 0 0 0 0 0 0 0 0 0 0 0 0 0 0 0 0 0 1 4 10 16 16 13 8 4 1 0 0 0 0 0 0 0 0 0 0 0 0 0
0 0 0 0 0 0 0 0 0 0 0 0 0 0 0 0 0 0 0 0 0 0 0 2 5 9 9 6 3 1 0 0 0 0 0 0 0 0 0 0 0 0 0
0 0 0 0 0 0 0 0 0 0 0 0 0 0 0 0 0 0 0 0 0 0 0 0 1 2 3 2 1 1 0 0 0 0 0 0 0 0 0 0 0 0 0
0 0 0 0 0 0 0 0 0 0 0 0 0 0 0 0 0 0 0 0 0 0 0 0 0 0 0 0 0 0 0 0 0 0 0 0 0 0 0 0 0 0 0
0 0 0 0 0 0 0 0 0 0 0 0 0 0 0 0 0 0 0 0 0 0 0 0 0 0 0 0 0 0 0 0 0 0 0 0 0 0 0 0 0 0 0
0 0 0 0 0 0 0 0 0 0 0 0 0 0 0 0 0 0 0 0 0 0 0 0 0 0 0 0 0 0 0 0 0 0 0 0 0 0 0 0 0 0 0
0 0 0 0 0 0 0 0 0 0 0 0 0 0 0 0 0 0 0 0 0 0 0 0 0 0 0 0 0 0 0 0 0 0 0 0 0 0 0 0 0 0 0
0 0 0 0 0 0 0 0 0 0 0 0 0 0 0 0 0 0 0 0 0 0 0 0 0 0 0 0 0 0 0 0 0 0 0 0 0 0 0 0 0 0 0
0 0 0 0 0 0 0 0 0 0 0 0 0 0 0 0 0 0 0 0 0 0 0 0 0 0 0 0 0 0 0 0 0 0 0 0 0 0 0 0 0 0 0
0 0 0 0 0 0 0 0 0 0 0 0 0 0 0 0 0 0 0 0 0 0 0 0 0 0 0 0 0 0 0 0 0 0 0 0 0 0 0 0 0 0 0
0 0 0 0 0 0 0 0 0 0 0 0 0 0 0 0 0 0 0 0 0 0 0 0 0 0 0 0 0 0 0 0 0 0 0 0 0 0 0 0 0 0 0
0 0 0 0 0 0 0 0 0 0 0 0 0 0 0 0 0 0 0 0 0 0 0 0 0 0 0 0 0 0 0 0 0 0 0 0 0 0 0 0 0 0 0
0 0 0 0 0 0 0 0 0 0 0 0 0 0 0 0 0 0 0 0 0 0 0 0 0 0 0 0 0 0 0 0 0 0 0 0 0 0 0 0 0 0 0
0 0 0 0 0 0 0 0 0 0 0 0 0 0 0 0 0 0 0 0 0 0 0 0 0 0 0 0 0 0 0 0 0 0 0 0 0 0 0 0 0 0 0

GEFSMW_con_prob3kmehi_024.txt.gz
EHI
0 0 0 0 0 0 1 4 6 7 9 11 12 8 5 3 2 1 0 0 0 0 0 0 0 0 0 0 0 0 0 0 0 0 0 0 0 0 0 0 0 0 0
0 0 0 0 0 0 1 3 4 5 5 7 7 4 2 1 1 0 0 0 0 0 0 0 0 0 0 0 0 0 0 0 0 0 0 0 0 0 0 0 0 0 0
0 0 0 0 0 0 1 1 1 1 2 2 2 1 1 1 1 0 0 0 0 0 0 0 0 0 0 0 0 0 0 0 0 0 0 0 0 0 0 0 0 0 0
0 0 0 0 0 0 0 0 0 0 0 0 0 0 1 1 1 0 0 0 0 0 0 0 0 0 0 0 0 0 0 0 0 0 0 0 0 0 0 0 0 0 0
0 0 0 0 0 0 0 0 0 0 0 0 0 0 1 1 0 1 1 0 0 0 0 0 0 0 0 0 0 0 0 0 0 0 0 0 0 0 0 0 0 0 0
0 0 0 0 0 0 0 0 0 0 0 0 0 0 0 0 0 2 2 1 0 0 0 0 0 0 0 0 0 0 0 0 0 0 0 0 0 0 0 0 0 0 0
0 0 0 0 0 0 0 0 0 0 0 0 0 0 0 0 0 1 1 0 0 0 0 0 0 0 0 0 0 0 0 0 0 0 0 0 0 0 0 0 0 0 0
0 0 0 0 0 0 0 0 0 0 0 0 0 0 0 0 0 0 0 0 0 0 0 0 0 0 0 0 0 0 0 0 0 0 0 0 0 0 0 0 0 0 0
0 0 0 0 0 0 0 0 0 0 0 0 0 0 0 0 0 0 0 0 0 0 0 0 0 0 0 0 0 0 0 0 0 0 0 0 0 0 0 0 0 0 0
0 0 0 0 0 0 0 0 0 0 0 0 0 0 0 0 0 0 0 0 0 0 0 0 0 0 0 0 0 0 0 0 0 0 0 0 0 0 0 0 0 0 0
0 0 0 0 0 0 0 0 0 0 0 0 0 0 0 0 0 0 0 0 0 0 0 0 0 0 0 0 0 0 0 0 0 0 0 0 0 0 0 0 0 0 0
0 0 0 0 0 0 0 0 0 0 0 0 0 0 0 0 0 0 0 0 0 0 0 0 0 0 0 0 0 0 0 0 0 0 0 0 0 0 0 0 0 0 0
0 0 0 0 0 0 0 0 0 0 0 0 0 0 0 0 0 0 0 0 0 0 0 0 0 0 0 0 0 0 0 0 0 0 0 0 0 0 0 0 0 0 0
0 0 0 0 0 0 0 0 0 0 0 0 0 0 0 0 0 0 0 0 0 0 0 0 0 0 0 0 0 0 0 0 0 0 0 0 0 0 0 0 0 0 0
0 0 0 0 0 0 0 0 0 0 0 0 0 0 0 0 0 0 0 0 0 0 0 0 0 0 0 0 0 0 0 0 0 0 0 0 0 0 0 0 0 0 0
0 0 0 0 0 0 0 0 0 0 0 0 0 0 0 0 0 0 0 0 0 0 0 0 0 0 0 0 0 0 0 0 0 0 0 0 0 0 0 0 0 0 0
0 0 0 0 0 0 0 0 0 0 0 0 0 0 0 0 0 0 0 0 0 0 0 0 0 0 0 0 0 0 0 0 0 0 0 0 0 0 0 0 0 0 0
0 0 0 0 0 0 0 0 0 0 0 0 0 0 0 0 0 0 0 0 0 0 0 0 0 0 0 0 0 0 0 0 0 0 0 0 0 0 0 0 0 0 0
0 0 0 0 0 0 0 0 0 0 0 0 0 0 0 0 0 0 0 0 0 0 0 0 0 0 0 0 0 0 0 0 0 0 0 0 0 0 0 0 0 0 0
0 0 0 0 0 0 0 0 0 0 0 0 0 0 0 0 0 0 0 0 0 0 0 0 0 0 0 0 0 0 0 0 0 0 0 0 0 0 0 0 0 0 0
0 0 0 0 0 0 0 0 0 0 0 0 0 0 0 0 0 0 0 0 0 0 0 0 0 0 0 0 0 0 0 0 0 0 0 0 0 0 0 0 0 0 0
0 0 0 0 0 0 0 0 0 0 0 0 0 0 0 0 0 0 0 0 0 0 0 0 0 0 0 0 0 0 0 0 0 0 0 0 0 0 0 0 0 0 0
0 0 0 0 0 0 0 0 0 0 0 0 0 0 0 0 0 0 0 0 0 0 0 0 0 0 0 0 0 0 0 0 0 0 0 0 0 0 0 0 0 0 0
0 0 0 0 0 0 0 0 0 0 0 0 0 0 0 0 0 0 0 0 0 0 0 0 0 0 0 0 0 0 0 0 0 0 0 0 0 0 0 0 0 0 0
0 0 0 0 0 0 0 0 0 0 0 0 0 0 0 0 0 0 0 0 0 0 0 0 0 0 0 0 0 0 0 0 0 0 0 0 0 0 0 0 0 0 0
0 0 0 0 0 0 0 0 0 0 0 0 0 0 0 0 0 0 0 0 0 0 0 0 0 0 0 0 0 0 0 0 0 0 0 0 0 0 0 0 0 0 0

GEFSMW_con_prob3kmehi_030.txt.gz
EHI
0 0 0 0 0 0 0 0 0 0 0 0 0 0 0 1 2 3 2 1 0 0 1 0 0 0 0 0 0 0 0 0 0 0 0 0 0 0 0 0 0 0 0
0 0 0 0 0 0 0 0 0 0 0 0 0 0 0 0 1 2 1 0 0 0 1 0 0 0 0 0 0 0 0 0 0 0 0 0 0 0 0 0 0 0 0
0 0 0 0 0 0 0 0 0 0 0 0 0 0 0 0 0 0 0 0 0 0 0 0 0 0 0 0 0 0 0 0 0 0 0 0 0 0 0 0 0 0 0
0 0 0 0 0 0 0 0 0 0 0 0 0 0 0 0 0 0 0 0 0 0 0 0 0 0 0 0 0 0 0 0 0 0 0 0 0 0 0 0 0 0 0
0 0 0 0 0 0 0 0 0 0 0 0 0 0 0 0 0 0 0 0 0 0 0 0 0 0 0 0 0 0 0 0 0 0 0 0 0 0 0 0 0 0 0
0 0 0 0 0 0 0 0 0 0 0 0 0 0 0 0 0 0 0 0 0 0 0 0 0 0 0 0 0 0 0 0 0 0 0 0 0 0 0 0 0 0 0
0 0 0 0 0 0 0 0 0 0 0 0 0 0 0 0 0 0 0 0 0 0 0 0 0 0 0 0 0 0 0 0 0 0 0 0 0 0 0 0 0 0 0
0 0 0 0 0 0 0 0 0 0 0 0 0 0 0 0 0 0 0 0 0 0 0 0 0 0 0 0 0 0 0 0 0 0 0 0 0 0 0 0 0 0 0
0 0 0 0 0 0 0 0 0 0 0 0 0 0 0 0 0 0 0 0 0 0 0 0 0 0 0 0 0 0 0 0 0 0 0 0 0 0 0 0 0 0 0
0 0 0 0 0 0 0 0 0 0 0 0 0 0 0 0 0 0 0 0 0 0 0 0 0 0 0 0 0 0 0 0 0 0 0 0 0 0 0 0 0 0 0
0 0 0 0 0 0 0 0 0 0 0 0 0 0 0 0 0 0 0 0 0 0 0 0 0 0 0 0 0 0 0 0 0 0 0 0 0 0 0 0 0 0 0
0 0 0 0 0 0 0 0 0 0 0 0 0 0 0 0 0 0 0 0 0 0 0 0 0 0 0 0 0 0 0 0 0 0 0 0 0 0 0 0 0 0 0
0 0 0 0 0 0 0 0 0 0 0 0 0 0 0 0 0 0 0 0 0 0 0 0 0 0 0 0 0 0 0 0 0 0 0 0 0 0 0 0 0 0 0
0 0 0 0 0 0 0 0 0 0 0 0 0 0 0 0 0 0 0 0 0 0 0 0 0 0 0 0 0 0 0 0 0 0 0 0 0 0 0 0 0 0 0
0 0 0 0 0 0 0 0 0 0 0 0 0 0 0 0 0 0 0 0 0 0 0 0 0 0 0 0 0 0 0 0 0 0 0 0 0 0 0 0 0 0 0
0 0 0 0 0 0 0 0 0 0 0 0 0 0 0 0 0 0 0 0 0 0 0 0 0 0 0 0 0 0 0 0 0 0 0 0 0 0 0 0 0 0 0
0 0 0 0 0 0 0 0 0 0 0 0 0 0 0 0 0 0 0 0 0 0 0 0 0 0 0 0 0 0 0 0 0 0 0 0 0 0 0 0 0 0 0
0 0 0 0 0 0 0 0 0 0 0 0 0 0 0 0 0 0 0 0 0 0 0 0 0 0 0 0 0 0 0 0 0 0 0 0 0 0 0 0 0 0 0
0 0 0 0 0 0 0 0 0 0 0 0 0 0 0 0 0 0 0 0 0 0 0 0 0 0 0 0 0 0 0 0 0 0 0 0 0 0 0 0 0 0 0
0 0 0 0 0 0 0 0 0 0 0 0 0 0 0 0 0 0 0 0 0 0 0 0 0 0 0 0 0 0 0 0 0 0 0 0 0 0 0 0 0 0 0
0 0 0 0 0 0 0 0 0 0 0 0 0 0 0 0 0 0 0 0 0 0 0 0 0 0 0 0 0 0 0 0 0 0 0 0 0 0 0 0 0 0 0
0 0 0 0 0 0 0 0 0 0 0 0 0 0 0 0 0 0 0 0 0 0 0 0 0 0 0 0 0 0 0 0 0 0 0 0 0 0 0 0 0 0 0
0 0 0 0 0 0 0 0 0 0 0 0 0 0 0 0 0 0 0 0 0 0 0 0 0 0 0 0 0 0 0 0 0 0 0 0 0 0 0 0 0 0 0
0 0 0 0 0 0 0 0 0 0 0 0 0 0 0 0 0 0 0 0 0 0 0 0 0 0 0 0 0 0 0 0 0 0 0 0 0 0 0 0 0 0 0
0 0 0 0 0 0 0 0 0 0 0 0 0 0 0 0 0 0 0 0 0 0 0 0 0 0 0 0 0 0 0 0 0 0 0 0 0 0 0 0 0 0 0
0 0 0 0 0 0 0 0 0 0 0 0 0 0 0 0 0 0 0 0 0 0 0 0 0 0 0 0 0 0 0 0 0 0 0 0 0 0 0 0 0 0 0

GEFSMW_con_prob3kmehi_036.txt.gz
EHI
0 0 0 0 1 2 2 2 2 1 1 2 2 1 1 1 0 0 0 0 1 3 6 10 14 14 10 7 6 6 3 1 0 0 1 0 0 0 1 1 1 0 0
0 0 0 0 0 1 1 1 1 0 0 1 1 0 0 0 0 0 0 0 0 2 5 8 11 13 11 7 5 4 2 1 0 0 1 0 0 0 0 0 0 0 0
0 0 0 0 0 0 0 0 0 0 0 0 0 0 0 0 0 0 0 0 0 1 3 5 7 9 9 6 3 1 1 0 0 0 0 0 0 0 0 0 0 0 0
0 0 0 0 0 0 0 0 0 0 0 0 0 0 0 0 0 0 0 0 0 1 1 2 3 4 4 3 2 1 0 0 0 0 0 0 0 0 0 0 0 0 0
0 0 0 0 0 0 0 0 0 0 0 0 0 0 0 0 0 0 0 0 0 0 0 0 1 1 0 0 0 0 0 0 0 0 0 0 0 0 0 0 0 0 0
0 0 0 0 0 0 0 0 0 0 0 0 0 0 0 0 0 0 0 0 0 0 0 0 0 0 0 0 0 0 0 0 0 0 0 0 0 0 0 0 0 0 0
0 0 0 0 0 0 0 0 0 0 0 0 0 0 0 0 0 0 0 0 0 0 0 0 0 0 0 0 0 0 0 0 0 0 0 1 0 0 0 0 0 0 0
0 0 0 0 0 0 0 0 0 0 0 0 0 0 0 0 0 0 0 0 0 0 0 0 0 0 0 0 0 0 0 0 0 0 1 2 1 0 0 0 0 0 0
0 0 0 0 0 0 0 0 0 0 0 0 0 0 0 0 0 0 0 0 0 0 0 0 0 0 0 0 0 0 0 0 0 0 2 4 4 2 1 0 0 0 0
0 0 0 0 0 0 0 0 0 0 0 0 0 0 0 0 0 0 0 0 0 0 0 0 0 0 0 0 0 0 0 0 0 0 1 4 8 9 7 3 1 0 0
0 0 0 0 0 0 0 0 0 0 0 0 0 0 0 0 0 0 0 0 0 0 0 0 0 0 0 0 0 0 0 0 0 0 1 3 8 13 13 8 3 1 1
0 0 0 0 0 0 0 0 0 0 0 0 0 0 0 0 0 0 0 0 0 0 0 0 0 0 0 0 0 0 0 0 0 0 0 1 3 9 13 11 7 5 4
0 0 0 0 0 0 0 0 0 0 0 0 0 0 0 0 0 0 0 0 0 0 0 0 0 0 0 0 0 0 0 0 0 0 0 0 0 3 7 9 10 10 8
0 0 0 0 0 0 0 0 0 0 0 0 0 0 0 0 0 0 0 0 0 0 0 0 0 0 0 0 0 0 0 0 0 0 0 0 0 0 2 5 9 12 12
0 0 0 0 0 0 0 0 0 0 0 0 0 0 0 0 0 0 0 0 0 0 0 0 0 0 0 0 0 0 0 0 0 0 0 0 0 0 0 1 4 8 11
0 0 0 0 0 0 0 0 0 0 0 0 0 0 0 0 0 0 0 0 0 0 0 0 0 0 0 0 0 0 0 0 0 0 0 0 0 0 0 0 1 3 5
0 0 0 0 0 0 0 0 0 0 0 0 0 0 0 0 0 0 0 0 0 0 0 0 0 0 0 0 0 0 0 0 0 0 0 0 0 0 0 0 0 0 1
0 0 0 0 0 0 0 0 0 0 0 0 0 0 0 0 0 0 0 0 0 0 0 0 0 0 0 0 0 0 0 0 0 0 0 0 0 0 0 0 0 0 0
0 0 0 0 0 0 0 0 0 0 0 0 0 0 0 0 0 0 0 0 0 0 0 0 0 0 0 0 0 0 0 0 0 0 0 0 0 0 0 0 0 0 0
0 0 0 0 0 0 0 0 0 0 0 0 0 0 0 0 0 0 0 0 0 0 0 0 0 0 0 0 0 0 0 0 0 0 0 0 0 0 0 0 0 0 0
0 0 0 0 0 0 0 0 0 0 0 0 0 0 0 0 0 0 0 0 0 0 0 0 0 0 0 0 0 0 0 0 0 0 0 0 0 0 0 0 0 0 0
0 0 0 0 0 0 0 0 0 0 0 0 0 0 0 0 0 0 0 0 0 0 0 0 0 0 0 0 0 0 0 0 0 0 0 0 0 0 0 0 0 0 0
0 0 0 0 0 0 0 0 0 0 0 0 0 0 0 0 0 0 0 0 0 0 0 0 0 0 0 0 0 0 0 0 0 0 0 0 0 0 0 0 0 0 0
0 0 0 0 0 0 0 0 0 0 0 0 0 0 0 0 0 0 0 0 0 0 0 0 0 0 0 0 0 0 0 0 0 0 0 0 0 0 0 0 0 0 0
0 0 0 0 0 0 0 0 0 0 0 0 0 0 0 0 0 0 0 0 0 0 0 0 0 0 0 0 0 0 0 0 0 0 0 0 0 0 0 0 0 0 0
0 0 0 0 0 0 0 0 0 0 0 0 0 0 0 0 0 0 0 0 0 0 0 0 0 0 0 0 0 0 0 0 0 0 0 0 0 0 0 0 0 0 0

GEFSMW_con_prob3kmehi_042.txt.gz
EHI
0 0 0 0 1 3 3 2 2 4 5 3 2 2 3 6 7 8 7 4 2 3 3 3 5 5 2 1 1 0 1 2 2 2 3 3 3 2 2 3 3 3 4
0 0 0 0 0 1 1 1 1 3 4 3 2 1 1 2 4 5 5 2 1 1 1 3 4 4 2 1 0 0 0 1 1 1 2 2 1 1 1 2 2 1 2
0 0 0 0 0 0 0 1 3 4 6 4 1 0 0 0 1 1 1 1 0 0 0 1 3 3 1 0 0 0 0 0 0 0 1 1 0 0 0 1 0 0 1
1 1 1 0 0 0 0 3 8 11 9 5 1 0 0 0 0 0 0 0 0 0 0 0 1 1 1 0 1 1 1 0 0 0 0 0 0 0 0 0 0 0 0
2 2 1 0 0 0 0 4 11 14 11 6 2 0 0 0 0 0 0 0 0 0 0 0 0 0 0 0 1 2 2 1 0 0 0 0 0 0 0 0 0 0 0
1 1 1 0 0 0 0 3 7 10 9 6 3 1 0 0 0 0 0 0 0 0 0 0 0 0 0 0 1 1 1 1 0 0 0 0 0 0 0 0 0 0 0
0 0 0 0 0 0 0 1 2 4 5 4 2 1 0 0 0 0 0 0 0 0 0 0 0 0 0 0 0 0 0 0 0 0 0 0 0 0 0 0 0 0 0
0 0 0 0 0 0 0 0 0 1 1 1 1 0 0 0 0 0 0 0 0 0 0 0 0 0 0 0 0 0 0 0 0 0 0 0 0 0 0 0 0 0 0
0 0 0 0 0 0 0 0 0 0 0 0 0 0 0 0 0 0 0 0 0 0 0 0 0 0 0 0 0 0 0 0 0 0 0 1 1 1 0 1 1 0 0
0 0 0 0 0 0 0 0 0 0 0 0 0 0 0 0 0 0 0 0 0 0 0 0 0 0 0 0 0 0 0 0 0 0 0 1 1 2 2 2 1 1 0
0 0 0 0 0 0 0 0 0 0 0 0 0 0 0 0 0 0 0 0 0 0 0 0 0 0 0 0 0 0 0 0 0 0 0 0 1 1 2 2 1 1 1
0 0 0 0 0 0 0 0 0 0 0 0 0 0 0 0 0 0 0 0 0 0 0 0 0 0 0 0 0 0 0 0 0 0 0 0 0 0 1 1 1 0 0
0 0 0 0 0 0 0 0 0 0 0 0 0 0 0 0 0 0 0 0 0 0 0 0 0 0 0 0 0 0 0 0 0 0 0 0 0 0 0 0 0 0 0
0 0 0 0 0 0 0 0 0 0 0 0 0 0 0 0 0 0 0 0 0 0 0 0 0 0 0 0 0 0 0 0 0 0 0 0 0 0 0 0 0 0 0
0 0 0 0 0 0 0 0 0 0 0 0 0 0 0 0 0 0 0 0 0 0 0 0 0 0 0 0 0 0 0 0 0 0 0 0 0 0 0 0 0 0 0
0 0 0 0 0 0 0 0 0 0 0 0 0 0 0 0 0 0 0 0 0 0 0 0 0 0 0 0 0 0 0 0 0 0 0 0 0 0 0 0 0 0 0
0 0 0 0 0 0 0 0 0 0 0 0 0 0 0 0 0 0 0 0 0 0 0 0 0 0 0 0 0 0 0 0 0 0 0 0 0 0 0 0 0 0 0
0 0 0 0 0 0 0 0 0 0 0 0 0 0 0 0 0 0 0 0 0 0 0 0 0 0 0 0 0 0 0 0 0 0 0 0 0 0 0 0 0 0 0
0 0 0 0 0 0 0 0 0 0 0 0 0 0 0 0 0 0 0 0 0 0 0 0 0 0 0 0 0 0 0 0 0 0 0 0 0 0 0 0 0 0 0
0 0 0 0 0 0 0 0 0 0 0 0 0 0 0 0 0 0 0 0 0 0 0 0 0 0 0 0 0 0 0 0 0 0 0 0 0 0 0 0 0 0 0
0 0 0 0 0 0 0 0 0 0 0 0 0 0 0 0 0 0 0 0 0 0 0 0 0 0 0 0 0 0 0 0 0 0 0 0 0 0 0 0 0 0 0
0 0 0 0 0 0 0 0 0 0 0 0 0 0 0 0 0 0 0 0 0 0 0 0 0 0 0 0 0 0 0 0 0 0 0 0 0 0 0 0 0 0 0
0 0 0 0 0 0 0 0 0 0 0 0 0 0 0 0 0 0 0 0 0 0 0 0 0 0 0 0 0 0 0 0 0 0 0 0 0 0 0 0 0 0 0
0 0 0 0 0 0 0 0 0 0 0 0 0 0 0 0 0 0 0 0 0 0 0 0 0 0 0 0 0 0 0 0 0 0 0 0 0 0 0 0 0 0 0
0 0 0 0 0 0 0 0 0 0 0 0 0 0 0 0 0 0 0 0 0 0 0 0 0 0 0 0 0 0 0 0 0 0 0 0 0 0 0 0 0 0 0
0 0 0 0 0 0 0 0 0 0 0 0 0 0 0 0 0 0 0 0 0 0 0 0 0 0 0 0 0 0 0 0 0 0 0 0 0 0 0 0 0 0 0

GEFSMW_con_prob3kmehi_048.txt.gz
EHI
0 0 0 0 0 0 0 0 0 0 0 0 0 0 0 0 0 0 0 0 0 0 0 0 0 0 0 0 0 0 0 0 0 0 0 0 0 1 2 2 2 1 0
0 0 0 0 0 0 0 0 0 0 0 0 0 0 0 0 0 0 0 0 0 0 0 0 0 0 0 0 0 0 0 0 0 0 0 0 0 0 1 1 1 1 0
0 0 0 0 0 0 0 0 1 0 0 0 0 0 0 0 0 0 0 0 0 0 0 0 0 0 0 0 0 0 0 0 0 0 0 0 0 0 0 0 0 0 0
1 0 0 0 0 0 0 0 0 0 0 0 0 0 0 0 0 0 0 0 0 0 0 0 0 0 0 0 0 0 0 0 0 0 0 0 0 0 0 0 0 0 0
1 0 0 0 0 0 0 0 0 0 0 0 0 0 0 0 0 0 0 0 0 0 0 0 0 0 0 0 0 0 0 0 0 0 0 0 0 0 0 0 0 0 0
1 0 0 0 0 0 0 0 0 0 0 0 0 0 0 0 0 0 0 0 0 0 0 0 0 0 0 0 0 0 0 0 0 0 0 0 0 0 0 0 0 0 0
0 0 0 0 0 0 0 0 0 0 0 0 0 0 0 0 0 0 0 0 0 0 0 0 0 0 0 0 0 0 0 0 0 0 0 0 0 0 0 0 0 0 0
0 0 0 0 0 0 0 0 0 0 0 0 0 0 0 0 0 0 0 0 0 0 0 0 0 0 0 0 0 0 0 0 0 0 0 0 0 0 0 0 0 0 0
0 0 0 0 0 0 0 0 0 0 0 0 0 0 0 0 0 0 0 0 0 0 0 0 0 0 0 0 0 0 0 0 0 0 0 0 0 0 0 0 0 0 0
0 0 0 0 0 0 0 0 0 0 0 0 0 0 0 0 0 0 0 0 0 0 0 0 0 0 0 0 0 0 0 0 0 0 0 0 0 0 0 0 0 0 0
0 0 0 0 0 0 0 0 0 0 0 0 0 0 0 0 0 0 0 0 0 0 0 0 0 0 0 0 0 0 0 0 0 0 0 0 0 0 0 0 0 0 0
0 0 0 0 0 0 0 0 0 0 0 0 0 0 0 0 0 0 0 0 0 0 0 0 0 0 0 0 0 0 0 0 0 0 0 0 0 0 0 0 0 0 0
0 0 0 0 0 0 0 0 0 0 0 0 0 0 0 0 0 0 0 0 0 0 0 0 0 0 0 0 0 0 0 0 0 0 0 0 0 0 0 0 0 0 0
0 0 0 0 0 0 0 0 0 0 0 0 0 0 0 0 0 0 0 0 0 0 0 0 0 0 0 0 0 0 0 0 0 0 0 0 0 0 0 0 0 0 0
0 0 0 0 0 0 0 0 0 0 0 0 0 0 0 0 0 0 0 0 0 0 0 0 0 0 0 0 0 0 0 0 0 0 0 0 0 0 0 0 0 0 0
0 0 0 0 0 0 0 0 0 0 0 0 0 0 0 0 0 0 0 0 0 0 0 0 0 0 0 0 0 0 0 0 0 0 0 0 0 0 0 0 0 0 0
0 0 0 0 0 0 0 0 0 0 0 0 0 0 0 0 0 0 0 0 0 0 0 0 0 0 0 0 0 0 0 0 0 0 0 0 0 0 0 0 0 0 0
0 0 0 0 0 0 0 0 0 0 0 0 0 0 0 0 0 0 0 0 0 0 0 0 0 0 0 0 0 0 0 0 0 0 0 0 0 0 0 0 0 0 0
0 0 0 0 0 0 0 0 0 0 0 0 0 0 0 0 0 0 0 0 0 0 0 0 0 0 0 0 0 0 0 0 0 0 0 0 0 0 0 0 0 0 0
0 0 0 0 0 0 0 0 0 0 0 0 0 0 0 0 0 0 0 0 0 0 0 0 0 0 0 0 0 0 0 0 0 0 0 0 0 0 0 0 0 0 0
0 0 0 0 0 0 0 0 0 0 0 0 0 0 0 0 0 0 0 0 0 0 0 0 0 0 0 0 0 0 0 0 0 0 0 0 0 0 0 0 0 0 0
0 0 0 0 0 0 0 0 0 0 0 0 0 0 0 0 0 0 0 0 0 0 0 0 0 0 0 0 0 0 0 0 0 0 0 0 0 0 0 0 0 0 0
0 0 0 0 0 0 0 0 0 0 0 0 0 0 0 0 0 0 0 0 0 0 0 0 0 0 0 0 0 0 0 0 0 0 0 0 0 0 0 0 0 0 0
0 0 0 0 0 0 0 0 0 0 0 0 0 0 0 0 0 0 0 0 0 0 0 0 0 0 0 0 0 0 0 0 0 0 0 0 0 0 0 0 0 0 0
0 0 0 0 0 0 0 0 0 0 0 0 0 0 0 0 0 0 0 0 0 0 0 0 0 0 0 0 0 0 0 0 0 0 0 0 0 0 0 0 0 0 0
0 0 0 0 0 0 0 0 0 0 0 0 0 0 0 0 0 0 0 0 0 0 0 0 0 0 0 0 0 0 0 0 0 0 0 0 0 0 0 0 0 0 0

GEFSMW_con_prob3kmehi_054.txt.gz
EHI
0 0 0 0 0 0 0 0 0 0 0 0 0 0 0 0 0 0 0 0 0 0 0 0 0 0 0 0 0 0 0 0 0 0 0 0 0 0 0 0 0 0 0
0 0 0 0 0 0 0 0 0 0 0 0 0 0 0 0 0 0 0 0 0 0 0 0 0 0 0 0 0 0 0 0 0 0 0 0 0 0 0 0 0 0 0
0 0 0 0 0 0 0 0 0 0 0 0 0 0 0 0 0 0 0 0 0 0 0 0 0 0 0 0 0 0 0 0 0 0 0 0 0 0 0 0 0 0 0
0 0 0 0 0 0 0 0 0 0 0 0 0 0 0 0 0 0 0 0 0 0 0 0 0 0 0 0 0 0 0 0 0 0 0 0 0 0 0 0 0 0 0
0 0 0 0 0 0 0 0 0 0 0 0 0 0 0 0 0 0 0 0 0 0 0 0 0 0 0 0 0 0 0 0 0 0 0 0 0 0 0 0 0 0 0
0 0 0 0 0 0 0 0 0 0 0 0 0 0 0 0 0 0 0 0 0 0 0 0 0 0 0 0 0 0 0 0 0 0 0 0 0 0 0 0 0 0 0
0 0 0 0 0 0 0 0 0 0 0 0 0 0 0 0 0 0 0 0 0 0 0 0 0 0 0 0 0 0 0 0 0 0 0 0 0 0 0 0 0 0 0
0 0 0 0 0 0 0 0 0 0 0 0 0 0 0 0 0 0 0 0 0 0 0 0 0 0 0 0 0 0 0 0 0 0 0 0 0 0 0 0 0 0 0
0 0 0 0 0 0 0 0 0 0 0 0 0 0 0 0 0 0 0 0 0 0 0 0 0 0 0 0 0 0 0 0 0 0 0 0 0 0 0 0 0 0 0
0 0 0 0 0 0 0 0 0 0 0 0 0 0 0 0 0 0 0 0 0 0 0 0 0 0 0 0 0 0 0 0 0 0 0 0 0 0 0 0 0 0 0
0 0 0 0 0 0 0 0 0 0 0 0 0 0 0 0 0 0 0 0 0 0 0 0 0 0 0 0 0 0 0 0 0 0 0 0 0 0 0 0 0 0 0
0 0 0 0 0 0 0 0 0 0 0 0 0 0 0 0 0 0 0 0 0 0 0 0 0 0 0 0 0 0 0 0 0 0 0 0 0 0 0 0 0 0 0
0 0 0 0 0 0 0 0 0 0 0 0 0 0 0 0 0 0 0 0 0 0 0 0 0 0 0 0 0 0 0 0 0 0 0 0 0 0 0 0 0 0 0
0 0 0 0 0 0 0 0 0 0 0 0 0 0 0 0 0 0 0 0 0 0 0 0 0 0 0 0 0 0 0 0 0 0 0 0 0 0 0 0 0 0 0
0 0 0 0 0 0 0 0 0 0 0 0 0 0 0 0 0 0 0 0 0 0 0 0 0 0 0 0 0 0 0 0 0 0 0 0 0 0 0 0 0 0 0
0 0 0 0 0 0 0 0 0 0 0 0 0 0 0 0 0 0 0 0 0 0 0 0 0 0 0 0 0 0 0 0 0 0 0 0 0 0 0 0 0 0 0
0 0 0 0 0 0 0 0 0 0 0 0 0 0 0 0 0 0 0 0 0 0 0 0 0 0 0 0 0 0 0 0 0 0 0 0 0 0 0 0 0 0 0
0 0 0 0 0 0 0 0 0 0 0 0 0 0 0 0 0 0 0 0 0 0 0 0 0 0 0 0 0 0 0 0 0 0 0 0 0 0 0 0 0 0 0
0 0 0 0 0 0 0 0 0 0 0 0 0 0 0 0 0 0 0 0 0 0 0 0 0 0 0 0 0 0 0 0 0 0 0 0 0 0 0 0 0 0 0
0 0 0 0 0 0 0 0 0 0 0 0 0 0 0 0 0 0 0 0 0 0 0 0 0 0 0 0 0 0 0 0 0 0 0 0 0 0 0 0 0 0 0
0 0 0 0 0 0 0 0 0 0 0 0 0 0 0 0 0 0 0 0 0 0 0 0 0 0 0 0 0 0 0 0 0 0 0 0 0 0 0 0 0 0 0
0 0 0 0 0 0 0 0 0 0 0 0 0 0 0 0 0 0 0 0 0 0 0 0 0 0 0 0 0 0 0 0 0 0 0 0 0 0 0 0 0 0 0
0 0 0 0 0 0 0 0 0 0 0 0 0 0 0 0 0 0 0 0 0 0 0 0 0 0 0 0 0 0 0 0 0 0 0 0 0 0 0 0 0 0 0
0 0 0 0 0 0 0 0 0 0 0 0 0 0 0 0 0 0 0 0 0 0 0 0 0 0 0 0 0 0 0 0 0 0 0 0 0 0 0 0 0 0 0
0 0 0 0 0 0 0 0 0 0 0 0 0 0 0 0 0 0 0 0 0 0 0 0 0 0 0 0 0 0 0 0 0 0 0 0 0 0 0 0 0 0 0
0 0 0 0 0 0 0 0 0 0 0 0 0 0 0 0 0 0 0 0 0 0 0 0 0 0 0 0 0 0 0 0 0 0 0 0 0 0 0 0 0 0 0

GEFSMW_con_prob3kmehi_060.txt.gz
EHI
6 5 4 3 2 2 1 0 1 0 0 0 0 0 1 0 0 0 0 0 0 0 0 0 0 0 0 0 1 2 2 2 2 2 3 3 3 3 5 7 6 2 1
3 2 1 1 1 1 0 1 3 3 2 2 1 2 2 1 0 0 0 0 0 0 0 0 0 0 0 0 0 1 1 1 1 1 2 2 2 2 2 3 3 2 2
1 0 0 0 1 1 2 3 7 8 7 6 5 4 4 2 1 0 0 0 0 0 0 0 0 0 0 0 0 0 0 0 0 0 1 1 1 1 0 1 1 1 2
1 0 0 0 2 3 4 7 10 13 13 12 9 6 5 3 2 1 0 0 0 0 0 0 0 0 0 0 0 0 0 0 0 0 0 0 0 0 0 0 0 0 1
1 0 0 0 2 4 6 9 13 17 18 14 11 8 5 3 2 1 0 0 0 0 0 0 0 0 0 0 0 0 0 0 0 0 0 0 0 0 0 0 0 0 0
0 0 0 1 3 6 8 10 14 18 16 12 9 6 4 2 1 1 0 0 0 0 0 0 0 0 0 0 0 0 0 0 0 0 0 0 0 0 0 0 0 0 0
0 0 1 3 6 7 8 10 12 12 10 6 4 2 1 1 0 0 0 0 0 0 0 0 0 0 0 0 0 0 0 0 0 0 0 0 0 0 0 0 0 0 0
0 0 1 3 5 5 5 7 7 6 4 1 1 0 0 0 0 0 0 0 0 0 0 0 0 0 0 0 0 0 0 0 0 0 0 0 0 0 0 0 0 0 0
0 0 0 2 3 2 1 2 4 3 1 0 0 0 0 0 0 0 0 0 0 0 0 0 0 0 0 0 0 0 0 0 0 0 0 0 0 0 0 0 0 0 0
0 0 0 0 1 0 0 0 1 1 0 0 0 0 0 0 0 0 0 0 0 0 0 0 0 0 0 0 0 0 0 0 0 0 0 0 0 0 0 0 0 0 0
0 0 0 0 0 0 0 0 0 0 0 0 0 0 0 0 0 0 0 0 0 0 0 0 0 0 0 0 0 0 0 0 0 0 0 0 0 0 0 0 0 0 0
0 0 0 0 0 0 0 0 0 0 0 0 0 0 0 0 0 0 0 0 0 0 0 0 0 0 0 0 0 0 0 0 0 0 0 0 0 0 0 0 0 0 0
0 0 0 0 0 0 0 0 0 0 0 0 0 0 0 0 0 0 0 0 0 0 0 0 0 0 0 0 0 0 0 0 0 0 0 0 0 0 0 0 0 0 0
0 0 0 0 0 0 0 0 0 0 0 0 0 0 0 0 0 0 0 0 0 0 0 0 0 0 0 0 0 0 0 0 0 0 0 0 0 0 0 0 0 0 0
0 0 0 0 0 0 0 0 0 0 0 0 0 0 0 0 0 0 0 0 0 0 0 0 0 0 0 0 0 0 0 0 0 0 0 0 0 0 0 0 0 0 0
0 0 0 0 0 0 0 0 0 0 0 0 0 0 0 0 0 0 0 0 0 0 0 0 0 0 0 0 0 0 0 0 0 0 0 0 0 0 0 0 0 0 0
0 0 0 0 0 0 0 0 0 0 0 0 0 0 0 0 0 0 0 0 0 0 0 0 0 0 0 0 0 0 0 0 0 0 0 0 0 0 0 0 0 0 0
0 0 0 0 0 0 0 0 0 0 0 0 0 0 0 0 0 0 0 0 0 0 0 0 0 0 0 0 0 0 0 0 0 0 0 0 0 0 0 0 0 0 0
0 0 0 0 0 0 0 0 0 0 0 0 0 0 0 0 0 0 0 0 0 0 0 0 0 0 0 0 0 0 0 0 0 0 0 0 0 0 0 0 0 0 0
0 0 0 0 0 0 0 0 0 0 0 0 0 0 0 0 0 0 0 0 0 0 0 0 0 0 0 0 0 0 0 0 0 0 0 0 0 0 0 0 0 0 0
0 0 0 0 0 0 0 0 0 0 0 0 0 0 0 0 0 0 0 0 0 0 0 0 0 0 0 0 0 0 0 0 0 0 0 0 0 0 0 0 0 0 0
0 0 0 0 0 0 0 0 0 0 0 0 0 0 0 0 0 0 0 0 0 0 0 0 0 0 0 0 0 0 0 0 0 0 0 0 0 0 0 0 0 0 0
0 0 0 0 0 0 0 0 0 0 0 0 0 0 0 0 0 0 0 0 0 0 0 0 0 0 0 0 0 0 0 0 0 0 0 0 0 0 0 0 0 0 0
0 0 0 0 1 1 0 0 0 0 0 0 0 0 0 0 0 0 0 0 0 0 0 0 0 0 0 0 0 0 0 0 0 0 0 0 0 0 0 0 0 0 0
0 0 0 0 1 1 0 0 0 0 0 0 0 0 0 0 0 0 0 0 0 0 0 0 0 0 0 0 0 0 0 0 0 0 0 0 0 0 0 0 0 0 0
0 0 0 0 0 1 0 0 0 0 0 0 0 0 0 0 0 0 0 0 0 0 0 0 0 0 0 0 0 0 0 0 0 0 0 0 0 0 0 0 0 0 0

GEFSMW_con_prob3kmehi_066.txt.gz
EHI
35 33 30 27 26 30 31 29 27 20 16 13 10 7 6 4 2 2 2 2 1 0 0 0 0 0 0 0 0 0 0 0 0 0 0 0 0 0 0 1 1 2 3
34 31 26 21 20 26 28 27 29 27 22 18 14 11 8 4 2 3 4 3 1 0 0 0 0 0 0 0 0 0 0 0 0 0 0 0 0 0 0 1 2 1 1
28 25 19 13 14 22 26 30 39 41 32 23 16 10 7 4 2 4 5 3 1 0 0 0 0 0 0 0 0 0 0 0 0 0 0 0 0 0 0 0 1 0 0
18 17 14 10 12 19 27 40 55 56 43 27 15 8 5 4 5 7 7 4 1 0 0 0 0 0 0 0 0 0 0 0 0 0 0 0 0 0 0 0 0 0 0
11 13 15 14 13 17 29 48 63 65 51 31 17 10 6 5 6 8 7 4 1 0 0 0 0 0 0 0 0 0 0 0 0 0 0 0 0 0 0 0 0 0 0
9 12 16 19 20 23 33 51 64 65 51 31 17 11 7 5 5 5 4 2 0 0 0 0 0 0 0 0 0 0 0 0 0 0 0 0 0 0 0 0 0 0 0
7 10 15 23 31 36 43 54 61 58 43 25 14 10 7 4 3 2 1 0 0 0 0 0 0 0 0 0 0 0 0 0 0 0 0 0 0 0 0 0 0 0 0
5 7 11 22 35 42 46 51 54 48 31 17 11 9 6 3 1 1 0 0 0 0 0 0 0 0 0 0 0 0 0 0 0 0 0 0 0 0 0 0 0 0 0
3 3 6 15 27 34 37 40 42 35 20 11 9 7 4 1 0 0 0 0 0 0 0 0 0 0 0 0 0 0 0 0 0 0 0 0 0 0 0 0 0 0 0
1 1 3 8 16 23 26 27 27 22 12 7 6 3 1 0 0 0 0 0 0 0 0 0 0 0 0 0 0 0 0 0 0 0 0 0 0 0 0 0 0 0 0
1 1 2 5 9 14 16 16 15 11 7 4 2 1 0 0 0 0 0 0 0 0 0 0 0 0 0 0 0 0 0 0 0 0 0 0 0 0 0 0 0 0 0
0 1 2 5 7 9 10 9 8 6 3 1 1 0 0 0 0 0 0 0 0 0 0 0 0 0 0 0 0 0 0 0 0 0 0 0 0 0 0 0 0 0 0
3 5 10 13 11 7 6 5 3 2 1 0 0 0 0 0 0 0 0 0 0 0 0 0 0 0 0 0 0 0 0 0 0 0 0 0 0 0 0 0 0 0 0
10 15 26 28 19 10 5 3 1 0 0 0 0 0 1 1 1 0 0 0 0 0 0 0 0 0 0 0 0 0 0 0 0 0 0 0 0 0 0 0 0 0 0
15 24 37 40 30 18 9 3 1 0 0 0 0 0 1 2 1 1 1 0 0 0 0 0 0 0 0 0 0 0 0 0 0 0 0 0 0 0 0 0 0 0 0
14 24 38 44 40 27 14 6 4 2 1 0 0 0 1 1 1 1 1 0 0 0 0 0 0 0 0 0 0 0 0 0 0 0 0 0 0 0 0 0 0 0 0
9 19 32 43 43 32 18 11 9 7 3 1 0 1 1 1 1 2 2 1 1 0 0 0 0 0 0 0 0 0 0 0 0 0 0 0 0 0 0 0 0 0 0
5 11 21 31 35 29 20 15 12 9 6 2 0 1 2 2 2 3 3 3 2 1 0 0 0 0 0 0 0 0 0 0 0 0 0 0 0 0 0 0 0 0 0
1 4 9 16 25 28 25 20 15 11 7 2 0 1 2 3 3 4 5 4 2 1 0 0 0 0 0 0 0 0 0 0 0 0 0 0 0 0 0 0 0 0 0
3 4 5 13 28 40 39 30 20 15 10 4 2 3 3 3 4 6 7 5 2 1 0 0 1 1 0 0 0 0 0 0 0 0 0 0 0 0 0 0 0 0 0
9 11 16 26 44 57 55 44 33 26 19 12 8 7 5 4 5 10 12 8 4 1 0 1 2 1 0 0 0 0 0 0 0 0 0 0 0 0 0 0 0 0 0
14 19 31 46 59 68 66 58 48 40 31 23 19 17 13 9 8 12 13 10 5 1 0 1 1 1 0 0 0 0 0 0 0 0 0 0 0 0 0 0 0 0 0
21 26 40 57 66 70 69 63 57 49 38 31 28 26 22 17 13 11 10 7 4 1 0 0 0 0 0 0 0 0 0 0 0 0 0 0 0 0 0 0 0 0 0
31 34 46 60 66 66 64 61 57 48 38 32 29 26 22 18 16 12 7 4 3 2 1 0 0 0 1 0 0 0 0 0 0 0 0 0 0 0 0 0 0 0 0
34 36 45 55 59 59 57 55 51 43 34 29 25 19 14 12 13 11 6 4 3 2 1 0 0 0 0 0 0 0 0 0 0 0 0 0 0 0 0 0 0 0 0
29 31 38 47 52 53 53 50 46 39 32 27 22 15 9 7 8 8 5 3 2 1 1 0 0 0 0 0 0 0 0 0 0 0 0 0 0 0 0 0 0 0 0

GEFSMW_con_prob3kmehi_072.txt.gz
EHI
17 18 19 15 10 7 5 6 4 2 1 0 0 0 0 0 0 0 0 0 0 0 0 0 0 0 0 0 0 0 0 0 0 0 0 0 0 0 0 0 0 0 0
17 17 14 10 7 5 5 4 3 1 0 0 0 0 0 0 0 0 0 0 0 0 0 0 0 0 0 0 0 0 0 0 0 0 0 0 0 0 0 0 0 0 0
16 15 10 6 4 4 3 2 1 0 0 0 0 0 0 0 0 0 0 0 0 0 0 0 0 0 0 0 0 0 0 0 0 0 0 0 0 0 0 0 0 0 0
15 13 9 5 4 4 3 1 1 0 0 0 0 0 0 0 0 0 0 0 0 0 0 0 0 0 0 0 0 0 0 0 0 0 0 0 0 0 0 0 0 0 0
13 13 10 6 5 6 5 3 2 1 0 0 0 0 0 0 0 0 0 0 0 0 0 0 0 0 0 0 0 0 0 0 0 0 0 0 0 0 0 0 0 0 0
15 15 11 6 5 7 8 8 5 2 1 1 0 0 0 0 0 0 0 0 0 0 0 0 0 0 0 0 0 0 0 0 0 0 0 0 0 0 0 0 0 0 0
17 15 10 5 5 9 12 12 9 4 2 2 1 0 0 0 0 0 0 0 0 0 0 0 0 0 0 0 0 0 0 0 0 0 0 0 0 0 0 0 0 0 0
15 13 8 5 8 14 16 16 13 8 4 3 1 0 0 0 0 0 0 0 0 0 0 0 0 0 0 0 0 0 0 0 0 0 0 0 0 0 0 0 0 0 0
10 8 6 6 12 18 18 17 15 11 6 3 1 0 0 0 0 0 0 0 0 0 0 0 0 0 0 0 0 0 0 0 0 0 0 0 0 0 0 0 0 0 0
4 4 4 8 13 16 17 16 15 10 6 4 2 1 0 0 0 0 0 0 0 0 0 0 0 0 0 0 0 0 0 0 0 0 0 0 0 0 0 0 0 0 0
1 1 4 7 11 14 16 15 12 8 5 4 2 1 0 0 0 0 0 0 0 0 0 0 0 0 0 0 0 0 0 0 0 0 0 0 0 0 0 0 0 0 0
0 1 3 5 9 13 15 14 9 6 5 4 2 0 0 0 0 0 0 0 0 0 0 0 0 0 0 0 0 0 0 0 0 0 0 0 0 0 0 0 0 0 0
0 1 3 4 7 11 13 11 8 6 5 3 1 0 0 0 0 0 0 0 0 0 0 0 0 0 0 0 0 0 0 0 0 0 0 0 0 0 0 0 0 0 0
0 1 3 4 6 9 9 8 6 4 2 1 0 0 0 0 0 0 0 0 0 0 0 0 0 0 0 0 0 0 0 0 0 0 0 0 0 0 0 0 0 0 0
0 1 2 2 3 5 5 4 3 2 0 0 0 0 0 0 0 0 0 0 0 0 0 0 0 0 0 0 0 0 0 0 0 0 0 0 0 0 0 0 0 0 0
0 0 0 1 2 3 2 1 1 0 0 0 0 0 0 0 0 0 0 0 0 0 0 0 0 0 0 0 0 0 0 0 0 0 0 0 0 0 0 0 0 0 0
0 0 0 1 2 2 1 0 0 0 0 0 0 0 0 0 0 0 0 0 0 0 0 0 0 0 0 0 0 0 0 0 0 0 0 0 0 0 0 0 0 0 0
0 0 0 0 1 1 0 0 0 0 0 0 0 0 0 0 0 0 0 0 0 0 0 0 0 0 0 0 0 0 0 0 0 0 0 0 0 0 0 0 0 0 0
0 0 0 0 0 0 0 0 0 0 0 0 0 0 0 0 0 0 0 0 0 0 0 0 0 0 0 0 0 0 0 0 0 0 0 0 0 0 0 0 0 0 0
0 0 0 0 0 0 0 0 0 0 0 0 0 0 0 0 0 0 0 0 0 0 0 0 0 0 0 0 0 0 0 0 0 0 0 0 0 0 0 0 0 0 0
0 0 0 0 0 0 0 0 0 0 0 0 0 0 0 0 0 0 0 0 0 0 0 0 0 0 0 0 0 0 0 0 0 0 0 0 0 0 0 0 0 0 0
1 0 0 0 0 0 0 0 0 0 0 0 0 0 0 0 0 0 0 0 0 0 0 0 0 0 0 0 0 0 0 0 0 0 0 0 0 0 0 0 0 0 0
1 0 0 0 0 0 0 0 0 0 0 0 0 0 0 0 0 0 0 0 0 0 0 0 0 0 0 0 0 0 0 0 0 0 0 0 0 0 0 0 0 0 0
1 0 0 0 0 0 0 0 0 0 0 0 0 0 0 0 0 0 0 0 0 0 0 0 0 0 0 0 0 0 0 0 0 0 0 0 0 0 0 0 0 0 0
0 0 0 0 0 0 0 0 0 0 0 0 0 0 0 0 0 0 0 0 0 0 0 0 0 0 0 0 0 0 0 0 0 0 0 0 0 0 0 0 0 0 0
0 0 0 0 0 0 0 0 0 0 0 0 0 0 0 0 0 0 0 0 0 0 0 0 0 0 0 0 0 0 0 0 0 0 0 0 0 0 0 0 0 0 0

GEFSMW_con_prob3kmehi_078.txt.gz
EHI
10 10 11 12 9 5 4 3 2 1 0 0 0 0 0 0 0 0 0 0 0 0 0 0 0 0 0 0 0 0 0 0 0 0 0 0 0 0 0 0 0 0 0
11 10 10 10 8 5 4 3 1 0 0 0 0 0 0 0 0 0 0 0 0 0 0 0 0 0 0 0 0 0 0 0 0 0 0 0 0 0 0 0 0 0 0
12 10 8 8 6 4 3 2 1 0 0 0 0 0 0 0 0 0 0 0 0 0 0 0 0 0 0 0 0 0 0 0 0 0 0 0 0 0 0 0 0 0 0
11 9 7 5 4 3 3 1 0 0 0 0 0 0 0 0 0 0 0 0 0 0 0 0 0 0 0 0 0 0 0 0 0 0 0 0 0 0 0 0 0 0 0
10 8 6 4 3 3 2 1 0 0 0 0 0 0 0 0 0 0 0 0 0 0 0 0 0 0 0 0 0 0 0 0 0 0 0 0 0 0 0 0 0 0 0
9 8 7 4 3 3 2 1 0 0 0 0 0 0 0 0 0 0 0 0 0 0 0 0 0 0 0 0 0 0 0 0 0 0 0 0 0 0 0 0 0 0 0
7 8 7 4 3 1 1 0 0 0 0 0 0 0 0 0 0 0 0 0 0 0 0 0 0 0 0 0 0 0 0 0 0 0 0 0 0 0 0 0 0 0 0
5 5 4 3 2 1 0 0 0 0 0 0 0 0 0 0 0 0 0 0 0 0 0 0 0 0 0 0 0 0 0 0 0 0 0 0 0 0 0 0 0 0 0
3 3 2 1 1 0 0 0 0 0 0 0 0 0 0 0 0 0 0 0 0 0 0 0 0 0 0 0 0 0 0 0 0 0 0 0 0 0 0 0 0 0 0
1 1 1 0 0 0 0 0 0 0 0 0 0 0 0 0 0 0 0 0 0 0 0 0 0 0 0 0 0 0 0 0 0 0 0 0 0 0 0 0 0 0 0
0 0 0 0 0 0 0 0 0 0 0 0 1 1 1 0 0 0 0 0 0 0 0 0 0 0 0 0 0 0 0 0 0 0 0 0 0 0 0 0 0 0 0
0 0 0 0 0 0 0 0 0 0 0 1 2 2 1 0 0 0 0 0 0 0 0 0 0 0 0 0 0 0 0 0 0 0 0 0 0 0 0 0 0 0 0
0 0 0 1 0 0 0 0 0 0 0 1 3 2 1 0 0 0 0 0 0 0 0 0 0 0 0 0 0 0 0 0 0 0 0 0 0 0 0 0 0 0 0
0 0 0 1 1 0 0 0 0 0 1 2 3 3 1 0 0 0 0 0 0 0 0 0 0 0 0 0 0 0 0 0 0 0 0 0 0 0 0 0 0 0 0
0 0 0 0 1 0 0 1 1 2 2 4 4 2 1 0 0 0 0 0 0 0 0 0 0 0 0 0 0 0 0 0 0 0 0 0 0 0 0 0 0 0 0
0 0 0 0 0 0 0 1 2 3 3 4 3 1 0 0 0 0 0 0 0 0 0 0 0 0 0 0 0 0 0 0 0 0 0 0 0 0 0 0 0 0 0
0 0 0 0 0 0 0 0 1 2 2 2 1 0 0 0 0 0 0 0 0 0 0 0 0 0 0 0 0 0 0 0 0 0 0 0 0 0 0 0 0 0 0
0 0 0 0 0 0 0 0 0 1 1 0 0 0 0 0 0 0 0 0 0 0 0 0 0 0 0 0 0 0 0 0 0 0 0 0 0 0 0 0 0 0 0
0 0 0 0 0 0 0 0 0 0 0 0 0 0 0 0 0 0 0 0 0 0 0 0 0 0 0 0 0 0 0 0 0 0 0 0 0 0 0 0 0 0 0
0 0 0 0 0 0 0 0 0 0 0 0 0 0 0 0 0 0 0 0 0 0 0 0 0 0 0 0 0 0 0 0 0 0 0 0 0 0 0 0 0 0 0
0 0 0 0 0 0 0 0 0 0 0 0 0 0 0 0 0 0 0 0 0 0 0 0 0 0 0 0 0 0 0 0 0 0 0 0 0 0 0 0 0 0 0
0 0 0 0 0 0 0 0 0 0 0 0 0 0 0 0 0 0 0 0 0 0 0 0 0 0 0 0 0 0 0 0 0 0 0 0 0 0 0 0 0 0 0
0 0 0 0 0 0 0 0 0 0 0 0 0 0 0 0 0 0 0 0 0 0 0 0 0 0 0 0 0 0 0 0 0 0 0 0 0 0 0 0 0 0 0
0 0 0 0 0 0 0 0 0 0 0 0 0 0 0 0 0 0 0 0 0 0 0 0 0 0 0 0 0 0 0 0 0 0 0 0 0 0 0 0 0 0 0
0 0 0 0 0 0 0 0 0 0 0 0 0 0 0 0 0 0 0 0 0 0 0 0 0 0 0 0 0 0 0 0 0 0 0 0 0 0 0 0 0 0 0
0 0 0 0 0 0 0 0 0 0 0 0 0 0 0 0 0 0 0 0 0 0 0 0 0 0 0 0 0 0 0 0 0 0 0 0 0 0 0 0 0 0 0

GEFSMW_con_prob3kmehi_084.txt.gz
EHI
11 13 14 16 19 21 24 26 22 16 12 11 8 3 0 0 0 0 0 0 0 0 0 0 0 0 0 0 0 0 0 0 0 0 0 0 0 0 0 0 0 0 0
11 13 15 15 16 18 22 24 21 14 10 10 7 3 0 0 0 0 0 0 0 0 0 0 0 0 0 0 0 0 0 0 0 0 0 0 0 0 0 0 0 0 0
9 11 13 12 12 15 18 19 18 14 11 10 6 2 0 0 0 0 0 0 0 0 0 0 0 0 0 0 0 0 0 0 0 0 0 0 0 0 0 0 0 0 0
8 9 10 11 12 13 14 14 14 14 13 11 6 2 0 0 0 0 0 0 0 0 0 0 0 0 0 0 0 0 0 0 0 0 0 0 0 0 0 0 0 0 0
7 8 9 11 12 12 12 12 13 13 12 9 6 3 2 0 0 0 0 0 0 0 0 0 0 0 0 0 0 0 0 0 0 0 0 0 0 0 0 0 0 0 0
9 10 11 12 12 12 11 12 13 12 10 7 6 5 3 1 0 0 0 0 0 0 0 0 0 0 0 0 0 0 0 0 0 0 0 0 0 0 0 0 0 0 0
10 12 14 15 15 14 13 12 12 11 8 6 6 6 5 2 0 0 0 0 0 0 0 0 0 0 0 0 0 0 0 0 0 0 0 0 0 0 0 0 0 0 0
8 10 13 14 15 16 14 12 10 9 7 6 7 9 7 3 0 0 0 0 0 0 0 0 0 0 0 0 0 0 0 0 0 0 0 0 0 0 0 0 0 0 0
7 7 8 9 11 13 12 11 9 8 8 10 12 12 9 5 1 0 0 0 0 0 0 0 0 0 0 0 0 0 0 0 0 0 0 0 0 0 0 0 0 0 0
6 5 5 6 8 9 9 10 9 10 12 15 16 15 11 7 3 2 0 0 0 0 0 0 0 0 0 0 0 0 0 0 0 0 0 0 0 0 0 0 0 0 0
4 3 3 4 5 8 10 10 11 13 17 21 24 23 18 12 7 4 1 0 0 0 0 0 0 0 0 0 0 0 0 0 0 0 0 0 0 0 0 0 0 0 0
1 2 1 3 6 10 12 14 14 17 23 30 35 36 31 24 15 7 3 1 2 1 0 0 0 0 0 0 0 0 0 0 0 0 0 0 0 0 0 0 0 0 0
2 3 4 6 10 14 16 17 18 21 27 36 43 45 42 35 24 12 6 4 3 2 1 0 0 0 0 0 0 0 0 0 0 0 0 0 0 0 0 0 0 0 0
5 6 9 12 15 18 18 19 21 25 32 39 45 47 44 38 27 17 11 7 4 3 1 0 0 0 0 0 0 0 0 0 0 0 0 0 0 0 0 0 0 0 0
9 11 15 18 21 21 20 20 25 33 41 45 47 47 42 34 27 21 15 10 6 4 2 1 0 0 0 0 0 0 0 0 0 0 0 0 0 0 0 0 0 0 0
16 19 21 23 26 24 22 24 31 41 49 52 50 46 41 33 27 23 17 11 8 7 4 2 2 1 1 0 0 0 0 0 0 0 0 0 0 0 0 0 0 0 0
21 22 22 23 26 25 25 28 34 41 47 49 46 41 36 31 25 20 15 11 9 8 6 3 2 2 1 0 0 0 0 0 1 1 2 1 0 0 0 0 0 0 0
16 15 16 17 20 23 25 27 30 34 35 35 34 31 28 25 20 16 13 12 9 7 5 2 1 2 2 0 0 0 0 0 1 2 2 2 1 0 0 0 0 0 0
9 9 10 12 15 19 21 22 24 26 24 21 21 21 20 19 16 12 11 11 10 6 3 1 1 2 3 1 0 0 0 0 1 2 2 2 1 0 0 0 0 0 0
10 11 11 11 13 15 16 17 20 19 15 10 11 13 14 13 10 8 6 8 9 6 3 1 2 4 5 2 0 0 0 0 1 3 3 2 1 0 0 0 0 0 0
10 11 11 10 11 12 12 12 12 10 7 4 4 5 6 5 4 3 2 3 5 5 3 3 4 5 5 3 0 0 0 0 1 3 5 4 1 0 0 0 0 0 0
6 7 7 7 8 9 8 6 4 3 2 1 0 1 1 1 1 1 1 1 2 3 3 3 3 3 2 1 0 0 0 0 0 1 4 4 1 0 0 0 0 0 0
1 2 3 3 4 5 5 3 2 1 0 0 0 0 0 0 0 0 0 0 1 1 2 2 1 0 0 1 1 0 0 0 0 0 1 1 0 0 0 0 0 0 0
0 1 1 0 1 1 1 1 1 0 0 0 0 0 0 0 0 0 0 0 0 0 1 1 0 0 0 1 1 1 1 1 1 0 0 0 0 0 0 0 0 0 0
0 0 0 0 0 0 0 0 0 0 0 0 0 0 0 0 0 0 0 0 1 0 0 0 0 0 0 0 0 1 1 2 1 0 0 0 0 0 0 0 0 1 1
0 0 0 0 0 0 0 0 0 0 0 0 0 0 0 0 0 0 0 0 1 0 0 0 0 0 0 0 0 0 1 1 1 0 0 0 0 0 0 0 0 1 2

GEFSMW_con_prob3kmehi_090.txt.gz
EHI
42 48 53 55 58 61 63 61 57 51 44 36 28 21 14 10 10 10 8 4 1 0 0 0 0 0 0 0 0 0 0 0 0 0 0 0 0 0 0 0 0 0 0
46 51 54 56 58 59 59 58 55 49 41 33 26 20 13 9 9 11 11 5 1 0 0 0 0 0 0 0 0 0 0 0 0 0 0 0 0 0 0 0 0 0 0
50 52 53 54 54 53 52 54 55 50 40 30 24 19 12 6 7 12 10 5 1 0 0 0 0 0 0 0 0 0 0 0 0 0 0 0 0 0 0 0 0 0 0
48 49 50 50 48 45 46 52 57 55 45 32 23 17 11 5 6 12 13 7 2 0 0 0 0 0 0 0 0 0 0 0 0 0 0 0 0 0 0 0 0 0 0
43 44 45 46 43 42 45 52 58 59 49 33 22 16 10 7 8 15 18 11 3 1 0 0 0 0 0 0 0 0 0 0 0 0 0 0 0 0 0 0 0 0 0
37 38 40 42 42 42 46 52 57 57 46 31 21 17 13 11 12 16 16 10 3 2 1 1 0 0 0 0 0 0 0 0 0 0 0 0 0 0 0 0 0 0 0
34 38 40 42 43 44 47 51 52 50 40 28 22 21 19 16 14 13 11 7 3 4 6 5 3 1 0 0 0 0 0 0 0 0 0 0 0 0 0 0 0 0 0
31 38 44 45 46 47 49 50 49 46 37 28 27 29 26 19 14 13 12 7 3 7 13 11 5 2 0 0 0 0 0 0 0 0 0 0 0 0 0 0 0 0 0
26 34 43 46 47 49 49 49 52 49 41 35 34 34 30 22 16 16 14 8 4 9 17 15 7 3 1 0 0 0 0 0 0 0 0 0 0 0 0 0 0 0 0
23 30 38 41 43 45 46 49 53 53 48 44 40 37 35 31 24 22 18 12 10 12 16 14 7 3 2 1 1 0 0 0 0 0 0 0 0 0 0 0 0 0 0
21 26 32 35 37 38 41 46 51 52 50 49 47 45 47 45 38 33 28 23 20 19 17 14 9 3 2 2 2 1 0 0 0 0 0 0 0 0 0 0 0 0 0
20 25 31 33 33 34 39 45 50 52 53 56 57 56 58 58 53 48 43 38 34 27 21 18 12 5 3 3 3 2 1 0 0 0 0 0 0 0 0 0 0 0 0
24 31 39 40 38 42 47 51 53 53 58 65 68 67 66 68 67 62 58 55 48 36 27 23 17 9 5 4 4 3 2 1 1 1 1 1 1 1 0 0 0 0 0
35 44 56 59 56 58 61 61 59 59 64 72 76 75 74 75 76 73 69 66 58 44 34 29 23 15 9 6 5 4 3 3 3 3 2 2 2 1 0 0 0 0 0
45 55 70 76 76 74 71 68 66 67 71 76 79 80 79 80 82 80 75 70 60 48 39 34 28 21 12 7 6 7 7 8 7 6 6 5 2 1 0 0 0 0 0
47 56 71 80 84 84 80 76 74 73 75 76 77 79 79 81 80 78 74 70 61 51 43 36 31 24 14 5 4 7 10 13 13 14 14 9 3 1 1 0 0 0 0
50 55 65 74 81 83 81 79 76 74 73 71 70 72 75 76 73 70 69 68 64 58 49 41 34 27 15 4 1 4 8 11 15 19 20 14 7 4 4 3 1 0 0
53 54 57 63 69 72 71 69 65 65 65 62 61 62 65 66 63 61 61 61 61 58 53 46 39 31 19 6 0 1 3 6 9 13 16 16 11 6 5 4 2 1 1
49 48 48 53 57 58 57 52 49 49 49 49 51 53 52 52 52 51 51 51 52 51 47 43 38 33 23 9 1 0 0 1 4 6 8 10 9 4 2 2 1 2 3
38 37 38 43 45 44 43 40 37 35 33 33 36 38 37 37 39 40 40 41 42 39 34 31 30 29 24 12 2 0 0 1 3 4 4 3 2 1 0 0 0 1 1
28 28 29 31 32 32 31 31 30 26 23 22 23 23 23 24 26 28 29 29 30 27 23 21 20 21 17 10 2 0 0 1 3 3 1 0 0 0 0 0 0 0 0
18 18 19 19 20 20 20 21 21 19 16 14 14 14 13 11 12 15 17 17 17 16 15 13 12 10 8 4 1 0 0 0 1 1 0 0 0 0 0 0 0 0 0
8 8 7 8 9 9 9 9 9 9 8 7 6 6 6 4 4 5 6 8 7 6 6 5 4 3 2 1 0 0 0 0 0 0 0 0 0 0 0 0 0 0 0
1 1 1 1 1 2 2 2 2 2 2 1 1 1 1 1 1 0 1 2 2 1 2 1 0 0 0 0 0 0 0 0 0 0 0 0 0 0 0 0 0 0 0
0 0 0 0 0 0 0 0 0 0 0 0 0 0 0 0 0 0 0 0 0 0 0 0 0 0 0 0 0 0 0 0 0 0 0 0 0 0 0 0 0 0 0
0 0 0 0 0 0 0 0 0 0 0 0 0 0 0 0 0 0 0 0 0 0 0 0 0 0 0 0 0 0 0 0 0 0 0 0 0 0 0 0 0 0 0

GEFSMW_con_prob3kmehi_096.txt.gz
EHI
34 31 30 29 28 29 30 27 21 15 12 10 6 4 2 1 0 0 0 0 0 0 0 0 0 0 0 0 0 0 0 0 0 0 0 0 0 0 0 0 0 0 0
33 31 30 28 26 28 29 27 21 14 10 8 5 4 3 1 0 0 0 0 0 0 0 0 0 0 0 0 0 0 0 0 0 0 0 0 0 0 0 0 0 0 0
34 33 30 27 26 28 29 27 20 12 8 6 5 4 2 1 0 0 0 0 0 0 0 0 0 0 0 0 0 0 0 0 0 0 0 0 0 0 0 0 0 0 0
34 33 31 28 27 29 29 26 19 11 7 6 5 4 2 1 0 0 0 0 0 0 0 0 0 0 0 0 0 0 0 0 0 0 0 0 0 0 0 0 0 0 0
30 31 30 28 27 27 27 24 18 11 7 6 4 3 1 0 0 0 0 0 0 0 0 0 0 0 0 0 0 0 0 0 0 0 0 0 0 0 0 0 0 0 0
27 27 28 27 26 24 24 22 17 11 7 5 3 1 0 0 0 0 0 0 0 0 0 0 0 0 0 0 0 0 0 0 0 0 0 0 0 0 0 0 0 0 0
26 27 28 29 27 24 22 21 17 12 8 6 3 1 1 0 0 0 0 0 0 0 0 0 0 0 0 0 0 0 0 0 0 0 0 0 0 0 0 0 0 0 0
27 28 31 31 29 26 24 22 17 12 10 9 7 4 2 0 0 0 0 0 0 0 0 0 0 0 0 0 0 0 0 0 0 0 0 0 0 0 0 0 0 0 0
26 27 30 32 31 28 27 24 18 13 11 11 10 6 3 1 1 1 0 0 0 0 0 0 0 0 0 0 0 0 0 0 0 0 0 0 0 0 0 0 0 0 0
22 25 29 31 31 30 29 25 18 14 14 14 12 8 4 3 2 2 1 0 0 0 0 0 0 0 0 0 0 0 0 0 0 0 0 0 0 0 0 0 0 0 0
18 21 25 29 30 30 29 25 20 18 17 15 12 9 6 4 4 4 2 1 0 0 0 0 0 0 0 0 0 0 0 0 0 0 0 0 0 0 0 0 0 0 0
13 15 20 25 27 29 29 28 25 21 18 14 10 8 6 6 6 5 3 2 1 1 0 0 0 0 0 0 0 0 0 0 0 0 0 0 0 0 0 0 0 0 0
7 9 15 21 25 27 27 27 25 21 16 12 9 8 7 7 7 6 5 4 3 2 1 0 0 0 0 0 0 0 0 0 0 0 0 0 0 0 0 0 0 0 0
6 9 14 18 21 22 23 22 19 17 13 10 9 8 9 8 7 7 7 6 4 2 1 0 0 0 0 0 0 0 0 0 0 0 0 0 0 0 0 0 0 0 0
10 11 13 14 15 16 17 17 15 13 12 9 8 7 8 8 7 8 8 7 5 3 1 0 0 0 0 0 0 0 0 0 0 0 0 0 0 0 0 0 0 0 0
12 12 11 10 11 12 13 13 12 12 12 11 9 8 7 7 7 8 9 8 7 6 4 2 1 0 0 0 0 0 0 0 0 0 0 0 0 0 0 0 0 0 0
8 8 8 7 8 9 10 10 10 10 11 10 11 11 10 10 9 8 8 8 9 8 6 4 2 1 1 0 0 0 0 0 0 0 0 0 0 0 0 0 0 0 0
4 5 6 6 6 8 8 8 8 8 8 6 7 10 11 10 9 8 7 7 7 6 5 4 3 2 1 0 0 0 0 0 0 0 0 0 0 0 0 0 0 0 0
6 6 6 6 5 5 7 7 6 6 4 3 4 6 8 8 7 7 6 5 4 3 3 3 2 1 1 0 0 0 0 0 0 0 0 0 0 0 0 0 0 0 0
7 6 5 4 2 2 4 5 4 3 2 2 3 4 5 5 5 4 4 3 1 1 1 1 1 0 0 0 0 0 0 0 0 0 0 0 0 0 0 0 0 0 0
4 3 2 1 0 0 1 1 1 1 1 1 1 2 2 2 1 1 1 1 0 0 0 0 0 0 0 0 0 0 0 0 0 0 0 0 0 0 0 0 0 0 0
1 0 0 0 0 0 0 0 0 0 0 0 0 0 0 0 0 0 0 0 0 0 0 0 0 0 0 0 0 0 0 0 0 0 0 0 0 0 0 0 0 0 0
0 0 0 0 0 0 0 0 0 0 0 0 0 0 0 0 0 0 0 0 0 0 0 0 0 0 0 0 0 0 0 0 0 0 0 0 0 0 0 0 0 0 0
0 0 0 0 0 0 0 0 0 0 0 0 0 0 0 0 0 0 0 0 0 0 0 0 0 0 0 0 0 0 0 0 0 0 0 0 0 0 0 0 0 0 0
0 0 0 0 0 0 0 0 0 0 0 0 0 0 0 0 0 0 0 0 0 0 0 0 0 0 0 0 0 0 0 0 0 0 0 0 0 0 0 0 0 0 0
0 0 0 0 0 0 0 0 0 0 0 0 0 0 0 0 0 0 0 0 0 0 0 0 0 0 0 0 0 0 0 0 0 0 0 0 0 0 0 0 0 0 0

GEFSMW_con_prob3kmehi_102.txt.gz
EHI
10 11 11 12 11 9 5 3 4 3 2 1 1 2 1 0 0 0 0 0 0 0 0 0 0 0 0 0 0 0 0 0 0 0 0 0 0 0 0 0 0 0 0
7 8 9 11 13 11 7 5 5 5 4 2 1 1 1 0 0 0 0 0 0 0 0 0 0 0 0 0 0 0 0 0 0 0 0 0 0 0 0 0 0 0 0
7 7 9 11 13 12 10 8 7 6 5 3 1 1 0 0 0 0 0 0 0 0 0 0 0 0 0 0 0 0 0 0 0 0 0 0 0 0 0 0 0 0 0
9 10 11 11 11 12 12 10 8 7 6 4 2 1 0 0 0 0 0 0 0 0 0 0 0 0 0 0 0 0 0 0 0 0 0 0 0 0 0 0 0 0 0
11 11 12 10 10 10 11 10 8 6 5 4 2 1 0 0 0 0 0 0 0 0 0 0 0 0 0 0 0 0 0 0 0 0 0 0 0 0 0 0 0 0 0
10 11 11 10 9 9 9 8 7 5 4 3 2 1 0 0 0 0 0 0 0 0 0 0 0 0 0 0 0 0 0 0 0 0 0 0 0 0 0 0 0 0 0
7 9 11 11 10 9 8 7 6 4 3 3 2 0 0 0 0 0 0 0 0 0 0 0 0 0 0 0 0 0 0 0 0 0 0 0 0 0 0 0 0 0 0
3 6 10 12 11 10 8 7 5 4 4 3 2 1 0 0 0 0 0 0 0 0 0 0 0 0 0 0 0 0 0 0 0 0 0 0 0 0 0 0 0 0 0
1 4 8 10 10 9 8 7 6 5 4 4 3 1 0 0 0 0 0 0 0 0 0 0 0 0 0 0 0 0 0 0 0 0 0 0 0 0 0 0 0 0 0
0 1 4 6 7 8 9 9 8 6 6 6 5 3 2 1 0 0 0 0 0 0 0 0 0 0 0 0 0 0 0 0 0 0 0 0 0 0 0 0 0 0 0
0 0 2 5 7 10 10 10 9 7 6 6 6 6 4 3 1 0 0 0 0 0 0 0 0 0 0 0 0 0 0 0 0 0 0 0 0 0 0 0 0 0 0
0 1 2 5 9 11 11 10 9 8 6 6 6 6 6 4 2 1 0 0 0 0 0 0 0 0 0 0 0 0 0 0 0 0 0 0 0 0 0 0 0 0 0
0 1 2 5 7 8 8 9 9 8 7 5 5 5 6 5 3 1 0 0 0 0 0 0 0 0 0 0 0 0 0 0 0 0 0 0 0 0 0 0 0 0 0
0 0 1 3 4 5 5 6 8 8 7 6 4 4 4 3 2 1 0 0 0 0 0 0 0 0 0 0 0 0 0 0 0 0 0 0 0 0 0 0 0 0 0
0 0 1 3 3 3 3 4 6 6 6 6 4 3 2 1 1 1 0 0 0 0 0 0 0 0 0 0 0 0 0 0 0 0 0 0 0 0 0 0 0 0 0
0 1 2 3 3 3 3 4 5 4 4 3 2 1 0 0 0 0 0 0 0 0 0 0 0 0 0 0 0 0 0 0 0 0 0 0 0 0 0 0 0 0 0
1 2 3 3 3 3 3 4 4 4 3 1 0 0 0 0 0 0 0 0 0 0 0 0 0 0 0 0 0 0 0 0 0 0 0 0 0 0 0 0 0 0 0
1 1 2 2 3 3 3 4 5 5 3 1 0 0 0 0 0 0 0 0 0 0 0 0 0 0 0 0 0 0 0 0 0 0 0 0 0 0 0 0 0 0 0
0 0 0 1 2 3 4 5 6 5 2 0 0 0 0 0 0 0 0 0 0 0 0 0 0 0 0 0 0 0 0 0 0 0 0 0 0 0 0 0 0 0 0
0 0 0 0 1 1 3 4 4 3 1 0 0 0 0 0 0 0 0 0 0 0 0 0 0 0 0 0 0 0 0 0 0 0 0 0 0 0 0 0 0 0 0
0 0 0 0 0 0 1 1 1 1 0 0 0 0 0 0 0 0 0 0 0 0 0 0 0 0 0 0 0 0 0 0 0 0 0 0 0 0 0 0 0 0 0
0 0 0 0 0 0 0 0 0 0 0 0 0 0 0 0 0 0 0 0 0 0 0 0 0 0 0 0 0 0 0 0 0 0 0 0 0 0 0 0 0 0 0
0 0 0 0 0 0 0 0 0 0 0 0 0 0 0 0 0 0 0 0 0 0 0 0 0 0 0 0 0 0 0 0 0 0 0 0 0 0 0 0 0 0 0
0 0 0 0 0 0 0 0 0 0 0 0 0 0 0 0 0 0 0 0 0 0 0 0 0 0 0 0 0 0 0 0 0 0 0 0 0 0 0 0 0 0 0
0 0 0 0 0 0 0 0 0 0 0 0 0 0 0 0 0 0 0 0 0 0 0 0 0 0 0 0 0 0 0 0 0 0 0 0 0 0 0 0 0 0 0
0 0 0 0 0 0 0 0 0 0 0 0 0 0 0 0 0 0 0 0 0 0 0 0 0 0 0 0 0 0 0 0 0 0 0 0 0 0 0 0 0 0 0

GEFSMW_con_prob3kmehi_108.txt.gz
EHI
19 23 26 24 20 17 13 11 12 16 20 19 17 13 7 2 1 0 1 1 0 0 0 0 0 0 0 0 0 0 0 0 0 0 0 0 0 0 0 0 0 0 0
21 25 25 21 17 15 13 12 12 13 14 16 19 16 10 4 1 1 2 2 1 0 0 0 0 0 0 0 0 0 0 0 0 0 0 0 0 0 0 0 0 0 0
22 24 22 16 12 12 13 13 13 10 9 12 16 14 9 4 1 1 2 2 1 0 0 0 0 0 0 0 0 0 0 0 0 0 0 0 0 0 0 0 0 0 0
19 20 17 11 9 9 10 12 14 13 10 10 11 9 5 2 1 1 1 2 1 0 0 1 1 0 0 0 0 0 0 0 0 0 0 0 0 0 0 0 0 0 0
16 15 12 7 7 7 8 9 13 16 14 11 9 6 3 1 1 1 1 1 1 0 0 1 2 1 0 0 0 0 0 0 0 0 0 0 0 0 0 0 0 0 0
14 13 11 9 7 6 6 6 11 15 16 12 8 4 3 3 3 2 0 0 0 0 1 2 2 1 0 0 0 0 0 0 0 0 0 0 0 0 0 0 0 0 0
13 13 13 11 8 7 6 6 8 13 14 11 7 4 4 4 4 2 1 0 0 0 1 2 2 2 1 0 0 0 0 0 0 0 0 0 0 0 0 0 0 0 0
11 11 12 11 10 8 7 7 8 11 12 9 8 7 5 5 4 3 2 1 1 0 0 1 2 2 1 0 0 0 0 0 0 0 0 0 0 0 0 0 0 0 0
8 8 8 10 11 11 10 10 11 13 12 11 10 8 6 5 4 3 2 2 2 1 0 0 1 2 2 1 0 0 0 0 0 0 0 0 0 0 0 0 0 0 0
5 5 6 9 12 13 12 13 14 15 14 12 10 7 5 4 4 3 3 3 4 2 1 1 1 3 3 2 1 1 1 1 1 0 0 0 0 0 0 0 0 0 0
6 6 7 9 12 14 14 15 15 15 14 14 11 7 5 4 4 4 4 6 6 5 3 3 4 4 4 3 3 3 3 3 2 1 0 0 0 0 0 0 0 0 0
9 8 8 10 12 13 15 16 16 14 14 15 13 10 7 6 6 5 5 7 8 6 5 5 5 4 4 4 5 5 5 4 3 1 0 0 0 0 0 0 0 0 0
14 12 11 13 13 15 15 14 13 13 14 16 16 14 10 8 7 6 5 7 8 8 6 5 5 4 4 4 6 6 6 5 3 1 1 0 0 0 0 0 0 0 0
23 18 16 17 18 19 18 15 12 13 15 17 18 18 15 12 10 7 7 7 8 8 7 5 5 5 4 5 6 6 5 5 4 3 3 1 0 0 0 0 0 0 0
27 22 20 21 21 22 22 18 15 15 17 19 20 20 19 17 13 12 11 11 10 8 7 6 5 6 5 5 5 5 5 7 7 7 6 3 1 0 0 0 0 0 0
25 23 23 23 23 23 22 21 20 20 20 21 21 21 20 19 17 16 16 15 12 8 6 5 6 5 4 2 2 3 6 8 10 10 8 4 1 0 0 0 0 0 0
27 27 26 24 24 23 22 23 23 23 22 21 20 21 20 19 17 17 16 14 11 8 6 6 6 5 3 1 0 1 3 6 7 8 7 5 2 1 1 1 0 0 0
33 33 31 26 24 25 24 23 22 22 22 21 20 20 20 16 14 13 11 9 9 8 8 6 6 5 2 0 0 0 1 2 2 3 4 4 3 2 2 1 1 1 0
35 35 33 29 27 27 24 20 18 18 18 17 17 18 17 14 10 7 6 7 8 8 8 7 6 4 2 0 0 0 0 0 0 0 1 2 2 2 1 1 2 2 2
30 30 30 29 28 26 22 18 15 15 13 12 12 13 13 11 8 5 5 7 8 7 6 5 4 3 1 0 0 0 0 0 0 0 0 1 1 1 0 0 1 2 3
21 21 23 24 23 20 16 14 12 11 10 9 8 9 9 8 7 5 5 6 6 5 4 2 1 1 1 0 0 0 0 0 0 0 0 0 0 0 0 0 0 1 1
13 13 14 15 15 12 10 7 6 7 7 7 6 5 6 5 5 3 3 3 3 3 2 1 0 0 0 0 0 0 0 0 0 0 0 0 0 0 0 0 0 0 0
6 5 5 6 6 6 4 2 2 3 4 3 2 2 2 2 1 1 1 1 1 1 1 0 0 0 0 0 0 0 0 0 0 0 0 0 0 0 0 0 0 0 0
1 1 1 1 1 2 1 0 0 1 1 1 0 0 0 0 0 0 0 0 0 0 0 0 0 0 0 0 0 0 0 0 0 0 0 0 0 0 0 0 0 0 0
0 0 0 0 0 0 0 0 0 0 0 0 0 0 0 0 0 0 0 0 0 0 0 0 0 0 0 0 0 0 0 0 0 0 0 0 0 0 0 0 0 0 0
0 0 0 0 0 0 0 0 0 0 0 0 0 0 0 0 0 0 0 0 0 0 0 0 0 0 0 0 0 0 0 0 0 0 0 0 0 0 0 0 0 0 0

GEFSMW_con_prob3kmehi_114.txt.gz
EHI
67 68 66 61 59 60 58 50 43 41 39 39 39 36 31 28 27 28 27 21 12 8 6 6 6 3 2 3 2 1 0 0 0 0 0 0 0 2 3 2 2 2 2
68 67 64 61 59 60 56 47 41 39 36 35 36 34 29 27 27 28 25 18 12 8 7 8 7 5 4 3 1 1 0 0 0 0 0 0 0 1 1 1 1 1 1
66 66 63 60 59 59 53 45 41 38 32 27 27 28 26 24 26 27 23 16 11 8 8 8 7 6 6 4 2 1 0 0 0 0 0 0 0 0 0 0 0 1 1
61 62 61 57 55 53 47 43 43 39 29 22 20 21 21 20 23 25 22 17 11 7 6 6 5 5 6 5 2 1 1 0 0 0 0 0 0 0 0 0 0 0 0
57 57 56 51 46 44 41 40 42 39 31 24 20 19 17 17 19 21 21 17 11 8 6 5 5 5 4 3 1 1 1 1 0 0 0 0 1 0 0 0 0 0 0
53 54 52 47 42 38 36 37 41 39 33 27 23 20 18 18 18 18 18 14 10 8 6 6 6 5 3 1 1 1 2 1 1 1 0 1 1 0 0 0 0 0 0
47 50 50 48 44 40 37 37 39 39 34 28 25 24 21 18 16 15 13 9 6 7 9 9 8 6 3 2 1 1 1 1 2 2 1 2 1 0 0 0 0 0 0
41 42 46 48 47 45 43 41 40 37 33 30 30 31 27 20 16 15 11 6 4 8 14 15 11 7 4 2 1 1 1 2 2 2 2 3 2 1 0 0 0 0 0
37 37 40 44 46 46 46 45 42 37 33 32 33 34 32 24 18 17 13 10 8 11 19 20 13 7 4 3 3 1 1 3 3 2 3 3 2 1 0 0 0 0 0
32 34 37 39 41 44 44 44 43 39 35 33 31 32 33 28 23 23 22 20 19 20 22 21 14 8 4 4 5 3 2 3 3 3 4 4 3 2 1 0 0 0 0
31 35 36 36 37 40 40 41 43 41 37 34 31 31 32 31 29 29 30 30 30 29 25 20 14 8 4 6 7 6 4 4 4 5 5 4 3 2 1 0 0 0 0
36 39 40 37 35 36 37 38 40 40 38 37 36 33 31 32 33 32 32 33 34 32 26 20 14 8 5 6 8 8 7 6 5 5 5 3 2 2 1 0 0 0 0
42 44 47 45 42 40 39 38 37 36 36 37 38 35 33 34 34 32 31 31 30 28 24 19 14 9 5 5 6 7 7 6 5 6 5 3 1 2 2 2 1 1 1
49 51 56 57 53 49 45 43 40 37 37 38 39 40 39 37 34 32 31 29 25 23 20 16 14 10 5 2 3 5 6 4 4 5 5 3 2 3 4 4 2 2 2
53 59 64 65 61 54 49 46 42 40 40 40 40 42 42 38 33 30 29 26 23 18 15 13 12 9 5 1 1 3 4 3 2 3 4 3 3 3 3 3 2 2 2
56 61 66 65 60 54 50 47 43 41 39 39 39 39 38 34 30 26 24 23 21 16 13 11 9 6 3 0 0 1 4 4 3 2 2 3 2 2 1 1 1 1 1
57 59 62 62 58 54 50 48 45 41 37 35 35 32 30 28 25 22 20 20 19 15 11 9 7 4 1 0 0 1 3 6 4 2 2 2 1 0 0 0 0 1 1
56 56 57 58 58 55 51 48 44 40 34 30 28 26 23 22 20 18 17 16 14 12 9 6 5 3 1 0 0 0 2 4 4 3 2 1 0 0 0 0 1 2 1
52 51 51 53 56 54 49 43 38 33 28 24 23 22 20 19 17 15 13 11 9 7 6 5 4 2 0 0 0 1 2 3 2 1 1 1 0 0 0 0 1 2 2
45 45 45 46 47 46 42 37 31 27 23 21 19 19 18 16 14 12 9 6 5 4 4 4 4 2 0 0 0 1 2 2 1 0 0 0 0 0 0 0 1 1 1
37 38 38 38 38 37 34 31 27 23 20 18 17 15 14 12 10 9 7 5 4 3 3 3 2 1 0 0 0 0 1 1 0 0 0 0 0 0 0 0 0 0 0
32 33 33 33 33 31 29 27 24 20 17 15 13 11 10 8 6 6 6 5 4 4 3 1 0 0 0 0 0 0 0 0 0 0 0 0 0 0 0 0 0 0 0
28 30 31 31 30 27 24 22 19 16 14 11 9 7 6 5 4 4 3 2 3 3 3 1 0 0 0 0 0 0 0 0 0 0 0 0 0 0 0 0 0 0 0
20 22 23 23 20 18 16 15 13 11 9 7 4 3 2 2 1 1 0 0 1 2 2 1 0 0 0 0 0 0 0 0 0 0 0 0 0 0 0 0 0 0 0
10 10 9 8 7 8 8 7 6 5 4 2 1 1 0 0 0 0 0 0 0 1 1 1 0 0 0 0 0 0 0 0 0 0 0 0 0 0 0 0 0 0 0
5 4 2 0 1 2 2 2 2 1 1 0 0 0 0 0 0 0 0 0 0 0 0 0 0 0 0 0 0 0 0 0 0 0 0 0 0 0 0 0 0 0 0

GEFSMW_con_prob3kmehi_120.txt.gz
EHI
42 45 47 45 43 42 39 32 25 20 19 17 14 13 13 10 4 1 0 0 1 1 1 0 0 0 0 0 0 0 0 0 0 0 0 0 0 0 0 0 0 0 0
43 44 45 45 45 43 38 30 24 19 16 13 11 10 10 8 4 1 0 0 0 0 0 0 0 0 0 0 0 0 0 0 0 0 0 0 0 0 0 0 0 0 0
43 41 40 40 42 41 35 28 23 19 15 12 9 8 7 5 2 0 0 0 1 1 0 0 0 0 0 0 0 0 0 0 0 0 0 0 0 0 0 0 0 0 0
40 37 34 33 35 34 30 25 22 19 16 12 10 8 6 3 1 0 0 0 1 1 0 0 0 0 0 0 0 0 0 0 0 0 0 0 0 0 0 0 0 0 0
38 35 31 28 27 26 24 21 19 18 15 11 8 6 4 3 1 0 0 0 1 1 0 0 0 0 0 0 0 0 0 0 0 0 0 0 0 0 0 0 0 0 0
35 34 31 26 22 21 21 19 17 16 13 9 6 4 3 3 2 0 0 0 0 0 0 0 0 0 0 0 0 0 0 0 0 0 0 0 0 0 0 0 0 0 0
34 34 33 29 24 22 22 20 17 14 11 7 4 3 3 3 1 0 0 0 0 0 0 0 0 0 0 0 0 0 0 0 0 0 0 0 0 0 0 0 0 0 0
33 33 33 31 27 25 26 23 17 12 9 6 3 2 2 2 1 0 0 0 0 0 0 0 0 1 1 0 0 0 0 0 0 0 0 0 0 0 0 0 0 0 0
27 27 27 28 27 27 26 23 18 13 8 6 4 2 1 1 0 0 0 0 0 0 0 0 0 1 1 0 0 0 0 0 0 0 0 0 0 0 0 0 0 0 0
20 20 19 22 26 26 25 23 20 15 9 6 5 4 2 1 0 0 0 0 0 0 0 0 0 0 0 0 0 0 0 0 0 0 0 0 0 0 0 0 0 0 0
18 17 16 18 23 25 24 23 21 16 11 8 7 5 4 2 1 1 0 0 0 0 0 0 0 0 0 0 0 0 0 0 0 0 0 0 0 0 0 0 0 0 0
20 18 16 17 19 21 22 22 21 19 14 11 10 8 6 4 3 2 1 0 0 0 0 0 0 0 0 0 0 0 0 0 0 0 0 0 0 0 0 0 0 0 0
18 17 15 16 17 17 18 19 20 20 17 14 13 12 10 6 3 2 1 0 0 0 0 0 0 0 0 0 0 0 0 0 0 0 0 0 0 0 0 0 0 0 0
17 15 12 13 15 16 16 16 17 18 18 17 16 15 13 9 4 1 1 0 0 0 0 0 0 0 0 0 0 0 0 0 0 0 0 0 0 0 0 0 0 0 0
19 16 11 9 10 13 14 14 14 15 17 19 18 15 14 11 6 3 1 0 0 0 0 0 0 0 0 0 0 0 0 0 0 0 0 0 0 0 0 0 0 0 0
22 19 13 7 7 10 11 11 11 12 14 16 15 13 11 9 6 3 2 1 1 0 0 0 0 0 0 0 0 0 0 0 0 0 0 0 0 0 0 0 0 0 0
23 21 16 11 8 7 9 9 9 10 11 12 10 7 6 5 4 3 2 2 1 0 0 0 0 0 0 0 0 0 0 0 0 0 0 0 0 0 0 0 0 0 0
17 18 19 17 12 8 8 9 10 11 11 9 7 5 4 4 4 3 3 2 1 0 0 0 0 0 0 0 0 0 0 0 0 0 0 0 0 0 0 0 0 0 0
11 13 18 21 18 13 11 11 12 12 11 9 8 7 6 6 5 3 2 1 0 0 0 0 0 0 0 0 0 0 0 0 0 0 0 0 0 0 0 0 0 0 0
8 10 15 20 20 16 14 13 13 12 10 9 9 8 7 5 3 2 0 0 0 0 0 0 0 0 0 0 0 0 0 0 0 0 0 0 0 0 0 0 0 0 0
8 10 14 16 17 15 14 13 12 10 8 8 6 5 3 2 1 0 0 0 0 0 0 0 0 0 0 0 0 0 0 0 0 0 0 0 0 0 0 0 0 0 0
11 12 13 13 12 11 12 13 10 7 5 3 2 1 1 0 0 0 0 0 0 0 0 0 0 0 0 0 0 0 0 0 0 0 0 0 0 0 0 0 0 0 0
13 13 12 10 8 8 9 10 7 3 1 1 0 0 0 0 0 0 0 0 0 0 0 0 0 0 0 0 0 0 0 0 0 0 0 0 0 0 0 0 0 0 0
8 9 8 6 5 4 5 5 3 1 0 0 0 0 0 0 0 0 0 0 0 0 0 0 0 0 0 0 0 0 0 0 0 0 0 0 0 0 0 0 0 0 0
2 4 4 3 2 1 1 1 0 0 0 0 0 0 0 0 0 0 0 0 0 0 0 0 0 0 0 0 0 0 0 0 0 0 0 0 0 0 0 0 0 0 0
0 1 2 1 0 0 0 0 0 0 0 0 0 0 0 0 0 0 0 0 0 0 0 0 0 0 0 0 0 0 0 0 0 0 0 0 0 0 0 0 0 0 0

GEFSMW_con_prob3kmehi_126.txt.gz
EHI
22 23 25 24 20 15 12 10 8 6 4 2 0 0 1 1 1 0 0 0 0 0 0 0 0 0 0 0 0 0 0 0 0 0 0 0 0 0 0 0 0 0 0
26 26 24 21 17 14 11 9 6 5 5 3 1 1 1 1 1 1 1 0 0 0 0 0 0 0 0 0 0 0 0 0 0 0 0 0 0 0 0 0 0 0 0
30 27 22 15 11 10 10 8 5 5 6 5 3 2 1 1 2 2 2 1 0 0 0 0 0 0 0 0 0 0 0 0 0 0 0 0 0 0 0 0 0 0 0
27 25 19 13 7 6 6 7 5 5 5 6 5 4 3 2 2 2 2 1 0 0 0 0 0 0 0 0 0 0 0 0 0 0 0 0 0 0 0 0 0 0 0
21 20 18 12 6 4 4 5 5 4 5 4 4 4 3 3 3 1 1 1 0 0 0 0 0 0 0 0 0 0 0 0 0 0 0 0 0 0 0 0 0 0 0
13 14 15 11 6 4 4 4 4 5 4 4 3 3 3 3 2 1 0 0 0 0 0 0 0 0 0 0 0 0 0 0 0 0 0 0 0 0 0 0 0 0 0
6 9 11 8 5 4 5 5 5 5 5 4 3 3 3 3 3 1 1 0 0 0 0 0 0 0 0 0 0 0 0 0 0 0 0 0 0 0 0 0 0 0 0
2 5 8 7 5 4 5 5 5 5 4 3 3 3 2 2 2 2 2 1 0 0 0 0 0 0 0 0 0 0 0 0 0 0 0 0 0 0 0 0 0 0 0
1 4 6 6 5 5 4 4 3 3 3 3 3 1 1 1 1 1 2 1 0 0 0 0 0 0 0 0 0 0 0 0 0 0 0 0 0 0 0 0 0 0 0
0 2 3 4 5 5 5 4 3 3 3 3 3 1 0 0 0 0 1 1 0 0 0 0 0 0 0 0 0 0 0 0 0 0 0 0 0 0 0 0 0 0 0
1 2 2 2 3 5 5 5 4 4 3 4 4 2 0 0 0 0 0 0 0 0 0 0 0 0 0 0 0 0 0 0 0 0 0 0 0 0 0 0 0 0 0
3 4 3 1 1 3 4 4 4 4 4 5 5 3 1 0 0 0 0 0 0 0 0 0 0 0 0 0 0 0 0 0 0 0 0 0 0 0 0 0 0 0 0
5 5 3 1 0 1 3 4 3 4 5 6 5 4 2 1 0 0 0 0 0 0 0 0 0 0 0 0 0 0 0 0 0 0 0 0 0 0 0 0 0 0 0
4 4 2 1 0 1 2 2 2 3 5 6 5 4 3 2 1 0 0 0 0 0 0 0 0 0 0 0 0 0 0 0 0 0 0 0 0 0 0 0 0 0 0
2 2 1 1 0 0 0 0 1 2 5 6 5 4 3 2 1 0 0 0 0 0 0 0 0 0 0 0 0 0 0 0 0 0 0 0 0 0 0 0 0 0 0
1 1 1 1 0 0 0 0 1 2 4 5 6 5 4 2 1 0 0 0 0 0 0 0 0 0 0 0 0 0 0 0 0 0 0 0 0 0 0 0 0 0 0
0 0 0 0 0 0 0 0 1 2 3 4 6 6 4 3 1 0 0 0 0 0 0 0 0 0 0 0 0 0 0 0 0 0 0 0 0 0 0 0 0 0 0
0 0 0 0 0 0 0 0 1 2 3 4 6 6 5 3 1 0 0 0 0 0 0 0 0 0 0 0 0 0 0 0 0 0 0 0 0 0 0 0 0 0 0
0 0 0 0 0 0 0 0 0 1 3 4 5 6 5 3 1 0 0 0 0 0 0 0 0 0 0 0 0 0 0 0 0 0 0 0 0 0 0 0 0 0 0
1 1 0 0 0 0 0 0 0 1 2 3 4 4 3 2 1 0 0 0 0 0 0 0 0 0 0 0 0 0 0 0 0 0 0 0 0 0 0 0 0 0 0
2 2 1 0 0 0 0 0 0 1 3 3 3 3 1 1 0 0 0 0 0 0 0 0 0 0 0 0 0 0 0 0 0 0 0 0 0 0 0 0 0 0 0
2 2 1 0 0 0 1 1 1 2 3 3 3 2 1 0 0 0 0 0 0 0 0 0 0 0 0 0 0 0 0 0 0 0 0 0 0 0 0 0 0 0 0
1 1 0 0 0 0 1 2 3 3 3 3 2 1 0 0 0 0 0 0 0 0 0 0 0 0 0 0 0 0 0 0 0 0 0 0 0 0 0 0 0 0 0
0 0 0 0 0 0 1 2 2 2 2 2 1 0 0 0 0 0 0 0 0 0 0 0 0 0 0 0 0 0 0 0 0 0 0 0 0 0 0 0 0 0 0
0 0 0 0 0 0 0 1 1 1 1 1 0 0 0 0 0 0 0 0 0 0 0 0 0 0 0 0 0 0 0 0 0 0 0 0 0 0 0 0 0 0 0
0 0 0 0 0 0 0 0 0 0 0 0 0 0 0 0 0 0 0 0 0 0 0 0 0 0 0 0 0 0 0 0 0 0 0 0 0 0 0 0 0 0 0

GEFSMW_con_prob3kmehi_132.txt.gz
EHI
40 40 37 34 34 33 30 25 19 18 16 10 7 6 5 3 2 1 2 3 2 1 0 1 3 4 2 1 0 0 0 0 0 0 0 0 0 0 0 0 0 0 0
41 42 39 34 31 31 29 23 15 13 12 8 7 8 8 5 3 2 3 3 3 2 1 1 2 2 1 0 0 0 0 0 0 0 0 0 0 0 0 0 0 0 0
41 43 40 33 29 28 26 18 11 8 8 7 6 7 7 5 3 3 4 4 3 2 1 0 1 1 0 0 0 0 0 0 0 1 0 0 0 0 0 0 0 0 0
37 39 37 31 27 26 23 17 10 8 9 9 7 5 4 3 3 4 4 4 4 3 1 0 0 0 0 0 0 0 0 0 0 0 0 0 0 0 0 0 0 0 0
29 32 31 26 23 22 20 17 14 11 11 10 7 5 3 2 2 3 4 4 5 4 3 2 2 1 0 0 0 0 0 0 0 0 0 0 0 0 0 0 0 0 0
22 26 26 22 19 17 17 18 17 14 12 10 7 5 3 1 1 1 2 4 6 6 6 5 4 2 0 0 0 0 0 0 0 0 0 0 0 0 0 0 0 0 0
19 22 23 22 19 15 15 17 18 17 13 9 6 4 2 1 1 1 1 3 5 7 7 6 4 1 0 0 0 0 0 0 0 0 0 0 0 0 0 0 0 0 0
15 19 22 23 22 17 15 17 18 17 14 10 6 4 3 2 2 2 2 3 5 5 5 6 4 2 0 0 1 1 1 1 1 0 0 0 0 0 0 1 1 0 0
12 16 20 22 23 21 19 17 16 15 13 10 6 5 5 3 3 3 3 4 4 4 4 5 5 2 1 1 1 1 1 1 1 1 1 0 0 1 1 1 2 1 0
10 13 17 21 23 24 23 18 15 13 11 9 7 6 5 4 3 3 5 6 6 5 4 5 4 2 0 1 2 1 0 1 2 2 2 1 1 1 1 1 2 1 1
12 14 18 20 21 23 24 19 15 12 10 8 7 6 5 4 3 3 6 9 8 6 5 4 3 1 0 0 1 0 0 0 1 2 2 2 2 2 1 1 1 1 0
18 20 21 20 18 19 20 18 15 13 10 9 9 8 6 5 3 3 5 8 8 6 4 2 1 1 1 1 0 0 0 0 0 1 1 1 1 2 1 0 0 0 0
24 25 24 21 18 17 16 16 14 12 11 10 10 10 9 7 5 3 2 3 4 3 2 1 1 2 2 2 1 0 0 0 0 0 0 0 0 0 0 0 0 0 0
27 28 27 23 19 16 15 16 16 14 12 11 11 12 11 10 8 5 3 3 3 2 1 1 2 3 3 3 2 1 0 0 0 0 0 0 0 0 0 0 0 0 0
29 28 28 25 20 16 13 14 16 15 13 12 12 12 12 12 11 10 8 8 6 4 3 3 3 3 3 2 2 1 0 0 0 0 0 0 0 0 0 0 0 0 0
34 31 28 25 21 16 12 12 14 12 10 10 11 12 12 12 12 11 11 11 9 7 6 5 5 4 2 1 1 1 1 1 0 0 0 0 0 0 0 0 0 0 0
39 35 30 26 22 17 13 12 12 10 8 8 10 11 11 10 9 9 10 11 10 10 9 8 7 6 2 0 0 0 1 1 1 1 0 0 0 0 0 0 0 0 0
35 32 30 28 24 18 13 11 10 9 9 10 12 12 11 9 9 9 11 11 11 12 11 9 8 7 3 1 0 0 1 1 1 1 0 0 0 0 0 0 0 0 0
28 26 25 25 24 18 14 10 9 11 13 15 14 13 12 11 11 10 10 10 11 12 11 8 7 6 3 1 0 0 1 2 2 1 0 0 0 0 0 0 0 0 0
23 21 19 20 22 20 17 13 11 14 17 17 15 13 12 12 11 9 8 8 8 8 7 6 5 3 2 1 0 0 1 1 1 1 0 0 0 0 0 0 0 0 0
18 17 17 18 20 21 19 17 15 15 16 16 13 11 10 9 8 7 6 5 4 4 3 3 2 1 1 0 0 0 0 0 0 0 0 0 0 0 0 0 0 0 0
15 16 17 20 21 20 20 18 16 15 13 11 9 8 7 7 6 4 4 3 2 1 1 1 0 0 0 0 0 0 0 0 0 0 0 0 0 0 0 0 0 0 0
14 15 17 19 19 18 18 18 15 13 11 9 7 6 6 6 4 3 3 2 1 0 0 0 0 0 0 0 0 0 0 0 0 0 0 0 0 0 0 0 0 0 0
12 13 13 14 14 14 14 14 11 9 8 8 6 5 5 5 3 2 1 1 0 0 0 0 0 0 0 0 0 0 0 0 0 0 0 0 0 0 0 0 0 0 0
9 9 8 7 7 7 8 8 6 5 6 6 4 3 3 3 1 1 0 0 0 0 0 0 0 0 0 0 0 0 0 0 0 0 0 0 0 0 0 0 0 0 0
5 6 5 3 2 3 4 4 3 3 4 4 3 2 1 1 0 0 0 0 0 0 0 0 0 0 0 0 0 0 0 0 0 0 0 0 0 0 0 0 0 0 0

GEFSMW_con_prob3kmehi_138.txt.gz
EHI
73 71 70 68 65 61 57 53 47 40 33 32 33 33 29 25 23 23 21 15 8 7 9 10 10 7 5 6 7 8 7 5 5 4 3 2 1 2 5 5 2 1 1
72 69 67 65 61 58 53 48 45 39 33 33 33 32 30 24 21 22 21 14 7 5 7 11 11 8 8 9 12 13 9 5 5 5 3 1 0 1 3 3 2 1 2
72 67 63 59 54 49 46 44 43 39 34 32 30 31 30 23 19 21 19 13 7 5 7 11 12 11 11 13 15 16 12 7 5 5 4 1 0 0 1 2 1 2 4
70 66 60 55 48 43 42 45 46 42 38 33 29 28 25 20 18 19 17 13 9 6 7 10 13 13 14 14 14 14 13 8 5 4 3 1 0 0 0 0 0 2 3
66 63 59 53 47 43 45 49 51 47 42 37 31 26 21 16 15 17 16 14 11 7 6 10 15 17 18 16 14 14 13 8 3 2 1 0 0 0 0 0 0 0 1
60 61 59 54 49 47 49 52 53 51 46 40 33 27 20 15 14 15 15 13 11 8 7 12 18 20 20 20 18 16 13 7 3 1 0 0 0 0 0 0 0 0 0
53 57 59 54 49 48 50 53 53 52 47 40 35 29 20 13 13 14 13 11 9 9 10 15 19 18 17 19 19 17 12 6 4 2 0 0 0 0 0 0 0 0 0
48 53 56 52 47 46 49 52 53 50 45 38 33 29 21 13 10 10 10 10 9 10 13 18 20 17 13 14 17 15 9 6 4 2 1 1 0 0 0 1 1 0 0
45 49 51 50 47 46 49 52 53 50 43 35 29 25 21 15 10 9 8 9 9 11 15 19 19 18 14 15 15 12 8 6 3 1 1 1 1 0 1 2 2 1 1
44 45 47 49 49 47 49 53 53 49 42 36 29 23 21 18 15 12 12 12 13 16 19 18 17 17 17 17 15 10 9 8 4 1 1 2 1 1 2 3 3 3 2
46 47 48 50 50 50 52 53 51 45 41 38 33 26 24 22 19 17 17 18 20 23 23 19 16 16 17 16 13 9 8 8 5 2 2 1 1 2 4 3 3 3 2
50 52 53 52 51 53 54 51 47 43 40 37 35 32 30 27 22 19 20 22 23 23 23 21 18 15 14 14 12 8 7 7 4 3 3 2 1 2 3 2 1 1 1
54 57 59 55 52 52 52 50 45 41 38 35 34 32 31 29 25 20 20 22 22 20 20 20 17 13 11 12 10 8 8 7 5 5 6 3 1 2 2 1 0 0 0
58 62 65 62 56 53 50 47 42 37 34 32 30 28 29 29 26 21 19 20 20 19 18 18 15 10 8 8 8 8 7 6 6 6 6 3 1 1 2 1 1 0 0
61 66 70 67 60 53 49 45 40 37 34 30 26 25 26 25 23 21 19 18 19 18 18 18 14 9 6 5 5 6 6 5 4 4 3 2 0 0 1 1 0 0 0
65 69 72 69 63 56 50 46 43 39 33 27 24 23 24 21 19 18 18 20 20 19 18 16 13 9 5 2 2 4 6 5 4 3 2 1 0 0 0 0 0 0 0
70 71 72 70 66 57 51 48 45 37 30 25 24 25 23 20 19 18 18 20 21 19 16 14 12 10 6 1 0 2 4 4 4 4 3 1 0 0 0 0 0 0 0
69 69 68 67 64 58 52 48 42 33 26 23 24 26 25 23 22 21 19 18 19 18 16 13 13 11 7 2 0 1 1 2 3 4 3 2 0 0 0 0 0 0 0
60 60 61 62 62 59 53 47 41 34 27 25 25 25 25 25 23 21 18 15 15 14 12 11 11 11 7 2 0 0 0 1 2 2 2 1 0 0 0 0 0 0 0
52 51 54 58 61 58 52 48 43 37 31 29 27 26 25 23 20 16 14 12 10 8 7 7 8 8 5 2 0 0 0 0 1 1 1 0 0 0 0 0 0 0 0
46 46 48 52 54 52 48 45 41 35 32 29 26 23 20 17 14 11 10 8 6 5 4 4 4 4 3 1 0 0 1 0 0 0 0 0 0 0 0 0 0 0 0
36 37 40 43 44 43 41 38 34 30 27 24 20 17 13 10 8 7 6 5 4 3 3 3 3 2 1 0 0 0 0 0 0 0 0 0 0 0 0 0 0 0 0
25 26 30 34 36 34 33 30 27 25 23 19 14 11 9 8 6 5 4 3 3 3 2 2 2 1 0 0 0 0 0 0 0 0 0 0 0 0 0 0 0 0 0
20 21 24 27 27 25 23 22 21 20 19 15 10 8 7 6 4 3 2 2 2 1 1 1 1 0 0 0 0 0 0 0 0 0 0 0 0 0 0 0 0 0 0
18 20 21 20 18 16 16 16 16 16 14 12 7 5 3 3 1 1 1 1 1 0 0 0 0 0 0 0 0 0 0 0 0 0 0 0 0 0 0 0 0 0 0
17 19 19 17 14 13 13 15 15 13 11 9 6 4 2 1 0 0 0 0 0 0 0 0 0 0 0 0 0 0 0 0 0 0 0 0 0 0 0 0 0 0 0

GEFSMW_con_prob3kmehi_144.txt.gz
EHI
60 58 57 57 53 49 43 38 32 24 18 16 12 6 2 1 1 1 0 0 0 0 0 0 0 0 0 0 0 0 0 0 0 0 0 0 0 0 0 0 0 0 0
61 59 56 53 49 46 41 36 29 24 19 15 10 5 1 1 1 0 0 0 0 0 0 0 0 0 0 0 0 0 0 0 0 0 0 0 0 0 0 0 0 0 0
61 58 53 48 44 42 38 32 26 21 18 13 8 5 3 1 1 0 0 0 0 0 0 0 0 0 0 0 0 0 0 0 0 0 0 0 0 0 0 0 0 0 0
59 56 52 47 43 39 35 29 22 17 14 11 8 6 5 2 1 1 1 1 0 0 0 0 0 0 0 0 0 0 0 0 0 0 0 0 0 0 0 0 0 0 0
55 54 51 47 42 36 31 26 20 16 12 9 7 6 5 2 1 1 1 1 0 0 0 0 0 0 0 0 0 0 0 0 0 0 0 0 0 0 0 0 0 0 0
52 50 47 43 38 32 27 25 22 17 12 9 6 4 3 1 0 0 0 0 0 0 0 0 0 0 0 0 0 0 0 0 0 0 0 0 0 0 0 0 0 0 0
48 46 42 39 35 30 26 25 24 19 13 10 7 4 2 1 1 0 0 0 0 0 0 0 0 1 1 1 0 0 0 0 0 0 0 0 0 0 0 0 0 0 0
41 40 38 36 33 30 28 28 26 21 15 11 7 4 2 2 1 0 0 0 0 0 0 0 1 2 2 2 1 0 0 0 0 0 0 0 0 0 0 0 0 0 0
34 32 30 31 31 29 29 29 27 22 17 11 6 3 1 1 1 0 0 0 0 0 0 0 1 2 2 2 1 0 0 0 0 0 0 0 0 0 0 0 0 0 0
30 26 24 25 26 26 27 27 25 21 17 11 6 3 1 0 0 0 0 0 0 0 0 1 1 1 1 1 1 0 0 0 0 0 0 0 0 0 0 0 0 0 0
29 26 23 22 22 22 23 23 22 20 17 11 6 3 1 0 0 0 0 0 0 0 0 0 0 0 0 0 0 0 0 0 0 0 0 0 0 0 0 0 0 0 0
27 27 25 23 21 21 21 21 19 17 14 10 6 3 1 0 0 0 0 0 0 0 0 0 0 0 0 0 0 0 0 0 0 0 0 0 0 0 0 0 0 0 0
27 27 25 23 21 21 21 19 17 13 10 9 7 4 2 1 0 0 0 0 0 0 0 0 0 0 0 0 0 0 0 0 0 0 0 0 0 0 0 0 0 0 0
29 26 24 22 22 21 20 18 15 13 12 11 9 5 3 2 1 1 1 2 2 2 1 1 0 0 0 0 0 0 0 0 0 0 0 0 0 0 0 0 0 0 0
33 30 26 24 24 24 21 18 16 16 16 14 10 7 6 4 3 3 4 5 5 5 4 3 2 1 0 0 0 0 0 0 0 0 0 0 0 0 0 0 0 0 0
40 37 31 27 27 27 24 20 17 16 16 13 10 8 7 6 5 5 5 6 6 6 6 5 5 3 1 0 0 0 0 0 0 0 0 0 0 0 0 0 0 0 0
45 41 34 29 29 28 26 21 17 15 14 11 8 7 6 5 4 4 4 4 4 4 4 5 5 4 2 1 0 0 0 0 0 0 0 0 0 0 0 0 0 0 0
41 39 34 30 27 26 23 18 15 14 13 9 6 6 5 4 3 4 4 4 3 4 4 3 3 3 2 1 0 0 0 0 0 0 0 0 0 0 0 0 0 0 0
33 34 33 28 24 22 19 15 13 12 11 8 6 6 4 3 3 3 4 3 4 4 4 2 1 1 1 0 0 0 0 0 0 0 0 0 0 0 0 0 0 0 0
29 30 30 26 21 17 15 13 11 9 8 7 6 5 4 3 3 3 3 3 3 4 3 1 0 0 0 0 0 0 0 0 0 0 0 0 0 0 0 0 0 0 0
27 27 26 21 17 14 12 10 9 7 6 6 5 4 3 3 3 3 3 3 3 3 3 2 1 0 0 0 0 0 0 0 0 0 0 0 0 0 0 0 0 0 0
21 22 20 16 14 11 8 7 5 5 6 6 6 4 3 3 3 3 3 3 3 3 3 3 2 0 0 0 0 0 0 0 0 0 0 0 0 0 0 0 0 0 0
14 14 13 11 10 8 6 4 4 4 7 8 7 5 4 3 3 3 3 3 3 3 3 3 1 0 0 0 0 0 0 0 0 0 0 0 0 0 0 0 0 0 0
9 9 8 7 6 5 4 4 5 6 8 9 7 5 4 3 3 3 3 3 3 3 3 2 1 0 0 0 0 0 0 0 0 0 0 0 0 0 0 0 0 0 0
5 7 6 5 4 4 4 5 6 7 9 9 6 4 3 3 3 2 2 2 2 2 1 1 0 0 0 0 0 0 0 0 0 0 0 0 0 0 0 0 0 0 0
3 5 6 5 4 5 5 5 6 8 9 8 5 4 3 3 3 1 1 1 1 1 0 0 0 0 0 0 0 0 0 0 0 0 0 0 0 0 0 0 0 0 0

GEFSMW_con_prob3kmehi_150.txt.gz
EHI
31 33 32 30 29 24 17 12 8 7 7 7 6 2 0 0 0 0 0 0 1 0 0 0 0 0 0 0 0 0 0 0 0 0 0 0 0 0 0 0 0 0 0
38 38 37 35 31 25 20 15 11 9 9 8 4 1 0 0 0 0 0 1 1 1 0 0 0 0 0 0 0 0 0 0 0 0 0 0 0 0 0 0 0 0 0
39 41 42 38 31 26 22 19 14 11 9 7 4 2 1 1 0 0 0 1 1 1 0 0 0 0 0 0 0 0 0 0 0 0 0 0 0 0 0 0 0 0 0
35 38 40 37 29 23 20 17 14 10 8 6 4 3 3 2 0 0 0 0 0 0 0 0 0 0 0 0 0 0 0 0 0 0 0 0 0 0 0 0 0 0 0
33 34 35 33 26 20 16 13 11 8 6 4 4 4 4 2 1 0 0 0 0 0 0 0 0 0 0 0 0 0 0 0 0 0 0 0 0 0 0 0 0 0 0
31 31 30 28 23 17 13 10 8 7 5 4 3 3 4 4 2 0 0 0 0 0 0 0 0 0 0 0 0 0 0 0 0 0 0 0 0 0 0 0 0 0 0
28 28 28 25 21 16 13 10 8 6 5 4 3 3 4 5 3 1 0 0 0 0 0 0 0 0 0 0 0 0 0 0 0 0 0 0 0 0 0 0 0 0 0
26 26 26 23 19 16 14 11 8 7 6 5 4 3 4 5 3 1 0 0 0 0 0 0 0 0 0 0 0 0 0 0 0 0 0 0 0 0 0 0 0 0 0
23 22 21 18 15 13 12 10 8 6 6 6 4 3 3 4 2 1 0 0 0 0 0 0 0 0 0 0 0 0 0 0 0 0 0 0 0 0 0 0 0 0 0
19 18 15 13 10 8 7 6 5 4 4 4 3 2 1 1 1 0 0 0 0 0 0 0 0 0 0 0 0 0 0 0 0 0 0 0 0 0 0 0 0 0 0
14 12 10 8 7 5 5 4 4 3 2 1 1 0 0 0 0 0 0 0 0 0 0 0 0 0 0 0 0 0 0 0 0 0 0 0 0 0 0 0 0 0 0
8 9 8 7 6 5 5 5 4 3 1 0 0 0 0 0 0 0 0 0 0 0 0 0 0 0 0 0 0 0 0 0 0 0 0 0 0 0 0 0 0 0 0
7 8 8 7 6 6 5 5 3 2 1 0 0 0 0 0 0 0 0 0 0 0 0 0 0 0 0 0 0 0 0 0 0 0 0 0 0 0 0 0 0 0 0
9 9 8 6 6 6 5 4 2 1 0 0 0 0 0 0 0 0 0 0 0 0 0 0 0 0 0 0 0 0 0 0 0 0 0 0 0 0 0 0 0 0 0
11 10 7 5 5 5 4 3 2 0 0 0 0 0 0 0 0 0 0 0 0 0 0 0 0 0 0 0 0 0 0 0 0 0 0 0 0 0 0 0 0 0 0
15 12 8 6 5 4 4 4 3 1 0 0 0 0 0 0 0 0 0 0 0 0 0 0 0 0 0 0 0 0 0 0 0 0 0 0 0 0 0 0 0 0 0
18 15 10 6 4 4 5 6 5 3 2 1 1 1 1 1 1 0 0 0 0 0 0 0 0 0 0 0 0 0 0 0 0 0 0 0 0 0 0 0 0 0 0
18 15 9 5 4 5 6 6 5 4 4 3 2 2 2 2 2 1 0 0 0 0 0 0 0 0 0 0 0 0 0 0 0 0 0 0 0 0 0 0 0 0 0
14 11 6 4 6 8 7 5 4 4 4 3 3 3 3 3 3 2 1 0 0 0 0 0 0 0 0 0 0 0 0 0 0 0 0 0 0 0 0 0 0 0 0
7 7 6 6 9 10 7 5 3 4 3 3 3 4 3 3 3 3 2 1 0 0 0 0 0 0 0 0 0 0 0 0 0 0 0 0 0 0 0 0 0 0 0
3 3 5 7 9 9 7 4 3 3 3 3 4 4 3 3 3 3 2 1 0 0 0 0 0 0 0 0 0 0 0 0 0 0 0 0 0 0 0 0 0 0 0
2 2 4 5 6 6 5 4 3 3 3 3 3 3 2 2 2 3 2 1 0 0 0 0 0 0 0 0 0 0 0 0 0 0 0 0 0 0 0 0 0 0 0
2 3 5 5 4 4 4 3 3 3 3 3 3 2 1 1 1 1 2 2 1 1 1 2 1 0 0 0 0 0 0 0 0 0 0 0 0 0 0 0 0 0 0
6 7 8 6 5 4 3 3 3 3 3 3 3 2 1 0 0 0 1 2 2 2 3 3 2 1 0 0 0 0 0 0 0 0 0 0 0 0 0 0 0 0 0
8 8 8 6 4 3 3 3 3 3 3 3 3 2 1 0 1 0 0 1 2 2 2 3 3 2 1 0 0 0 0 0 0 0 0 0 0 0 0 0 0 0 0
8 7 6 5 4 3 3 3 3 3 3 3 3 2 1 0 1 0 0 0 1 1 1 2 3 2 1 0 0 0 0 0 0 0 0 0 0 0 0 0 0 0 0

GEFSMW_con_prob3kmehi_156.txt.gz
EHI
39 43 45 41 37 36 35 30 27 25 25 24 21 16 11 5 2 1 0 0 0 0 0 0 0 0 1 0 0 0 0 0 0 0 1 0 0 0 0 0 0 0 0
43 47 51 48 42 39 35 31 28 27 25 24 21 16 10 5 2 1 0 0 0 0 0 0 0 1 1 0 0 0 0 0 0 0 1 1 1 0 0 0 0 0 0
46 50 54 52 46 38 32 27 26 26 25 23 20 17 13 8 4 2 1 1 1 0 0 0 0 1 1 0 0 1 1 1 0 0 1 2 1 0 0 0 0 0 0
44 49 52 49 44 34 24 21 22 23 22 20 19 18 15 11 8 5 3 2 2 1 0 0 0 1 1 0 0 0 1 1 1 2 2 1 1 0 0 0 0 0 0
42 45 46 43 38 29 21 18 21 22 19 18 17 16 14 11 9 8 5 3 2 1 0 0 0 0 1 1 1 0 0 1 2 4 3 1 1 1 1 0 1 1 1
39 41 42 39 34 28 23 22 23 22 18 17 15 13 11 10 10 10 8 4 2 1 1 1 1 0 0 1 1 0 0 1 2 4 4 2 2 3 2 1 1 2 2
36 39 40 38 34 30 27 25 25 22 18 16 15 12 11 10 10 10 10 7 3 3 4 3 2 0 0 1 1 1 1 1 2 3 5 5 4 4 3 3 3 2 1
35 37 39 37 34 31 28 26 25 22 18 16 15 11 9 8 7 8 9 7 4 3 4 3 2 1 0 1 3 4 4 5 5 5 7 9 8 6 4 4 5 4 2
35 34 34 33 29 27 26 25 22 18 14 13 12 9 6 5 5 6 7 6 4 2 1 2 2 1 1 2 4 6 7 8 8 8 8 10 10 9 8 7 8 8 6
33 30 27 25 22 20 23 24 21 16 10 8 9 7 6 5 4 4 4 4 3 1 0 1 1 1 1 3 5 7 7 6 7 7 6 6 8 11 11 10 10 11 12
31 27 22 19 15 16 20 23 22 17 12 9 8 8 7 6 4 4 3 3 3 2 1 2 2 2 2 3 4 5 4 3 4 4 3 3 5 9 11 11 10 12 14
29 26 23 20 17 17 18 20 20 18 16 12 10 9 9 8 6 4 3 4 4 3 3 2 3 2 1 1 3 3 2 2 3 3 2 2 3 6 8 8 8 9 10
33 31 30 28 25 23 20 18 17 18 17 15 12 12 11 11 10 7 5 4 4 3 2 1 1 1 1 0 1 2 3 3 3 3 4 3 2 3 5 6 6 6 6
39 38 38 38 34 31 25 20 17 17 16 15 14 14 13 12 12 9 6 4 3 2 1 1 1 1 0 0 0 1 2 3 4 4 4 3 1 1 3 4 5 4 3
43 43 42 42 40 37 31 25 20 18 16 16 16 16 15 14 13 10 6 3 2 2 2 2 1 0 0 0 0 0 1 3 4 4 4 3 1 0 1 1 3 2 1
44 45 45 43 42 40 36 32 26 22 21 20 19 18 18 17 14 10 6 4 3 3 2 2 1 1 1 0 0 0 1 2 3 4 4 3 2 1 1 0 1 1 0
45 47 47 45 43 41 40 37 32 27 25 24 22 20 19 18 16 11 8 7 5 4 4 3 2 2 2 1 0 0 1 2 3 4 5 4 3 3 2 1 0 0 0
44 46 47 47 46 43 41 39 35 30 28 26 24 21 19 19 16 12 10 9 6 4 4 3 3 3 2 1 0 0 0 2 3 5 5 5 3 3 2 1 1 1 1
41 43 47 51 51 45 40 37 34 30 27 26 24 21 19 17 14 12 12 10 7 4 3 3 3 3 3 1 0 0 1 2 3 4 4 3 2 1 1 1 1 2 2
40 43 48 52 51 46 40 36 33 29 25 23 22 19 16 14 12 11 11 10 7 4 3 3 3 3 3 2 1 1 2 3 3 3 3 2 1 0 0 0 1 2 3
40 43 46 45 44 43 39 34 30 25 21 20 19 16 13 12 12 11 11 9 7 4 3 3 3 3 3 2 1 1 2 3 3 3 3 2 1 0 0 0 1 1 2
36 37 38 36 35 35 33 28 24 20 17 17 16 14 11 10 11 11 10 8 7 5 4 3 3 3 3 2 1 0 1 1 2 3 3 2 1 0 0 0 0 0 1
28 27 28 28 27 27 24 21 18 16 14 13 13 12 10 10 10 10 9 7 6 4 3 3 3 3 3 3 1 0 0 0 1 2 2 2 1 0 0 0 0 0 0
21 21 22 21 21 21 19 16 14 12 11 10 10 10 10 10 10 10 9 6 5 4 3 3 3 3 3 3 2 1 1 0 0 1 1 1 0 0 0 0 0 0 0
16 19 20 18 17 17 16 13 11 10 9 8 8 9 9 9 9 9 8 5 3 2 2 2 2 2 2 2 2 2 1 0 0 0 0 0 0 0 0 0 0 0 0
14 17 19 17 16 16 15 12 11 9 8 7 7 7 8 9 8 7 5 3 1 1 1 1 1 1 1 1 1 1 1 0 0 0 0 0 0 0 0 0 0 0 0

GEFSMW_con_prob3kmehi_162.txt.gz
EHI
79 76 72 69 69 67 63 58 52 43 33 31 34 34 31 26 23 24 23 19 13 9 8 9 12 10 7 6 4 3 3 2 2 3 2 2 3 3 3 4 4 3 3
80 77 72 68 66 65 61 56 51 42 32 29 31 32 30 26 24 24 24 22 16 10 8 9 10 9 9 9 6 3 2 1 1 2 2 1 1 1 1 2 4 3 3
79 75 71 66 64 62 58 53 48 41 33 28 27 28 28 25 23 23 25 24 18 12 10 11 9 7 9 10 7 3 1 0 1 3 2 0 0 0 0 1 3 4 4
76 71 67 64 61 57 53 48 45 40 34 28 26 26 25 21 20 23 26 26 23 18 16 16 13 10 10 10 7 3 1 1 1 3 3 1 1 1 0 0 1 4 5
73 69 65 63 58 51 46 44 43 40 34 29 27 26 23 20 21 26 30 31 29 26 23 22 20 16 14 14 10 6 3 3 2 2 2 1 2 1 0 0 1 2 4
68 66 63 60 53 46 43 42 41 39 35 30 28 27 24 21 22 27 29 30 30 28 25 25 25 21 18 17 15 11 9 7 5 3 2 2 2 2 1 1 1 1 3
62 61 60 55 49 44 42 43 42 40 36 30 28 28 24 18 18 21 22 24 24 23 22 24 26 24 20 19 19 18 16 13 9 6 4 3 3 3 2 1 1 1 2
56 56 56 52 47 43 43 43 42 41 36 31 29 28 23 17 14 14 15 17 17 16 20 25 26 25 21 19 21 21 19 15 11 7 6 6 5 4 4 3 2 1 1
50 50 50 49 47 44 42 42 42 38 34 31 29 28 25 21 14 11 12 13 13 14 20 24 22 20 18 18 20 20 17 14 12 9 9 8 6 4 5 7 7 3 0
45 45 45 46 45 43 42 42 41 37 33 31 28 26 26 25 20 16 14 13 12 14 17 18 16 15 15 16 15 14 12 12 11 9 7 6 5 4 5 9 9 5 2
42 45 48 48 46 44 44 44 41 37 33 31 28 25 26 27 26 23 18 15 13 12 13 14 14 15 15 13 11 7 6 6 6 4 2 2 3 3 3 6 6 5 4
42 49 54 52 47 46 45 44 39 34 32 32 30 28 27 28 26 23 20 18 16 13 13 15 17 16 14 10 6 4 3 2 2 2 2 2 2 2 2 3 3 3 3
47 55 60 57 52 50 50 46 40 35 34 33 33 32 30 28 24 20 18 20 22 20 17 18 18 16 13 8 5 4 3 3 3 4 5 4 2 1 2 3 3 2 2
60 64 68 64 59 58 57 51 46 43 40 38 36 35 32 27 23 20 19 20 22 22 19 18 16 13 9 6 4 5 5 4 4 4 5 5 3 3 3 3 3 3 2
68 70 71 68 64 63 63 58 54 52 48 44 39 34 30 26 22 21 21 20 18 18 18 16 12 8 6 3 3 5 6 6 6 5 4 4 3 3 3 3 3 3 3
67 68 70 69 65 64 65 63 59 57 52 47 40 32 28 27 23 21 21 21 18 17 17 13 9 6 3 1 1 3 5 7 7 6 5 4 3 3 3 2 2 2 2
65 66 68 69 66 64 65 64 62 58 51 46 40 32 29 28 25 21 21 21 19 18 16 13 9 7 4 1 0 1 4 6 7 7 6 4 2 2 3 3 2 2 2
65 66 67 67 67 66 66 64 62 58 50 45 40 33 28 27 26 23 21 21 19 17 16 13 11 9 5 2 1 1 3 5 6 6 5 4 3 3 3 3 3 3 2
64 66 67 68 68 69 68 64 61 56 48 43 38 32 28 26 25 23 21 20 18 15 14 12 11 10 7 3 1 0 2 5 6 6 5 4 3 3 3 3 3 3 3
62 65 69 71 71 69 66 63 60 54 47 42 37 32 28 26 23 21 19 17 15 13 12 10 10 11 8 4 1 0 2 5 7 6 4 3 2 2 2 3 3 3 3
58 62 67 71 70 66 62 58 56 52 46 40 36 30 26 22 20 18 17 15 13 12 11 10 10 11 8 4 1 0 1 5 6 5 4 2 1 1 1 1 2 2 2
51 55 61 65 65 62 58 52 50 48 43 36 30 25 21 18 16 15 14 14 13 13 11 10 10 9 7 4 2 1 1 3 4 4 3 2 1 0 0 0 1 1 1
49 49 53 56 57 55 51 46 43 41 36 28 22 19 17 15 13 12 12 12 12 13 12 11 9 7 6 4 2 1 0 1 1 2 1 1 0 0 0 0 0 0 0
46 45 45 46 45 43 41 39 36 34 28 21 17 16 14 13 12 11 11 11 10 10 11 12 10 7 4 3 1 0 0 0 0 1 1 1 0 0 0 0 0 0 0
39 39 38 36 33 31 30 30 29 27 23 18 16 15 12 10 10 9 7 7 5 5 8 10 9 6 3 1 0 0 0 0 0 0 1 2 1 0 0 0 0 0 0
33 35 35 32 27 24 23 24 23 22 20 17 16 14 12 9 8 6 3 2 1 2 3 5 4 4 2 0 0 0 0 0 0 0 1 2 1 0 0 0 0 0 0

GEFSMW_con_prob3kmehi_168.txt.gz
EHI
60 63 65 61 52 44 39 36 33 27 20 14 11 8 6 4 4 4 4 2 1 1 0 0 0 0 0 0 0 0 0 0 0 0 0 0 0 0 0 0 0 0 0
59 62 63 61 53 44 38 33 29 24 19 14 11 7 4 2 2 3 3 3 2 1 1 0 0 0 0 0 0 0 0 0 0 0 0 0 0 0 0 0 0 0 0
58 59 61 59 53 45 37 30 24 20 17 15 12 8 4 1 1 2 3 3 3 2 1 0 0 0 0 0 0 0 0 0 0 0 0 0 0 0 0 0 0 0 0
54 56 58 56 50 44 37 29 23 18 16 15 14 12 7 2 1 1 2 3 3 3 2 1 0 0 0 0 0 0 0 0 0 0 0 0 0 0 0 0 0 0 0
51 55 56 51 43 39 36 30 24 19 15 14 14 13 9 3 0 0 1 2 3 4 3 2 0 0 0 0 0 0 0 0 0 0 0 0 0 0 0 0 0 0 0
51 54 53 45 38 37 36 31 24 19 16 14 14 14 10 3 0 0 0 1 3 3 3 2 1 0 0 0 0 0 0 0 0 0 0 0 0 0 0 0 0 0 0
49 50 48 40 36 37 37 32 26 21 18 16 15 13 9 4 1 0 0 1 2 3 3 2 1 0 0 0 0 0 0 0 0 0 0 0 0 0 0 0 0 0 0
47 48 44 37 35 36 37 34 28 22 18 15 13 11 8 5 2 0 1 1 2 3 3 1 0 0 0 0 0 0 0 0 0 0 0 0 0 0 0 0 0 0 0
48 46 40 35 33 35 35 32 27 21 16 13 10 9 8 6 2 1 1 1 1 2 2 1 0 0 0 0 0 0 0 0 0 0 0 0 0 0 0 0 0 0 0
45 42 38 34 34 34 32 29 23 17 12 11 10 9 7 4 2 1 1 1 0 1 1 0 0 0 0 0 0 0 0 0 0 0 0 0 0 0 0 0 0 0 0
38 37 35 34 35 35 33 28 21 14 10 10 10 8 5 3 2 1 0 0 0 0 0 0 0 0 0 0 0 0 0 0 0 0 0 0 0 0 0 0 0 0 0
33 32 33 34 36 37 35 30 22 15 11 10 9 7 5 4 4 3 2 2 2 1 1 1 0 0 0 0 0 0 0 0 0 0 0 0 0 0 0 0 0 0 0
33 32 32 35 38 38 35 30 24 17 13 11 10 7 5 5 5 5 5 4 4 3 2 1 0 0 0 0 0 0 0 0 0 0 0 0 0 0 0 0 0 0 0
37 36 34 34 37 38 34 30 24 18 14 12 10 8 6 6 6 6 6 5 4 3 2 1 0 0 0 0 0 0 0 0 0 0 0 0 0 0 0 0 0 0 0
40 40 38 36 37 37 35 31 26 20 17 15 12 9 7 7 6 6 6 5 4 3 1 0 0 0 0 0 0 0 0 0 0 0 0 0 0 0 0 0 0 0 0
42 42 42 40 39 39 37 32 26 21 19 17 13 9 7 7 6 6 6 6 6 5 3 1 1 0 0 0 0 0 0 0 0 0 0 0 0 0 0 0 0 0 0
43 43 43 44 43 42 39 32 25 21 19 16 12 9 7 7 6 6 6 6 6 6 4 4 3 2 0 0 0 0 0 0 0 0 0 0 0 0 0 0 0 0 0
42 41 40 43 45 44 40 33 26 22 19 16 11 8 7 7 6 6 6 6 6 6 6 6 5 3 1 0 0 0 0 0 0 0 0 0 0 0 0 0 0 0 0
41 39 38 41 43 44 42 35 28 24 21 16 11 9 8 7 7 7 7 7 7 7 7 6 6 4 2 1 0 0 0 0 0 0 0 0 0 0 0 0 0 0 0
40 41 39 38 37 38 39 35 29 25 20 14 11 10 8 7 8 8 8 8 8 8 8 7 6 5 4 2 1 0 0 0 0 0 0 0 0 0 0 0 0 0 0
39 40 37 32 30 31 34 32 27 23 18 12 9 8 7 7 7 7 7 7 8 9 9 8 7 6 4 2 1 0 0 0 0 0 0 0 0 0 0 0 0 0 0
34 33 30 26 24 25 27 26 22 19 15 11 9 7 6 5 6 6 6 7 7 7 8 9 8 5 3 1 0 0 0 0 0 0 0 0 0 0 0 0 0 0 0
25 25 25 21 18 20 22 20 16 13 10 8 7 6 5 4 4 5 6 6 6 6 7 7 6 4 1 0 0 0 0 0 0 0 0 0 0 0 0 0 0 0 0
21 22 21 17 14 15 17 16 13 9 7 6 6 5 4 3 3 4 5 6 6 5 5 5 5 3 1 0 0 0 0 0 0 0 0 0 0 0 0 0 0 0 0
21 20 17 13 11 12 14 14 11 8 7 6 5 4 3 3 3 3 4 5 4 4 4 4 5 4 2 1 0 0 0 0 0 0 0 0 0 0 0 0 0 0 0
19 17 13 9 9 11 13 12 9 7 6 6 5 4 3 3 2 3 4 4 4 3 3 4 4 4 3 1 0 0 0 0 0 0 0 0 0 0 0 0 0 0 0

GEFSMW_con_prob3kmehi_174.txt.gz
EHI
22 25 29 29 25 23 21 15 11 11 10 8 6 3 1 0 0 0 0 0 0 0 0 0 0 0 0 0 0 0 0 0 0 0 0 0 0 0 0 0 0 0 0
26 28 30 29 25 23 22 18 14 13 11 9 7 3 0 0 0 0 0 0 0 0 0 0 0 0 0 0 0 0 0 0 0 0 0 0 0 0 0 0 0 0 0
29 30 32 29 25 22 22 20 15 12 10 9 7 5 2 1 1 0 0 0 0 0 0 0 0 0 0 0 0 0 0 0 0 0 0 0 0 0 0 0 0 0 0
27 30 32 30 25 22 20 19 15 12 9 8 9 8 6 4 2 0 0 0 0 0 0 0 0 0 0 0 0 0 0 0 0 0 0 0 0 0 0 0 0 0 0
25 27 30 29 25 22 20 18 16 12 10 9 11 11 9 5 2 0 0 0 0 0 0 0 0 0 0 0 0 0 0 0 0 0 0 0 0 0 0 0 0 0 0
25 28 30 28 25 21 19 17 15 11 9 10 11 11 9 5 1 0 0 0 0 0 0 0 0 0 0 0 0 0 0 0 0 0 0 0 0 0 0 0 0 0 0
28 29 30 29 26 21 17 16 13 9 7 9 9 9 7 4 2 0 0 0 0 0 0 0 0 0 0 0 0 0 0 0 0 0 0 0 0 0 0 0 0 0 0
29 30 29 28 26 22 18 14 11 8 6 7 6 5 4 2 1 0 0 0 0 0 0 0 0 0 0 0 0 0 0 0 0 0 0 0 0 0 0 0 0 0 0
25 25 24 23 22 21 18 14 11 7 5 5 4 3 2 1 0 1 1 1 0 0 0 0 0 0 0 0 0 0 0 0 0 0 0 0 0 0 0 0 0 0 0
20 18 17 17 18 19 18 15 10 6 4 5 5 4 2 0 0 1 2 2 1 1 0 0 0 0 0 0 0 0 0 0 0 0 0 0 0 0 0 0 0 0 0
16 13 12 13 16 17 17 14 10 6 5 6 7 5 3 1 0 1 1 2 2 1 0 0 0 0 0 0 0 0 0 0 0 0 0 0 0 0 0 0 0 0 0
14 12 12 13 15 16 16 14 11 8 6 6 7 5 4 2 1 0 0 1 1 1 0 0 0 0 0 0 0 0 0 0 0 0 0 0 0 0 0 0 0 0 0
15 15 15 14 15 16 16 15 12 9 6 6 5 4 3 3 2 1 0 0 0 0 0 1 1 0 0 0 0 0 0 0 0 0 0 0 0 0 0 0 0 0 0
19 18 17 17 17 16 15 15 13 9 6 5 3 2 1 2 2 1 0 0 0 0 1 2 1 0 0 0 0 0 0 0 0 0 0 0 0 0 0 0 0 0 0
22 21 20 20 19 16 15 15 15 11 8 5 3 1 0 1 1 1 0 0 0 0 1 2 2 1 1 0 0 0 0 0 0 0 0 0 0 0 0 0 0 0 0
22 22 23 22 20 19 18 18 17 14 11 7 4 2 1 0 0 0 0 0 0 0 1 2 2 2 2 1 0 0 0 0 0 0 0 0 0 0 0 0 0 0 0
20 21 23 23 22 22 22 20 18 16 12 8 4 3 2 2 1 1 1 1 2 1 1 2 3 3 3 2 1 0 0 0 0 0 0 0 0 0 0 0 0 0 0
18 20 23 24 23 22 21 19 17 14 11 8 4 3 4 4 3 2 2 3 3 3 3 3 3 3 3 2 1 0 0 0 0 0 0 0 0 0 0 0 0 0 0
19 21 24 24 23 21 19 17 15 12 10 8 5 4 4 3 2 2 2 3 3 3 3 3 3 3 3 2 1 0 0 0 0 0 0 0 0 0 0 0 0 0 0
20 20 21 22 21 18 16 14 12 10 9 7 6 5 4 1 1 1 1 1 2 3 3 3 3 3 3 3 1 0 1 1 0 0 0 0 0 0 0 0 0 0 0
19 18 17 17 16 14 12 10 9 9 9 8 7 6 4 1 0 0 0 0 1 2 2 2 2 3 3 3 2 1 1 1 1 1 0 0 0 0 0 0 0 0 0
20 18 15 13 11 9 8 7 7 7 8 8 8 6 4 2 1 0 0 0 1 2 2 2 2 2 2 3 2 1 1 1 2 2 1 0 0 0 0 0 0 0 0
22 20 16 12 9 7 6 6 4 4 6 6 6 6 4 3 2 1 0 1 2 3 3 2 2 2 2 1 2 1 0 0 1 1 1 0 0 0 0 0 0 0 0
23 20 16 10 7 5 5 4 3 2 3 4 5 5 4 3 3 2 1 1 2 3 2 2 3 3 2 1 1 1 1 1 0 0 0 0 0 0 0 0 0 0 0
20 18 14 8 5 4 3 3 3 3 3 3 4 4 4 3 3 3 2 2 2 1 1 1 1 2 2 1 0 1 1 1 0 0 0 0 0 0 0 0 0 0 0
18 15 10 6 4 3 3 3 3 3 3 3 4 4 4 3 3 3 2 1 1 0 0 0 0 1 1 0 0 0 1 1 0 0 0 0 0 0 0 0 0 0 0

GEFSMW_con_prob3kmehi_180.txt.gz
EHI
25 30 33 33 35 39 41 39 35 32 28 21 13 9 8 8 7 4 1 0 0 0 0 0 0 0 0 0 0 0 0 0 0 0 0 0 0 0 0 0 0 0 0
28 31 34 36 39 42 43 41 37 34 29 23 16 11 9 8 6 3 1 0 0 0 0 0 0 0 0 0 0 0 0 0 0 0 0 0 0 0 0 0 0 0 1
30 31 33 37 41 43 41 38 36 33 28 24 17 13 11 9 6 3 1 0 0 0 0 0 0 0 0 0 0 0 0 0 0 0 0 0 0 0 0 0 0 0 1
30 31 33 37 38 36 35 36 34 31 26 21 16 13 12 8 5 3 2 1 1 1 0 0 0 0 0 0 0 0 0 0 1 1 1 0 0 0 0 0 0 0 1
31 33 35 37 35 30 31 35 35 31 26 21 18 15 11 8 6 5 4 2 2 2 1 0 1 0 0 0 1 1 1 1 2 2 3 1 0 1 1 1 0 0 0
31 33 36 37 34 30 29 31 33 31 27 22 20 18 14 11 10 9 8 6 4 4 2 2 4 3 2 2 2 2 2 3 4 5 5 4 3 4 3 2 0 0 1
27 31 35 37 35 31 28 27 29 29 26 23 22 22 20 17 14 13 11 8 6 4 2 3 5 6 5 3 3 3 3 4 6 6 6 6 6 7 6 3 1 0 1
23 27 31 32 32 31 28 26 26 26 25 23 22 24 23 19 16 13 10 8 6 3 2 2 2 4 4 4 3 3 3 4 5 5 5 6 7 8 7 5 3 1 1
23 25 26 25 26 28 28 25 25 26 25 23 22 22 21 18 14 10 7 6 5 3 2 2 1 2 3 4 4 3 3 4 5 5 5 5 7 8 8 7 6 3 2
25 27 27 24 22 24 25 23 24 26 25 21 19 19 18 16 12 9 7 6 5 5 4 4 4 4 6 7 7 5 4 5 5 5 4 4 6 8 7 6 6 5 4
27 30 32 30 26 25 25 24 26 25 22 18 16 15 14 13 10 8 6 6 6 6 5 4 5 7 8 9 9 7 5 5 4 3 2 2 3 5 5 4 5 6 5
30 34 38 38 35 32 30 28 28 25 22 19 17 14 11 9 7 5 4 4 6 6 5 4 4 6 7 9 10 9 6 5 5 3 1 0 1 3 4 3 4 6 6
37 42 47 46 42 39 37 34 30 28 26 23 20 15 11 8 6 4 4 5 6 7 5 4 3 4 5 7 9 9 8 7 6 5 3 2 2 3 3 3 3 4 4
44 49 52 51 47 45 43 38 33 30 28 25 22 19 16 12 9 7 8 9 8 6 4 3 3 3 4 5 7 8 10 10 8 6 5 4 3 3 2 2 2 2 3
45 48 51 51 50 49 47 40 34 32 30 27 24 22 21 17 13 12 13 13 9 4 2 2 3 3 3 3 4 6 8 8 6 5 5 4 3 2 1 1 0 1 2
43 45 48 49 50 50 46 40 36 33 32 30 28 26 24 20 17 14 13 12 9 6 4 4 4 4 3 2 1 2 4 4 5 5 5 4 3 2 1 0 0 0 1
43 44 45 47 48 45 42 39 37 34 32 30 28 26 24 21 18 15 12 9 9 9 7 6 5 4 3 2 0 0 1 3 4 5 4 3 3 3 2 1 1 0 0
43 42 43 45 44 42 39 38 35 31 28 28 26 22 20 19 18 15 11 8 8 8 6 4 4 4 3 1 0 0 1 3 4 4 4 3 3 3 3 3 2 1 1
43 43 43 46 46 43 41 38 34 29 27 26 24 20 18 18 20 17 12 10 8 6 4 3 2 2 2 1 0 0 2 5 5 4 3 3 3 3 3 3 3 3 2
43 44 45 48 49 47 43 39 35 29 26 24 23 21 20 20 20 17 13 10 9 7 5 4 2 1 1 1 1 0 2 4 5 5 4 4 3 2 2 2 3 3 3
42 42 44 48 49 47 43 40 35 28 24 22 22 23 22 20 18 15 12 10 9 7 5 4 3 2 3 2 1 0 1 3 4 4 4 4 2 1 0 1 2 2 2
40 41 45 47 46 43 41 38 32 25 20 20 21 22 21 18 15 12 10 8 7 5 3 3 3 3 3 3 2 0 0 1 2 3 2 1 1 0 0 0 1 1 1
38 38 41 43 39 36 34 32 27 21 18 17 18 18 17 15 13 11 8 6 4 4 3 3 3 3 3 3 2 1 0 0 1 1 1 0 0 0 0 0 0 0 0
30 29 32 33 32 29 27 25 22 19 17 16 16 16 13 11 10 9 6 4 3 3 3 3 3 3 3 3 3 2 1 1 1 1 0 0 0 0 0 0 0 0 0
22 21 24 27 27 25 22 21 18 16 16 15 15 15 12 9 7 6 4 3 3 3 2 3 3 3 3 3 2 2 2 1 1 1 0 0 0 0 0 0 0 0 0
19 18 22 25 25 22 19 18 16 15 15 14 15 15 12 8 6 4 3 2 2 2 1 2 3 3 3 2 1 1 1 1 1 1 0 0 0 0 0 0 0 0 0

GEFSMW_con_prob3kmehi_186.txt.gz
EHI
56 59 60 61 64 64 62 59 57 54 51 45 36 29 25 21 20 24 26 22 15 9 6 5 4 4 4 5 4 3 4 5 5 4 3 3 6 13 18 16 12 10 11
61 63 63 63 65 65 62 60 57 55 52 45 38 31 25 23 22 24 27 25 19 14 9 6 5 4 5 4 4 4 4 4 4 3 3 3 5 8 11 13 12 13 14
65 66 66 65 66 65 62 60 59 57 54 48 41 35 30 26 25 27 29 28 24 19 14 9 7 7 6 5 4 5 5 4 3 3 3 3 4 4 6 8 10 15 19
67 68 68 67 66 63 61 61 59 58 56 51 45 39 33 29 29 30 32 31 27 22 18 14 12 12 9 6 6 7 6 5 4 4 3 4 4 4 4 5 7 13 19
68 71 70 68 64 59 58 58 57 57 55 51 46 40 33 28 29 31 32 32 29 26 21 18 18 18 14 10 9 8 7 6 7 6 5 4 4 4 4 4 5 9 12
68 70 71 69 63 57 54 54 54 53 51 48 45 41 35 30 29 30 30 29 29 27 23 21 23 23 18 14 13 11 8 6 7 8 6 4 4 4 4 4 4 6 7
65 65 67 68 65 58 53 51 50 48 46 43 40 39 37 32 29 27 26 26 26 25 24 25 28 25 19 15 15 14 10 8 8 8 6 5 4 5 4 4 3 4 5
59 57 59 63 62 58 53 50 49 47 44 41 38 38 37 32 26 24 24 24 24 25 28 31 31 27 20 16 17 17 14 13 11 8 6 6 5 5 5 4 3 3 3
48 48 49 51 54 55 53 51 51 50 46 41 37 36 35 30 25 23 22 22 22 24 29 32 30 28 24 21 20 20 18 17 14 9 7 7 6 6 5 4 3 1 1
39 41 41 43 47 50 52 52 52 52 48 41 37 35 34 32 27 23 21 19 19 21 25 26 26 26 26 24 23 21 18 15 14 11 10 9 8 6 6 6 3 1 1
41 41 42 45 47 49 52 54 54 53 49 44 40 37 36 33 30 26 22 20 21 22 23 23 21 21 21 21 22 19 14 12 14 14 13 11 9 7 9 9 7 5 6
47 48 50 54 54 51 53 57 56 53 50 47 45 42 39 37 34 29 24 22 24 25 24 23 20 16 14 16 18 15 11 11 15 16 14 11 9 9 11 11 11 10 9
56 57 59 62 61 59 59 60 57 52 48 47 46 44 41 39 37 32 26 23 25 25 23 22 19 15 13 14 13 11 10 11 12 14 13 12 11 12 11 10 10 9 7
64 63 63 65 67 66 63 60 56 51 47 46 45 43 41 39 37 34 31 27 26 25 21 19 17 16 14 12 9 8 8 9 9 11 12 11 11 11 9 7 7 6 4
64 63 62 64 67 67 64 58 53 50 49 46 44 43 41 39 37 36 35 32 29 25 20 17 14 13 11 7 5 5 5 7 8 9 10 8 7 7 5 5 5 4 4
62 59 58 60 62 63 60 55 51 50 49 48 45 44 42 40 39 39 36 32 28 25 22 17 13 9 5 2 1 2 3 4 6 7 7 5 3 3 3 3 3 3 3
64 61 58 58 58 58 56 52 50 49 50 50 47 45 44 43 42 41 37 33 28 26 23 19 14 8 4 1 0 1 2 3 4 5 5 3 1 1 2 2 2 2 2
66 63 60 58 58 57 54 52 50 49 49 49 47 45 44 43 43 43 41 36 30 26 23 20 15 9 5 2 0 1 3 3 3 4 4 2 1 1 2 3 4 3 3
64 62 59 58 58 58 55 53 51 48 46 45 45 45 43 41 42 43 42 37 30 26 23 19 15 11 6 3 1 1 3 3 3 3 3 3 2 2 2 3 4 5 5
61 59 56 56 59 59 57 55 50 45 42 41 42 42 41 39 39 39 39 35 30 25 22 18 15 11 7 3 1 1 3 3 3 3 3 3 3 2 1 1 3 4 4
58 57 55 56 58 60 58 54 49 44 41 39 38 37 36 34 32 34 35 33 28 24 20 16 13 10 6 3 2 1 2 3 3 3 3 3 3 1 0 1 2 2 2
57 56 55 55 57 58 57 53 48 45 42 38 36 33 29 25 25 29 31 29 25 23 19 14 10 7 4 3 3 1 1 2 3 3 3 3 2 1 0 0 1 1 1
56 54 51 50 52 53 52 50 47 45 42 39 36 31 25 22 21 24 25 23 20 18 15 11 7 5 3 3 3 2 1 1 2 3 3 2 1 0 0 0 0 0 0
50 49 46 44 45 46 46 45 43 42 40 38 35 30 26 22 19 18 16 15 13 11 10 7 5 4 3 3 3 2 2 1 1 2 2 2 1 0 0 0 0 0 0
41 41 40 39 39 38 38 38 37 37 34 32 30 29 27 22 16 12 9 7 6 5 5 4 3 2 2 2 1 1 1 1 2 2 3 3 2 1 1 0 0 0 0
37 36 36 35 34 33 33 33 32 32 29 27 27 27 26 21 14 9 6 4 3 2 2 2 1 1 1 1 0 0 0 1 1 2 3 3 3 2 2 1 0 0 0

GEFSMW_con_prob3kmehi_192.txt.gz
EHI
46 49 52 51 47 44 39 33 29 22 16 11 6 3 2 1 1 2 3 3 3 2 1 0 0 0 0 0 0 0 0 0 0 0 0 0 0 0 1 0 0 0 0
45 49 54 55 53 48 42 35 30 25 20 14 7 4 3 2 1 1 2 3 3 2 2 1 1 1 0 0 0 0 0 0 0 0 0 0 0 0 1 0 0 0 0
44 49 55 59 58 53 48 40 33 28 23 16 9 5 3 3 2 2 2 2 3 3 2 2 2 1 0 0 0 0 0 0 0 0 0 0 0 0 0 0 0 0 0
43 47 52 56 57 55 51 46 39 32 25 18 10 5 3 3 3 3 2 2 2 2 3 3 3 2 0 0 0 0 0 0 0 0 0 0 0 0 0 0 0 0 0
43 44 46 48 50 51 49 47 43 36 30 23 13 6 5 3 3 3 4 3 2 3 4 4 4 2 1 0 0 0 0 0 0 0 0 0 0 0 0 0 0 0 0
42 41 40 41 43 45 46 46 44 38 32 26 17 11 9 7 5 5 6 5 4 4 5 6 4 2 1 1 1 1 0 0 0 0 0 0 0 0 0 0 0 0 0
41 38 37 37 41 43 44 43 41 36 29 25 21 16 14 13 10 8 7 5 3 3 4 5 3 1 1 1 2 2 1 0 0 0 0 0 0 0 0 0 0 0 0
39 36 34 35 39 43 44 41 39 34 28 25 23 20 19 16 12 9 7 5 2 2 4 5 3 1 1 1 2 2 1 0 0 0 0 0 1 1 1 1 1 1 1
36 34 32 32 35 39 41 40 38 35 29 25 23 21 19 16 11 8 7 6 4 3 5 6 5 3 2 1 1 1 1 0 0 0 0 1 2 2 2 2 2 2 2
33 32 31 31 32 35 37 38 37 34 29 24 21 19 17 14 11 8 7 6 4 3 4 6 5 3 2 1 0 0 0 0 0 0 0 1 3 3 3 3 3 3 3
31 33 34 35 34 35 37 36 36 33 29 25 20 17 15 13 10 9 7 6 5 4 5 5 4 3 1 1 0 1 2 1 1 1 1 2 3 3 3 3 3 2 2
31 34 38 41 40 38 37 36 34 31 28 26 21 17 15 13 11 9 8 7 6 5 5 5 4 3 2 2 2 2 3 3 2 2 3 3 3 3 3 2 1 1 1
34 37 41 42 41 37 35 36 35 31 28 26 23 19 16 14 12 10 8 7 6 5 5 5 4 4 3 3 3 3 3 3 3 3 3 3 3 2 1 1 0 0 0
41 42 42 42 41 38 36 36 35 32 29 27 25 21 17 14 13 11 9 7 5 4 5 5 5 4 3 3 4 4 4 3 3 3 3 3 2 1 0 0 0 0 0
46 47 47 44 44 43 40 37 35 32 29 26 24 20 16 13 11 10 9 7 6 5 5 6 5 4 3 3 3 4 3 3 3 3 2 1 1 0 0 0 0 0 0
45 47 49 49 49 48 44 40 35 32 29 26 21 17 15 12 8 7 6 6 5 5 5 6 4 3 3 3 3 3 3 2 2 1 1 0 0 0 0 0 0 0 0
45 47 49 49 49 49 46 41 34 30 28 25 20 16 14 12 8 6 5 4 4 5 6 6 4 3 3 3 3 2 1 1 1 0 0 0 0 0 0 0 0 0 0
46 47 48 47 46 46 45 41 33 27 26 25 21 17 14 13 12 9 6 4 5 4 5 5 4 3 3 3 3 1 0 0 0 0 0 0 0 0 0 0 0 0 0
46 46 47 46 44 42 42 39 34 28 26 25 22 16 13 12 12 10 7 5 5 4 4 4 4 4 4 4 3 1 0 0 0 0 0 0 0 0 0 0 0 0 0
46 46 46 46 43 39 38 37 34 29 26 24 19 14 11 9 9 8 6 5 5 4 4 4 5 5 5 5 3 1 0 0 0 1 1 1 0 0 0 0 0 0 0
48 47 47 45 42 37 35 34 31 27 25 21 17 12 11 10 8 7 6 5 5 5 5 4 5 5 4 3 2 0 0 0 1 1 1 1 0 0 0 0 0 0 0
48 47 46 44 40 36 33 31 28 25 23 20 17 15 14 13 11 9 6 4 4 5 5 4 4 3 1 1 0 0 0 0 1 1 1 1 0 0 0 0 0 0 0
45 43 42 40 36 32 30 28 26 24 22 19 17 16 16 14 12 9 7 4 3 3 4 3 1 1 0 0 0 0 0 0 0 0 0 0 0 0 0 0 0 0 0
38 36 34 33 30 26 25 25 24 22 19 17 14 14 14 12 8 6 5 4 3 4 3 1 0 0 0 0 0 0 0 0 0 0 0 0 0 0 0 0 0 0 0
28 27 25 23 22 21 21 20 18 17 15 13 12 12 10 8 4 2 2 2 2 4 3 1 0 0 0 0 0 0 0 0 0 0 0 0 0 0 0 0 0 0 0
20 20 19 18 18 19 18 16 14 12 12 11 11 10 8 5 2 1 0 0 1 2 2 1 0 0 0 0 0 0 0 0 0 0 0 0 0 0 0 0 0 0 0

GEFSMW_con_prob3kmehi_198.txt.gz
EHI
6 7 7 6 6 7 7 6 4 4 4 4 3 2 1 0 1 2 1 0 0 0 0 0 0 0 0 0 0 0 0 0 0 0 0 0 0 0 0 0 0 0 0
7 8 8 8 8 7 6 6 5 4 4 4 3 2 0 0 1 2 2 0 0 0 0 0 0 0 0 0 0 0 0 0 0 0 0 0 0 0 0 0 0 0 0
9 8 9 11 12 9 7 7 7 6 5 5 4 2 1 0 1 1 1 0 0 0 0 0 0 0 0 0 0 0 0 0 0 0 0 0 0 0 0 0 0 0 0
10 9 10 12 13 13 11 9 9 8 7 6 5 3 2 1 0 0 0 0 0 0 0 0 0 0 0 0 0 0 0 0 0 0 0 0 0 0 0 0 0 0 0
11 11 11 12 13 15 15 13 12 11 11 9 6 4 2 1 0 0 0 0 0 0 0 0 0 0 0 0 0 0 0 0 0 0 0 0 0 0 0 0 0 0 0
10 12 14 14 16 20 20 17 16 15 13 11 7 4 3 1 0 0 0 0 0 0 0 0 0 0 0 0 0 0 0 0 0 0 0 0 0 0 0 0 0 0 0
9 13 17 18 21 24 24 22 20 17 13 10 7 5 2 1 1 1 1 1 1 0 0 0 0 0 0 0 0 0 0 0 0 0 0 0 0 0 0 0 0 0 0
11 14 17 19 21 24 26 25 21 16 11 8 7 5 3 3 3 3 2 2 1 0 0 0 0 0 0 0 0 0 0 0 0 0 0 0 0 0 0 0 0 0 0
12 14 16 16 18 21 25 24 20 15 10 8 7 6 6 5 5 4 3 2 1 0 0 0 0 0 0 0 1 0 0 0 0 0 0 0 0 0 0 0 0 0 0
12 13 13 12 14 18 22 21 18 15 12 9 8 7 7 5 4 3 2 1 0 0 0 0 0 0 0 0 0 0 0 0 0 0 0 0 0 0 0 0 0 0 0
13 12 10 10 11 15 18 17 16 15 12 9 8 8 6 3 2 1 1 0 0 0 0 0 0 1 0 0 0 0 0 0 0 0 0 0 0 0 0 0 0 0 0
13 11 10 11 13 15 16 14 13 12 10 9 8 7 5 3 2 1 1 1 1 0 0 0 0 0 0 0 0 0 0 0 0 0 0 0 0 0 0 0 0 0 0
13 12 12 14 15 16 15 14 12 11 9 8 7 6 5 3 2 1 1 1 1 0 0 0 0 0 0 0 0 0 0 0 0 0 0 0 0 0 0 0 0 0 0
15 14 13 14 13 14 16 16 13 11 9 9 7 6 4 2 1 0 0 1 1 0 0 0 0 0 0 0 0 0 0 0 0 0 0 0 0 0 0 0 0 0 0
19 16 15 14 13 13 16 18 15 11 10 9 8 6 3 1 1 0 0 1 1 1 0 0 0 0 0 0 0 0 0 0 0 0 0 0 0 0 0 0 0 0 0
21 18 16 16 15 15 17 19 17 13 11 11 9 6 3 2 2 1 1 1 2 1 0 0 0 0 0 0 0 0 0 0 0 0 0 0 0 0 0 0 0 0 0
17 16 16 17 17 17 19 19 17 14 12 12 10 7 5 3 2 2 2 2 1 1 0 1 1 1 0 0 0 0 0 0 0 0 0 0 0 0 0 0 0 0 0
13 13 15 16 17 19 20 20 17 14 13 12 12 9 5 3 2 1 1 1 1 0 0 1 2 1 0 0 0 0 0 0 0 0 0 0 0 0 0 0 0 0 0
12 14 17 19 20 21 22 20 17 15 13 12 11 9 5 3 3 2 1 0 0 0 0 0 1 1 0 0 0 0 0 0 0 0 0 0 0 0 0 0 0 0 0
16 18 20 22 23 24 24 22 18 16 13 11 10 8 5 3 3 3 2 1 0 0 0 0 1 2 1 0 0 0 0 0 0 0 1 0 0 0 0 0 0 0 0
20 22 24 24 23 23 24 23 20 17 14 11 10 7 4 3 3 3 3 2 1 0 0 1 2 2 1 0 0 0 0 0 0 0 0 0 0 0 0 0 0 0 0
22 24 26 24 22 23 23 22 19 16 13 10 8 5 4 3 4 4 4 3 1 0 0 1 2 1 1 0 0 0 0 0 0 0 0 0 0 0 0 0 0 0 0
20 23 24 23 21 22 22 19 15 12 10 8 5 4 3 4 4 5 6 5 2 0 0 1 1 0 0 0 0 0 0 0 0 0 0 0 0 0 0 0 0 0 0
16 18 20 20 19 20 18 15 11 9 7 6 4 3 3 4 5 6 6 5 3 1 0 0 0 0 0 0 0 0 0 0 0 0 0 0 0 0 0 0 0 0 0
14 14 15 16 16 16 15 12 10 8 6 5 4 3 4 5 5 5 3 2 1 0 0 0 0 0 0 0 0 0 0 0 0 0 0 0 0 0 0 0 0 0 0
14 12 13 13 12 14 14 12 10 8 7 6 5 4 4 5 5 3 1 0 0 0 0 0 0 0 0 0 0 0 0 0 0 0 0 0 0 0 0 0 0 0 0

GEFSMW_con_prob3kmehi_204.txt.gz
EHI
11 11 11 12 17 23 25 25 25 24 18 12 9 6 3 2 1 0 1 3 4 4 3 2 2 1 1 1 1 1 0 0 0 0 0 0 0 1 1 1 0 0 0
11 13 14 16 20 25 27 28 29 27 22 14 9 6 4 2 0 0 1 2 4 4 4 4 4 3 3 2 2 2 1 0 0 0 0 0 1 2 1 0 1 1 1
10 13 16 19 24 27 27 28 32 32 27 18 11 9 7 3 2 2 1 1 2 3 3 4 6 5 4 3 3 3 3 1 1 0 0 0 1 2 2 1 2 3 3
7 9 14 18 22 24 25 29 33 34 31 24 18 16 12 7 5 3 2 1 1 2 3 4 6 6 4 3 3 4 4 3 2 1 1 0 0 1 2 2 3 3 2
5 7 11 15 18 20 24 30 34 35 33 28 25 23 19 13 9 6 4 3 3 2 3 4 5 6 4 3 4 4 4 3 2 2 2 2 1 0 1 1 1 1 0
8 9 12 15 16 17 22 29 34 36 33 30 28 28 24 18 14 10 6 5 5 4 4 4 6 6 6 5 5 4 4 4 4 3 4 4 3 2 1 0 0 0 0
12 12 15 19 19 19 21 26 32 34 32 29 28 28 26 21 17 13 10 7 5 5 4 4 6 6 7 6 6 5 5 6 6 5 5 5 3 3 2 1 0 0 0
15 15 19 22 22 22 22 25 29 30 29 28 27 28 26 21 17 16 13 10 7 5 5 4 4 4 4 5 5 5 5 6 6 5 4 4 3 2 3 4 3 1 0
17 18 22 24 24 24 24 24 26 29 27 26 26 27 25 21 18 17 16 12 8 6 6 4 2 2 3 4 6 6 5 6 7 6 6 5 5 3 3 5 5 3 1
21 23 26 26 25 25 24 23 26 28 26 25 25 24 23 21 20 19 17 13 10 9 8 7 5 5 6 7 8 7 5 6 7 7 6 5 5 6 5 4 6 6 5
28 30 33 31 28 27 26 25 26 26 25 25 24 22 20 20 21 19 16 13 11 11 10 9 8 8 9 11 10 7 4 3 4 5 3 2 4 6 7 6 7 8 8
36 40 42 38 31 29 28 26 24 23 23 24 24 21 19 20 20 18 14 11 10 10 9 8 9 9 11 11 9 5 2 2 2 2 2 1 3 8 11 10 8 7 8
45 47 48 44 36 32 30 25 21 21 21 23 24 22 22 23 21 17 13 10 8 8 8 8 8 9 9 8 5 3 2 2 3 4 3 2 5 9 12 11 8 6 5
52 51 52 50 44 39 35 30 24 21 22 24 25 25 25 24 20 16 14 11 9 10 10 9 9 8 8 5 2 2 2 3 4 5 4 4 5 8 9 9 8 7 5
56 55 54 54 52 47 43 37 30 26 25 26 26 26 26 24 20 17 16 14 13 14 13 11 9 7 6 3 1 1 1 3 4 5 5 5 5 5 5 5 6 6 5
58 57 54 53 52 51 47 41 36 32 30 29 28 27 27 24 21 20 20 18 18 19 16 11 7 5 3 1 0 0 1 2 4 4 4 4 5 4 3 2 2 3 3
56 54 51 48 48 48 46 41 37 35 33 32 31 30 28 26 25 25 24 24 23 22 19 12 7 4 2 1 1 0 0 2 3 4 4 5 6 6 4 2 1 1 1
48 47 46 44 42 42 43 40 36 34 35 35 33 30 28 26 27 28 27 26 26 24 21 15 10 6 3 2 1 0 1 3 4 5 7 8 7 6 5 3 2 2 1
42 41 40 38 37 38 41 40 37 36 37 35 32 29 25 23 25 28 28 26 25 24 21 18 13 7 3 1 0 1 2 4 5 7 8 8 6 4 2 1 1 2 2
39 39 39 38 39 41 43 43 41 39 38 35 31 28 26 24 25 27 26 24 23 21 18 16 12 7 2 0 0 1 3 5 6 7 7 5 3 2 1 0 0 1 1
37 39 41 43 44 46 47 48 44 39 35 33 31 30 29 27 26 27 25 23 20 18 16 14 11 6 3 1 1 1 2 5 6 5 4 3 1 1 0 0 0 0 0
38 40 43 45 46 46 47 46 41 34 31 31 30 30 30 30 27 26 23 20 18 17 16 14 10 7 4 3 1 1 1 2 4 4 3 2 1 0 0 0 0 0 0
39 39 40 41 40 39 39 38 33 30 29 28 29 28 28 28 26 23 20 17 16 16 16 14 10 7 5 3 2 1 0 0 1 2 2 1 0 0 0 0 0 0 0
36 35 35 35 33 32 31 31 30 29 29 28 28 27 24 22 21 18 15 13 13 13 13 12 10 6 4 3 3 2 1 1 0 1 1 0 0 0 0 0 0 0 0
31 31 30 30 28 27 27 27 29 29 29 29 27 23 18 15 15 13 11 11 10 9 9 9 8 5 3 3 2 2 2 1 0 0 0 0 0 0 0 0 0 0 0
29 29 29 28 26 26 25 26 27 29 29 27 24 17 13 12 12 10 10 10 9 7 6 7 5 4 3 2 1 1 1 1 0 0 0 0 0 0 0 0 0 0 0

GEFSMW_con_prob3kmehi_210.txt.gz
EHI
39 35 30 30 38 47 48 45 43 39 36 35 35 34 29 27 27 28 27 27 28 23 16 12 12 12 13 13 11 9 6 5 4 3 2 3 7 10 8 5 5 6 7
47 42 36 35 41 48 49 48 47 43 38 36 34 32 29 28 28 29 28 26 25 22 16 12 10 10 12 13 13 10 7 6 5 3 1 2 4 5 4 4 6 7 7
52 48 42 40 44 49 50 51 52 47 40 35 31 29 28 27 28 30 29 24 20 19 17 15 11 9 11 13 13 11 7 6 5 4 2 1 1 1 1 3 5 6 7
51 49 44 42 44 47 51 55 55 50 41 33 28 27 26 26 26 27 27 25 20 19 21 22 18 13 12 12 12 9 6 6 5 4 3 3 1 1 1 1 2 4 6
47 47 45 42 41 43 50 56 58 53 43 35 30 28 27 26 25 24 26 27 25 23 23 25 25 20 15 13 12 10 9 9 8 5 4 3 2 2 2 1 1 3 3
43 45 46 44 40 41 49 55 58 57 49 40 35 31 28 25 24 24 26 28 27 24 23 26 27 23 18 15 14 12 13 14 12 8 6 5 5 5 3 1 1 2 2
40 44 48 47 42 42 48 55 59 58 50 42 38 34 30 27 26 26 27 27 25 22 22 23 23 20 16 15 14 13 15 17 15 11 8 9 10 8 4 1 1 1 2
41 42 47 50 48 47 51 57 62 61 51 43 41 37 34 32 31 29 27 25 21 19 20 19 17 13 10 9 11 14 16 19 18 13 10 12 13 10 6 3 1 0 1
41 42 48 53 54 54 56 60 65 63 53 46 43 39 37 36 35 32 30 26 21 18 18 17 15 11 7 6 9 13 17 20 19 14 11 11 11 9 6 4 3 2 1
41 44 51 56 59 60 62 64 66 63 55 49 45 41 39 38 37 34 32 29 23 18 16 17 16 12 8 9 10 13 16 17 16 13 9 8 7 6 6 6 7 6 4
40 46 53 58 60 63 65 66 66 62 56 51 49 46 42 39 37 37 35 31 24 18 16 17 17 13 10 9 10 10 10 9 8 7 7 6 6 6 6 6 7 6 4
42 48 55 57 59 61 63 65 64 60 57 55 54 51 46 42 39 38 34 30 24 18 16 16 16 14 10 8 8 8 7 5 2 3 4 4 5 7 7 6 6 4 3
52 57 60 60 59 59 60 61 60 57 56 56 55 52 49 45 40 35 30 28 24 18 16 17 17 17 14 10 9 9 9 6 3 2 3 3 4 6 7 5 4 3 2
64 66 69 69 66 63 61 59 57 56 56 55 54 52 49 44 38 32 28 26 24 21 19 19 20 19 16 13 10 10 9 9 6 4 5 4 3 4 5 3 2 2 2
67 70 74 75 70 65 62 61 60 60 59 55 52 50 46 40 34 31 29 28 27 26 24 23 22 19 15 12 9 8 9 10 8 5 5 4 3 3 3 2 1 1 2
63 69 74 73 69 65 62 61 61 62 59 53 48 46 43 38 34 32 32 32 31 30 28 27 23 18 11 7 5 6 8 9 6 3 2 2 2 2 3 2 1 1 2
60 65 68 68 66 64 61 59 58 59 56 52 47 44 42 40 36 34 35 36 35 34 31 29 25 18 10 3 1 3 6 6 4 1 1 0 1 1 2 3 2 1 1
59 60 60 61 61 61 58 55 54 54 54 52 48 45 44 42 39 37 37 38 38 36 34 29 25 18 9 2 0 1 3 4 3 2 1 0 0 0 1 3 3 3 3
59 56 54 55 57 56 54 52 49 49 50 49 47 46 45 43 41 39 38 38 37 36 32 27 23 18 10 3 0 1 2 3 3 3 1 1 1 0 1 2 3 4 5
57 54 51 53 55 54 52 50 46 44 43 43 45 47 46 43 41 39 37 35 34 32 28 24 21 17 11 4 1 1 2 3 4 4 3 2 1 0 0 2 3 4 4
54 51 50 51 52 52 53 52 46 40 38 40 43 46 45 41 37 36 35 32 30 28 26 23 19 16 11 6 3 1 2 4 5 5 4 3 1 0 0 1 2 2 2
50 49 48 48 49 51 53 51 46 39 36 37 39 40 39 36 33 32 30 28 26 25 24 22 19 15 11 7 4 1 1 3 4 4 3 2 1 0 0 0 1 1 1
45 45 46 48 49 51 52 48 43 39 37 34 33 33 33 33 31 28 26 24 23 21 20 20 18 16 12 8 5 2 0 1 2 2 2 1 1 0 0 0 0 0 0
42 42 44 47 48 48 46 42 38 37 35 31 28 28 31 31 28 25 23 21 18 16 16 17 17 16 13 9 5 3 2 1 1 1 1 1 0 0 0 0 0 0 0
42 42 42 43 45 43 39 35 33 32 31 28 26 26 29 30 26 22 18 15 13 12 13 14 14 14 12 8 5 4 3 3 3 2 2 2 1 0 0 0 0 0 0
42 41 41 41 41 40 36 32 31 30 29 27 26 26 28 28 25 19 14 10 9 10 11 12 12 11 9 6 4 3 3 4 4 3 3 3 2 1 0 0 0 0 0

GEFSMW_con_prob3kmehi_216.txt.gz
EHI
18 23 30 35 36 33 29 25 20 16 13 8 4 2 2 3 3 3 3 3 3 3 3 2 1 0 0 0 0 0 0 0 0 0 0 0 0 0 0 0 0 0 0
21 26 32 35 35 33 32 29 25 23 18 12 7 3 3 3 3 3 3 3 3 3 3 2 1 0 0 0 0 0 0 0 0 0 0 0 0 0 0 0 0 0 0
24 28 34 37 36 36 34 31 29 27 23 18 13 8 6 5 4 3 3 3 3 3 3 2 0 0 0 0 0 0 0 1 0 0 0 0 0 0 0 0 0 0 0
26 29 35 38 39 38 35 30 27 26 25 22 17 12 10 8 6 4 3 3 3 3 3 2 1 0 0 0 0 0 0 0 0 0 0 0 0 0 0 0 0 0 0
28 31 35 39 40 39 36 30 26 25 25 23 18 14 11 9 8 5 4 3 3 3 4 4 2 1 0 0 0 0 0 0 0 0 0 0 0 0 0 0 0 0 0
32 33 36 38 39 38 36 33 30 28 27 23 19 15 12 10 9 8 5 4 3 3 4 4 3 2 1 0 0 0 0 0 0 0 0 0 0 0 0 0 0 0 0
35 35 35 37 38 37 37 37 33 29 26 22 19 16 14 13 12 10 6 4 3 3 4 4 3 3 2 1 0 0 0 0 0 0 0 0 0 0 0 0 0 0 0
34 33 32 33 35 37 38 37 33 28 24 21 19 17 16 16 14 11 8 6 4 4 3 3 3 3 3 1 0 0 0 0 0 0 0 0 0 0 0 0 0 0 0
32 29 26 27 31 35 36 34 32 27 22 20 19 18 17 15 13 12 10 8 6 5 4 3 1 1 2 1 0 0 0 0 0 0 0 0 0 0 0 0 0 0 0
29 27 24 25 30 33 34 33 32 26 20 18 18 16 15 14 11 11 10 8 6 6 4 3 1 1 2 2 1 0 0 0 0 0 0 0 0 0 0 0 0 0 0
29 28 26 27 30 34 36 35 34 29 23 19 16 14 13 12 11 11 10 8 7 6 4 3 2 2 2 2 1 0 0 0 0 0 0 0 0 0 0 0 0 0 0
32 31 30 30 32 36 37 37 36 33 29 24 19 16 14 13 12 11 10 9 7 5 4 3 3 2 1 1 0 0 0 0 0 0 0 0 0 0 0 0 0 0 0
34 33 33 34 36 37 39 38 35 33 32 29 25 20 16 14 12 11 10 9 8 5 3 4 4 2 0 0 0 0 0 0 0 0 0 0 0 0 0 0 0 0 0
33 33 35 38 39 39 40 39 34 31 30 30 28 23 17 12 10 9 9 9 8 5 3 3 3 2 0 0 0 0 0 0 0 0 0 0 0 0 0 0 0 0 0
32 33 36 38 38 39 39 38 33 28 26 26 26 21 13 9 8 8 8 8 7 6 4 2 1 1 1 0 0 0 0 0 0 0 0 0 0 0 0 0 0 0 0
29 33 37 38 38 37 36 36 32 27 23 22 19 15 9 7 7 9 10 9 7 6 5 2 1 2 1 0 0 0 0 0 0 0 0 0 0 0 0 0 0 0 0
27 31 35 38 39 39 37 35 32 27 23 19 15 12 9 8 9 11 12 12 9 7 6 4 3 2 1 0 0 0 0 0 0 0 0 0 0 0 0 0 0 0 0
28 29 31 34 39 40 38 36 33 28 24 19 16 14 12 11 11 12 14 13 11 9 8 6 4 3 1 0 0 0 0 0 0 0 0 0 0 0 0 0 0 0 0
27 26 25 29 35 36 35 35 33 30 26 24 21 19 17 14 13 12 13 13 12 11 10 7 6 4 2 1 0 0 0 0 0 0 0 0 0 0 0 0 0 0 0
22 20 21 25 30 32 32 33 33 31 30 29 27 23 20 17 15 13 12 11 10 10 9 8 6 4 3 2 1 0 0 0 0 0 0 0 0 0 0 0 0 0 0
14 15 17 21 26 29 32 33 34 33 33 32 29 25 20 16 14 12 11 9 8 8 9 8 5 3 3 3 1 0 0 0 1 1 1 0 0 0 0 0 0 0 0
9 11 14 16 21 26 31 33 33 33 33 31 27 23 18 14 12 10 9 7 7 7 8 7 5 3 3 3 2 1 0 0 1 2 2 1 0 0 0 0 0 0 0
9 10 12 14 17 22 27 28 27 28 27 25 23 21 19 16 12 9 7 6 6 7 7 6 4 4 4 4 3 1 0 0 1 2 2 1 0 0 0 0 0 0 0
11 10 10 11 14 18 20 20 19 20 21 21 21 22 21 19 14 9 7 5 5 5 5 5 5 5 6 5 4 2 1 0 0 1 1 0 0 0 0 0 0 0 0
11 9 8 9 11 15 15 13 13 16 18 20 21 22 22 20 15 10 6 4 3 2 3 4 5 6 6 5 3 2 1 0 0 0 0 0 0 0 0 0 0 0 0
8 8 8 9 11 13 12 10 11 14 17 20 21 22 22 20 15 10 5 2 1 1 1 3 5 6 6 5 2 1 0 0 0 0 0 0 0 0 0 0 0 0 0

GEFSMW_con_prob3kmehi_222.txt.gz
EHI
0 1 2 2 1 2 4 5 6 5 4 4 3 1 0 0 0 0 0 1 2 3 2 1 0 0 0 0 0 0 0 0 0 0 0 0 0 0 0 0 0 0 0
0 1 2 3 4 6 7 7 7 7 6 5 3 2 0 0 0 0 0 1 2 3 2 1 0 0 0 0 0 0 0 0 0 0 0 0 0 0 0 0 0 0 0
1 1 3 6 9 10 9 9 9 9 8 6 5 3 1 1 2 1 1 1 3 3 2 1 0 0 0 0 0 0 0 0 0 0 0 0 0 0 0 0 0 0 0
3 2 4 9 12 12 11 11 11 10 8 6 5 4 3 3 3 3 2 3 3 3 3 1 0 0 0 0 0 0 0 0 0 0 0 0 0 0 0 0 0 0 0
5 4 5 10 12 13 13 15 14 12 9 6 5 5 4 3 3 3 3 3 3 3 3 2 1 0 0 0 0 0 0 0 0 0 0 0 0 0 0 0 0 0 0
5 5 6 10 12 14 16 18 17 14 11 8 6 6 5 5 4 4 3 3 3 3 3 3 1 1 0 0 0 0 0 0 0 0 0 0 0 0 0 0 0 0 0
5 5 8 11 14 16 17 17 16 13 11 9 7 7 7 7 6 5 4 3 3 3 3 3 3 2 1 0 0 0 0 0 0 0 0 0 0 0 0 0 0 0 0
9 9 9 12 15 17 18 16 13 10 8 7 7 7 7 7 6 4 3 3 3 3 2 2 2 2 2 1 0 0 0 0 0 0 0 0 0 0 0 0 0 0 0
14 12 11 11 14 16 17 15 12 9 6 6 6 6 6 7 6 4 4 4 3 3 2 2 1 1 2 1 0 0 0 0 0 0 0 0 0 0 0 0 0 0 0
14 13 12 11 12 13 13 13 11 8 6 5 5 5 6 7 7 6 6 5 4 3 3 2 0 0 1 1 0 0 0 0 0 0 0 0 0 0 0 0 0 0 0
11 12 11 11 10 10 9 10 10 8 7 6 4 4 6 7 8 7 7 5 4 3 3 2 0 0 0 0 0 0 0 0 0 0 0 0 0 0 0 0 0 0 0
9 10 11 11 11 11 9 10 11 10 9 7 4 3 4 5 6 6 4 3 3 3 3 2 1 0 0 0 0 0 0 0 0 0 0 0 0 0 0 0 0 0 0
11 10 11 12 14 14 13 14 14 11 9 7 4 2 1 1 2 3 2 1 2 2 2 2 1 0 0 0 0 0 0 0 0 0 0 0 0 0 0 0 0 0 0
13 13 12 13 15 14 14 15 14 12 9 8 4 2 0 0 1 1 1 0 1 1 1 1 0 0 0 0 0 0 0 0 0 0 0 0 0 0 0 0 0 0 0
15 14 13 12 13 14 14 15 15 12 10 8 6 3 1 0 0 0 0 0 0 0 1 1 1 0 0 0 0 0 0 0 0 0 0 0 0 0 0 0 0 0 0
16 15 13 11 12 13 16 17 16 13 11 10 8 6 3 1 0 0 1 1 0 0 1 1 1 0 0 0 0 0 0 0 0 0 0 0 0 0 0 0 0 0 0
16 14 12 10 10 13 17 18 17 14 13 12 12 10 7 4 2 1 2 1 0 0 0 1 1 0 0 0 0 0 0 0 0 0 0 0 0 0 0 0 0 0 0
13 11 9 7 8 11 16 18 18 15 14 15 16 14 11 8 5 4 2 1 0 0 0 0 0 0 0 0 0 0 0 0 0 0 0 0 0 0 0 0 0 0 0
11 8 6 4 5 8 13 17 18 17 15 16 17 16 14 11 9 7 4 2 1 0 0 0 0 0 0 0 0 0 0 0 0 0 0 0 0 0 0 0 0 0 0
12 9 5 3 5 8 12 16 19 18 16 15 16 17 16 13 10 10 7 5 3 2 2 1 1 1 1 0 0 0 0 0 0 0 0 0 0 0 0 0 0 0 0
11 9 6 6 7 9 12 15 17 16 14 13 16 17 16 12 10 10 10 7 5 5 5 4 3 2 2 1 0 0 0 0 0 0 0 0 0 0 0 0 0 0 0
9 8 8 8 9 10 13 14 14 14 13 13 15 17 15 11 9 10 9 6 5 6 6 6 4 3 2 1 0 0 0 0 0 0 0 0 0 0 0 0 0 0 0
8 8 7 8 9 10 11 13 13 14 14 13 15 16 14 11 10 9 7 6 5 5 6 6 5 4 2 1 0 0 0 0 0 1 0 0 0 0 0 0 0 0 0
7 8 7 7 7 7 8 10 12 13 13 12 11 12 10 10 11 10 8 7 6 6 6 6 6 3 1 0 0 0 0 0 0 0 0 0 0 0 0 0 0 0 0
7 7 6 5 5 5 6 8 9 11 10 7 7 7 7 8 11 10 8 5 5 5 5 5 5 3 1 0 0 0 0 1 0 0 0 0 0 0 0 0 0 0 0
7 6 5 2 2 4 6 7 8 9 8 5 4 5 6 8 11 12 7 3 2 3 3 4 4 2 0 0 0 0 0 1 0 0 0 0 0 0 0 0 0 0 0

GEFSMW_con_prob3kmehi_228.txt.gz
EHI
4 4 2 1 2 7 12 15 16 17 16 14 16 17 16 14 9 6 6 7 8 7 6 5 5 4 4 4 4 4 4 4 3 3 3 3 3 3 4 3 3 4 4
6 4 3 2 4 9 13 15 17 19 19 16 15 17 17 14 11 8 9 10 10 9 7 7 6 5 5 6 6 6 5 4 3 4 3 3 3 3 3 3 3 4 4
7 6 5 5 9 12 13 15 20 23 25 22 17 17 18 16 12 10 10 11 11 10 8 7 7 6 6 7 8 7 6 4 4 5 4 3 2 3 3 3 3 3 4
9 8 8 10 12 13 13 16 23 28 29 26 21 19 18 15 11 10 9 10 11 11 9 7 7 7 7 8 8 7 7 6 5 6 6 4 3 4 3 3 3 3 3
11 10 11 13 12 11 12 17 24 29 31 27 23 21 19 16 14 14 13 12 11 10 9 8 9 9 9 9 8 8 8 7 6 7 7 7 6 4 3 3 3 3 3
14 13 13 15 14 11 13 18 24 28 29 27 25 23 22 21 21 19 16 14 12 10 9 9 10 10 10 9 9 9 7 6 6 6 6 6 6 5 4 3 3 3 3
18 17 19 21 19 16 17 21 25 27 27 26 26 25 23 22 20 17 14 12 11 10 10 10 11 11 10 10 9 8 7 5 4 4 5 5 5 5 3 2 2 2 2
22 21 23 26 24 21 22 24 27 28 27 25 25 24 20 17 14 11 10 10 10 10 11 13 13 12 11 10 9 8 7 7 5 3 4 4 3 3 3 2 2 2 1
24 21 22 25 25 24 25 26 29 30 28 25 22 20 19 16 13 9 8 9 11 11 12 13 13 12 11 9 9 9 9 8 7 5 5 5 4 3 4 4 4 3 1
23 20 20 24 25 25 26 27 28 28 26 23 20 18 17 15 13 10 9 11 13 14 14 15 14 12 10 9 9 9 9 9 8 7 7 7 5 4 4 5 5 4 3
21 18 19 23 25 24 25 26 26 24 22 21 20 17 15 14 12 10 10 13 15 17 17 17 16 14 11 10 10 10 10 10 9 8 8 8 6 5 4 4 4 3 3
18 18 20 22 23 21 21 24 24 21 20 21 22 20 18 15 12 10 11 13 16 18 19 19 18 16 14 12 11 11 11 11 9 8 8 7 6 5 4 4 4 3 3
18 19 20 21 21 20 21 22 21 20 20 21 22 22 19 15 12 11 11 13 15 18 18 17 16 16 15 14 13 13 12 9 8 8 9 9 7 6 5 5 4 4 3
22 21 21 22 23 23 23 23 21 19 18 18 19 20 17 12 11 10 10 11 13 14 13 12 12 14 14 14 15 15 13 9 7 8 9 8 6 4 5 5 4 4 3
24 23 23 23 23 23 25 26 25 22 19 16 16 16 14 11 9 8 8 9 10 9 9 8 8 10 9 10 12 13 12 10 10 9 8 6 4 3 3 3 3 3 3
23 23 22 22 21 20 23 27 28 27 23 17 15 15 14 14 11 8 9 10 10 11 10 8 8 8 6 5 5 7 9 10 11 10 7 4 4 3 1 1 1 2 3
20 20 20 20 20 19 21 25 29 30 25 18 15 16 17 17 15 13 13 15 16 17 16 12 9 8 5 2 1 2 4 7 10 9 6 5 4 3 2 1 0 0 1
21 21 19 19 21 21 22 25 30 30 25 19 17 18 19 20 20 19 19 20 21 21 19 14 10 7 5 2 1 1 3 7 9 9 7 6 5 3 3 2 1 1 0
24 22 19 20 23 24 25 27 29 29 25 20 18 19 20 21 22 23 23 22 21 20 17 13 10 6 4 3 1 1 4 7 10 10 8 6 4 3 3 3 3 2 1
26 23 21 23 25 26 26 27 27 27 24 20 20 22 23 24 24 25 25 22 19 17 15 12 10 8 6 3 1 1 4 7 9 10 7 4 3 2 2 3 3 3 3
26 23 22 24 25 27 29 28 27 26 23 20 21 25 25 24 24 25 25 22 19 16 15 13 11 10 8 4 1 1 3 5 7 7 5 3 1 1 1 2 3 3 2
23 21 21 24 27 30 32 31 29 26 22 20 21 24 25 23 23 26 25 23 20 17 15 15 13 11 9 6 2 1 2 3 4 5 3 1 0 0 0 1 2 1 1
21 18 18 23 28 32 34 33 30 26 23 21 22 23 23 22 23 26 27 24 21 18 16 15 14 12 10 7 3 1 1 1 3 3 2 0 0 0 0 0 0 0 0
22 17 15 19 25 29 30 30 28 26 24 22 21 21 22 21 22 24 25 24 23 21 17 14 13 12 11 10 6 2 1 1 1 2 1 0 0 0 0 0 0 0 1
25 20 15 16 20 23 23 24 25 24 22 21 18 18 19 20 21 21 20 20 20 18 14 11 10 11 11 10 7 4 2 1 1 1 2 1 0 0 0 0 0 1 2
28 21 16 15 17 18 19 21 23 22 20 19 17 16 17 20 21 19 15 16 16 12 8 7 9 11 11 8 4 2 1 1 1 1 2 2 1 0 0 0 1 2 3

GEFSMW_con_prob3kmehi_234.txt.gz
EHI
19 20 21 22 29 36 36 31 25 23 22 18 16 19 19 17 20 24 25 23 19 14 10 8 7 5 5 5 5 3 3 6 6 4 3 3 4 5 5 5 4 5 7
25 26 25 25 32 39 39 32 27 27 24 19 16 17 18 18 22 25 26 24 20 16 14 11 9 7 6 7 8 6 5 4 4 3 2 2 3 4 4 4 4 5 7
32 31 30 31 37 43 40 33 30 29 26 22 18 15 16 20 25 28 27 24 21 19 16 14 12 10 10 11 10 9 6 2 1 2 1 1 2 3 3 2 2 4 6
36 35 35 35 39 42 40 36 35 31 28 26 22 18 17 19 23 26 26 24 22 20 19 17 15 14 13 12 11 9 6 2 1 2 3 2 2 2 2 2 2 2 4
37 39 40 37 36 38 40 41 41 36 32 30 28 24 21 19 20 24 25 24 24 24 23 21 17 15 13 11 9 8 5 3 1 2 2 3 2 2 2 2 3 3 2
33 39 42 40 37 37 40 45 46 43 37 34 32 28 23 21 22 26 27 25 24 25 24 22 19 15 12 10 8 7 6 3 3 3 3 3 3 2 3 3 4 4 4
30 36 42 44 43 42 43 48 51 48 42 36 32 28 25 23 25 28 28 25 22 21 21 22 22 19 14 12 10 10 9 7 6 5 5 4 2 2 3 3 3 4 5
30 37 44 47 47 46 47 51 53 50 44 39 34 31 28 25 26 28 27 23 20 19 20 23 24 21 17 14 13 13 14 13 11 8 7 7 5 4 4 4 4 4 4
33 40 48 49 48 47 49 53 54 50 45 41 38 36 32 28 26 27 25 21 19 21 23 23 21 19 17 16 15 16 16 17 15 12 11 10 9 7 6 6 5 4 4
37 44 50 50 46 44 47 53 54 51 47 44 41 39 37 31 26 25 23 20 19 22 22 21 19 18 18 17 16 17 18 18 18 17 14 12 10 9 8 8 6 5 5
38 44 50 50 45 41 45 51 53 50 46 44 41 40 39 33 27 24 22 20 18 18 18 16 16 17 18 19 19 18 18 18 18 17 14 11 11 10 9 7 6 5 4
38 43 48 48 43 41 45 50 50 47 44 42 41 40 38 34 29 25 21 17 15 14 12 12 13 14 17 19 20 19 18 18 18 17 14 12 12 12 11 9 6 4 4
42 46 51 50 46 45 49 50 48 45 44 43 42 40 37 34 31 26 21 16 14 13 11 12 12 13 15 17 17 17 18 18 18 17 16 14 13 13 14 12 8 5 4
46 51 55 56 54 53 52 49 45 46 48 47 44 41 38 34 30 27 23 18 15 13 13 13 13 12 12 13 15 16 17 17 16 15 15 13 12 11 11 11 10 8 6
48 53 58 59 58 56 54 49 44 46 49 47 43 40 38 35 31 27 24 20 17 16 16 16 14 11 9 9 12 15 15 14 13 11 10 8 7 6 6 8 8 8 8
53 56 60 60 58 58 58 54 49 48 48 45 41 39 39 36 31 27 24 23 21 21 21 20 19 14 8 5 7 10 11 11 10 8 7 4 2 2 4 5 5 5 6
59 59 60 60 59 59 60 57 51 48 45 42 41 40 39 36 31 28 27 28 27 27 26 24 23 19 10 4 3 4 7 9 9 9 8 4 2 3 5 5 4 3 2
58 56 56 56 57 57 56 53 48 43 40 38 39 41 39 36 33 32 32 33 32 30 29 26 25 21 13 4 1 2 4 7 8 9 9 7 5 5 5 6 5 4 3
51 50 48 49 52 53 51 46 42 39 37 37 37 38 38 35 34 34 35 37 35 33 31 29 27 23 14 4 0 1 4 5 6 7 8 8 6 4 4 5 7 7 6
45 44 43 46 49 50 47 42 38 37 37 37 37 36 34 32 33 34 36 37 35 33 32 30 28 23 14 5 1 1 3 5 4 5 6 7 5 3 2 4 7 8 8
40 40 42 46 48 47 45 41 39 37 38 39 39 35 31 30 30 33 36 35 33 32 33 31 27 21 13 6 2 1 2 3 4 4 6 5 3 1 1 3 5 6 6
34 35 40 44 45 43 43 44 44 41 39 39 38 34 31 30 30 32 34 33 31 30 31 29 24 18 13 7 2 1 1 2 3 5 6 4 1 0 0 1 1 2 2
31 31 34 37 38 36 37 41 46 44 40 36 34 32 31 31 32 32 31 28 26 25 24 24 21 17 13 8 5 2 1 1 2 4 4 3 1 0 0 0 0 0 0
33 31 29 30 31 30 30 35 41 42 38 33 29 28 28 29 31 31 27 24 22 21 20 19 18 17 14 11 8 5 3 1 2 2 2 1 0 0 0 0 0 0 0
34 32 30 29 30 29 29 32 35 37 36 31 25 24 24 26 26 25 22 20 18 18 17 16 16 14 10 8 8 7 5 3 2 1 1 0 0 0 0 0 1 1 1
33 33 33 32 31 30 30 30 32 35 34 30 24 21 21 23 22 20 18 15 14 13 12 14 15 11 6 4 5 5 3 2 2 1 1 1 1 0 0 0 1 1 1

GEFSMW_con_prob3kmehi_240.txt.gz
EHI
8 12 14 14 11 8 5 3 3 5 4 2 1 1 1 1 2 5 6 4 2 1 1 0 0 0 0 0 0 0 0 0 0 0 0 0 0 0 0 0 0 0 0
10 14 17 17 15 11 7 5 4 5 6 5 4 3 2 2 3 4 5 5 4 3 3 1 0 0 0 0 0 0 0 0 0 0 0 0 0 0 0 0 0 0 0
11 15 19 21 21 16 11 8 7 7 9 8 7 6 5 6 5 5 6 7 6 6 5 3 1 1 0 0 0 0 0 0 0 0 0 0 0 0 0 0 0 0 0
15 17 21 24 24 20 16 13 12 11 11 10 9 8 8 8 8 7 7 7 7 7 6 5 4 2 1 0 0 0 0 0 0 0 0 0 0 0 0 0 0 0 0
18 18 21 24 23 22 21 18 17 15 12 10 9 10 10 10 10 8 6 7 8 7 6 5 5 3 2 1 0 0 0 0 0 0 0 0 0 0 0 0 0 0 0
20 18 19 22 24 25 26 25 22 19 15 12 11 11 12 12 13 10 6 6 7 6 5 4 4 3 3 2 1 0 0 0 0 0 0 0 0 0 0 0 0 0 0
23 21 21 26 29 30 31 31 28 23 18 17 16 14 13 13 13 10 7 6 6 6 6 4 3 3 3 3 2 1 0 0 0 0 0 0 0 0 0 0 0 0 0
26 26 28 31 34 34 34 34 31 26 23 22 19 15 13 11 10 8 7 6 6 7 7 5 4 3 4 4 4 3 1 1 1 1 1 0 0 0 0 0 0 0 0
26 29 31 33 35 36 35 35 32 29 27 24 21 16 12 10 9 8 7 6 6 5 5 5 4 4 5 6 6 5 4 3 3 2 2 1 1 1 0 0 0 0 0
27 30 33 34 35 34 33 33 34 32 29 26 21 16 14 13 12 10 7 5 4 4 4 4 4 4 6 6 6 6 6 5 4 3 3 3 2 2 1 0 0 0 0
28 31 34 34 34 32 30 31 33 32 30 27 22 18 17 17 14 10 5 4 3 3 3 3 4 5 6 6 6 6 6 6 5 3 2 2 2 2 1 0 0 0 0
30 31 33 33 32 32 31 31 32 32 31 29 25 21 18 16 12 8 4 3 3 3 3 4 5 6 6 6 6 6 6 6 4 2 1 1 1 1 1 0 0 0 0
33 32 30 31 31 33 34 35 34 32 31 30 28 24 19 14 9 6 4 3 3 2 2 3 3 4 5 6 6 6 6 4 2 0 0 0 0 0 0 0 0 0 0
36 34 30 28 30 33 35 36 33 30 28 27 27 25 22 16 10 7 5 3 1 1 1 2 2 2 3 4 4 5 5 3 1 0 0 0 0 0 0 0 0 0 0
35 34 29 26 27 30 31 29 27 25 24 24 25 25 23 19 14 9 6 4 3 2 3 3 3 3 3 3 4 4 3 1 0 0 0 0 0 0 0 0 0 0 0
33 33 30 26 25 27 25 22 20 21 23 24 24 23 22 19 15 12 9 7 7 6 6 5 4 3 3 3 3 3 2 1 0 0 0 0 0 0 0 0 0 0 0
34 35 33 29 27 25 22 18 18 20 23 24 24 23 22 19 16 15 13 10 9 9 8 6 4 3 2 1 1 1 1 1 0 0 0 0 1 1 0 0 0 0 0
34 35 34 32 30 26 20 18 18 20 22 23 24 25 23 20 18 17 15 13 12 10 9 6 4 3 2 0 0 0 0 0 0 0 0 0 1 2 1 0 0 0 0
30 30 31 32 31 27 22 20 19 21 23 23 25 26 24 21 20 20 18 16 15 13 10 8 5 3 2 1 0 0 0 0 0 0 0 0 1 1 1 1 1 0 0
27 26 27 30 28 25 24 22 21 23 24 24 24 24 22 21 21 21 20 19 18 16 13 9 6 4 4 2 1 0 0 1 1 1 1 1 1 1 0 1 1 0 0
23 23 24 25 23 21 21 21 20 20 21 21 20 18 16 17 18 19 19 20 20 19 16 11 7 6 5 4 1 0 0 1 2 3 4 3 2 0 0 0 0 0 0
18 20 21 20 17 16 16 16 15 14 15 16 14 11 11 13 14 15 17 20 22 21 18 13 9 7 6 5 2 0 0 1 1 2 4 3 1 0 0 0 0 0 0
14 16 17 16 13 12 12 10 8 9 11 11 9 7 8 9 10 12 14 18 20 19 17 14 11 9 8 5 3 1 0 0 0 1 2 2 1 0 0 0 0 0 0
13 13 14 12 10 9 9 7 5 6 9 9 7 6 6 6 7 9 11 13 16 17 16 14 13 11 10 7 4 2 1 0 0 0 1 1 0 0 0 0 0 0 0
12 11 11 10 8 7 7 7 6 7 8 8 7 6 6 5 6 7 8 9 11 13 13 11 11 11 10 7 4 2 1 0 0 0 0 0 0 0 0 0 0 0 0
11 9 9 9 8 6 7 7 7 8 8 7 7 6 6 6 6 6 5 7 8 10 9 8 9 10 9 6 3 1 1 0 0 0 0 0 0 0 0 0 0 0 0